[[{"header":{"parameterUnit":"m.s-1","parameterCategory":1,"la1":30.6,"la2":28.766,"lo1":-90.7593,"lo2":-88.6598,"dy":0.0162,"dx":0.0183,"nx":116,"ny":114,"refTime":"2023-08-14T12:00:00:Z","depth":0,"parameterNumber":2,"parameterNumberName":"U-component_of_WINDS"},"data":[0.0,0.0,0.0,0.0,0.0,0.0,0.0,0.0,0.0,0.0,0.0,0.0,0.0,0.0,0.0,0.0,0.0,0.0,0.0,0.0,0.0,0.0,0.0,0.0,0.0,0.0,0.0,0.0,0.0,0.0,0.0,0.0,0.0,0.0,0.0,0.0,0.0,0.0,0.0,0.0,0.0,0.0,0.0,0.0,0.0,0.0,0.0,0.0,0.0,0.0,0.0,0.0,0.0,0.0,0.0,0.0,0.0,0.0,0.0,0.0,0.0,0.0,0.0,0.0,0.0,0.0,0.0,0.0,0.0,0.0,0.0,0.0,0.0,0.0,0.0,0.0,0.0,0.0,0.0,0.0,0.0,0.0,0.0,0.0,0.0,0.0,0.0,0.0,0.0,0.0,0.0,0.0,0.0,0.0,0.0,0.0,0.0,0.0,0.0,0.0,0.0,0.0,0.0,0.0,0.0,0.0,0.0,0.0,0.0,0.0,0.0,0.0,0.0,0.0,0.0,0.0,0.0,0.0,0.0,0.0,0.0,0.0,0.0,0.0,0.0,0.0,0.0,0.0,0.0,0.0,0.0,0.0,0.0,0.0,0.0,0.0,0.0,0.0,0.0,0.0,0.0,0.0,0.0,0.0,0.0,0.0,0.0,0.0,0.0,0.0,0.0,0.0,0.0,0.0,0.0,0.0,0.0,0.0,0.0,0.0,0.0,0.0,0.0,0.0,0.0,0.0,0.0,0.0,0.0,0.0,0.0,0.0,0.0,0.0,0.0,0.0,0.0,0.0,0.0,0.0,0.0,0.0,0.0,0.0,0.0,0.0,0.0,0.0,0.0,0.0,0.0,0.0,0.0,0.0,0.0,0.0,0.0,0.0,0.0,0.0,0.0,0.0,0.0,0.0,0.0,0.0,0.0,0.0,0.0,0.0,0.0,0.0,0.0,0.0,0.0,0.0,0.0,0.0,0.0,0.0,0.0,0.0,0.0,0.0,0.0,0.0,0.0,0.0,0.0,0.0,0.0,0.0,0.0,0.0,0.0,0.0,0.0,0.0,0.0,0.0,0.0,0.0,0.0,0.0,0.0,0.0,0.0,0.0,0.0,0.0,0.0,0.0,0.0,0.0,0.0,0.0,0.0,0.0,0.0,0.0,0.0,0.0,0.0,0.0,0.0,0.0,0.0,0.0,0.0,0.0,0.0,0.0,0.0,0.0,0.0,0.0,0.0,0.0,0.0,0.0,0.0,0.0,0.0,0.0,0.0,0.0,0.0,0.0,0.0,0.0,0.0,0.0,0.0,0.0,0.0,0.0,0.0,0.0,0.0,0.0,0.0,0.0,0.0,0.0,0.0,0.0,0.0,0.0,0.0,0.0,0.0,0.0,0.0,0.0,0.0,0.0,0.0,0.0,0.0,0.0,0.0,0.0,0.0,0.0,0.0,0.0,0.0,0.0,0.0,0.0,0.0,0.0,0.0,0.0,0.0,0.0,0.0,0.0,0.0,0.0,0.0,0.0,0.0,0.0,0.0,0.0,0.0,0.0,0.0,0.0,0.0,0.0,0.0,0.0,0.0,0.0,0.0,0.0,0.0,0.0,0.0,0.0,0.0,0.0,0.0,0.0,0.0,0.0,0.0,0.0,0.0,0.0,0.0,0.0,0.0,0.0,0.0,0.0,0.0,0.0,0.0,0.0,0.0,0.0,0.0,0.0,0.0,0.0,0.0,0.0,0.0,0.0,0.0,0.0,0.0,0.0,0.0,0.0,0.0,0.0,0.0,0.0,0.0,0.0,0.0,0.0,0.0,0.0,0.0,0.0,0.0,0.0,0.0,0.0,0.0,0.0,0.0,0.0,0.0,0.0,0.0,0.0,0.0,0.0,0.0,0.0,0.0,0.0,0.0,0.0,0.0,0.0,0.0,0.0,0.0,0.0,0.0,0.0,0.0,0.0,0.0,0.0,0.0,0.0,0.0,0.0,0.0,0.0,0.0,0.0,0.0,0.0,0.0,0.0,0.0,0.0,0.0,0.0,0.0,0.0,0.0,0.0,0.0,0.0,0.0,0.0,0.0,0.0,0.0,0.0,0.0,0.0,0.0,0.0,0.0,0.0,0.0,0.0,0.0,0.0,0.0,0.0,0.0,0.0,0.0,0.0,0.0,0.0,0.0,0.0,0.0,0.0,0.0,0.0,0.0,0.0,0.0,0.0,0.0,0.0,0.0,0.0,0.0,0.0,0.0,0.0,0.0,0.0,0.0,0.0,0.0,0.0,0.0,0.0,0.0,0.0,0.0,0.0,0.0,0.0,0.0,0.0,0.0,0.0,0.0,0.0,0.0,0.0,0.0,0.0,0.0,0.0,0.0,0.0,0.0,0.0,0.0,0.0,0.0,0.0,0.0,0.0,0.0,0.0,0.0,0.0,0.0,0.0,0.0,0.0,0.0,0.0,0.0,0.0,0.0,0.0,0.0,0.0,0.0,0.0,0.0,0.0,0.0,0.0,0.0,0.0,0.0,0.0,0.0,0.0,0.0,0.0,0.0,0.0,0.0,0.0,0.0,0.0,0.0,0.0,0.0,0.0,0.0,0.0,0.0,0.0,0.0,0.0,0.0,0.0,0.0,0.0,0.0,0.0,0.0,0.0,0.0,0.0,0.0,0.0,0.0,0.0,0.0,0.0,0.0,0.0,0.0,0.0,0.0,0.0,0.0,0.0,0.0,0.0,0.0,0.0,0.0,0.0,0.0,0.0,0.0,0.0,0.0,0.0,0.0,0.0,0.0,0.0,0.0,0.0,0.0,0.0,0.0,0.0,0.0,0.0,0.0,0.0,0.0,0.0,0.0,0.0,0.0,0.0,0.0,0.0,0.0,0.0,0.0,0.0,0.0,0.0,0.0,0.0,0.0,0.0,0.0,0.0,0.0,0.0,0.0,0.0,0.0,0.0,0.0,0.0,0.0,0.0,0.0,0.0,0.0,0.0,0.0,0.0,0.0,0.0,0.0,0.0,0.0,0.0,0.0,0.0,0.0,0.0,0.0,0.0,0.0,0.0,0.0,0.0,0.0,0.0,0.0,0.0,0.0,0.0,0.0,0.0,0.0,0.0,0.0,0.0,0.0,0.0,0.0,0.0,0.0,0.0,0.0,0.0,0.0,0.0,0.0,0.0,0.0,0.0,0.0,0.0,0.0,0.0,0.0,0.0,0.0,0.0,0.0,0.0,0.0,0.0,0.0,0.0,0.0,0.0,0.0,0.0,0.0,0.0,0.0,0.0,0.0,0.0,0.0,0.0,0.0,0.0,0.0,0.0,0.0,0.0,0.0,0.0,0.0,0.0,0.0,0.0,0.0,0.0,0.0,0.0,0.0,0.0,0.0,0.0,0.0,0.0,0.0,0.0,0.0,0.0,0.0,0.0,0.0,0.0,0.0,0.0,0.0,0.0,0.0,0.0,0.0,0.0,0.0,0.0,0.0,0.0,0.0,0.0,0.0,0.0,0.0,0.0,0.0,0.0,0.0,0.0,0.0,0.0,0.0,0.0,0.0,0.0,0.0,0.0,0.0,0.0,0.0,0.0,0.0,0.0,0.0,0.0,0.0,0.0,0.0,0.0,0.0,0.0,0.0,0.0,0.0,0.0,0.0,0.0,0.0,0.0,0.0,0.0,0.0,0.0,0.0,0.0,0.0,0.0,0.0,0.0,0.0,0.0,0.0,0.0,0.0,0.0,0.0,0.0,0.0,0.0,0.0,0.0,0.0,0.0,0.0,0.0,0.0,0.0,0.0,0.0,0.0,0.0,0.0,0.0,0.0,0.0,0.0,0.0,0.0,0.0,0.0,0.0,0.0,0.0,0.0,0.0,0.0,0.0,0.0,0.0,0.0,0.0,0.0,0.0,0.0,0.0,0.0,0.0,0.0,0.0,0.0,0.0,0.0,0.0,0.0,0.0,0.0,0.0,0.0,0.0,0.0,0.0,0.0,0.0,0.0,0.0,0.0,0.0,0.0,0.0,0.0,0.0,0.0,0.0,0.0,0.0,0.0,0.0,0.0,0.0,0.0,0.0,0.0,0.0,0.0,0.0,0.0,0.0,0.0,0.0,0.0,0.0,0.0,0.0,0.0,0.0,0.0,0.0,0.0,0.0,0.0,0.0,0.0,0.0,0.0,0.0,0.0,0.0,0.0,0.0,0.0,0.0,0.0,0.0,0.0,0.0,0.0,0.0,0.0,0.0,0.0,0.0,0.0,0.0,0.0,0.0,0.0,0.0,0.0,0.0,0.0,0.0,0.0,0.0,0.0,0.0,0.0,0.0,0.0,0.0,0.0,0.0,0.0,0.0,0.0,0.0,0.0,0.0,0.0,0.0,0.0,0.0,0.0,0.0,0.0,0.0,0.0,0.0,0.0,0.0,0.0,0.0,0.0,0.0,0.0,0.0,0.0,0.0,0.0,0.0,0.0,0.0,0.0,0.0,0.0,0.0,0.0,0.0,0.0,0.0,0.0,0.0,0.0,0.0,0.0,0.0,0.0,0.0,0.0,0.0,0.0,0.0,0.0,0.0,0.0,0.0,0.0,0.0,0.0,0.0,0.0,0.0,0.0,0.0,0.0,0.0,0.0,0.0,0.0,0.0,0.0,0.0,0.0,0.0,0.0,0.0,0.0,0.0,0.0,0.0,0.0,0.0,0.0,0.0,0.0,0.0,0.0,0.0,0.0,0.0,0.0,0.0,0.0,0.0,0.0,0.0,0.0,0.0,0.0,0.0,0.0,0.0,0.0,0.0,0.0,0.0,0.0,0.0,0.0,0.0,0.0,0.0,0.0,0.0,0.0,0.0,0.0,0.0,0.0,0.0,0.0,0.0,0.0,0.0,0.0,0.0,0.0,0.0,0.0,0.0,0.0,0.0,0.0,0.0,0.0,0.0,0.0,0.0,0.0,0.0,0.0,0.0,0.0,0.0,0.0,0.0,0.0,0.0,0.0,0.0,0.0,0.0,0.0,0.0,0.0,0.0,0.0,0.0,0.0,0.0,0.0,0.0,0.0,0.0,0.0,0.0,0.0,0.0,0.0,0.0,0.0,0.0,0.0,0.0,0.0,0.0,0.0,0.0,0.0,0.0,0.0,0.0,0.0,0.0,0.0,0.0,0.0,0.0,0.0,0.0,0.0,0.0,0.0,0.0,0.0,0.0,0.0,0.0,0.0,0.0,0.0,0.0,0.0,0.0,0.0,0.0,0.0,0.0,0.0,0.0,0.0,0.0,0.0,0.0,0.0,0.0,0.0,0.0,0.0,0.0,0.0,0.0,0.0,0.0,0.0,0.0,0.0,0.0,0.0,0.0,0.0,0.0,0.0,0.0,0.0,0.0,0.0,0.0,0.0,0.0,0.0,0.0,0.0,0.0,0.0,0.0,0.0,0.0,0.0,0.0,0.0,0.0,0.0,0.0,0.0,0.0,0.0,0.0,0.0,0.0,0.0,0.0,0.0,0.0,0.0,0.0,0.0,0.0,0.0,0.0,0.0,0.0,0.0,0.0,0.0,0.0,0.0,0.0,0.0,0.0,0.0,0.0,0.0,0.0,0.0,0.0,0.0,0.0,0.0,0.0,0.0,0.0,0.0,0.0,0.0,0.0,0.0,0.0,0.0,0.0,0.0,0.0,0.0,0.0,0.0,0.0,0.0,0.0,0.0,0.0,0.0,0.0,0.0,0.0,0.0,0.0,0.0,0.0,0.0,0.0,0.0,0.0,0.0,0.0,0.0,0.0,0.0,0.0,0.0,0.0,0.0,0.0,0.0,0.0,0.0,0.0,0.0,0.0,0.0,0.0,0.0,0.0,0.0,0.0,0.0,0.0,0.0,0.0,0.0,0.0,0.0,0.0,0.0,0.0,0.0,0.0,0.0,0.0,0.0,0.0,0.0,0.0,0.0,0.0,0.0,0.0,0.0,0.0,0.0,0.0,0.0,0.0,0.0,0.0,0.0,0.0,0.0,0.0,0.0,0.0,0.0,0.0,0.0,0.0,0.0,0.0,0.0,0.0,0.0,0.0,0.0,0.0,0.0,0.0,0.0,0.0,0.0,0.0,0.0,0.0,0.0,0.0,0.0,0.0,0.0,0.0,-3.4905,0.0,0.0,0.0,0.0,0.0,0.0,0.0,0.0,0.0,0.0,0.0,0.0,0.0,0.0,0.0,0.0,0.0,0.0,0.0,0.0,0.0,0.0,0.0,0.0,0.0,0.0,0.0,0.0,0.0,0.0,0.0,0.0,0.0,0.0,0.0,0.0,0.0,0.0,0.0,0.0,0.0,0.0,0.0,0.0,0.0,0.0,0.0,0.0,0.0,0.0,0.0,0.0,0.0,0.0,0.0,0.0,0.0,0.0,0.0,0.0,0.0,0.0,0.0,0.0,0.0,0.0,0.0,0.0,0.0,0.0,0.0,0.0,0.0,0.0,0.0,0.0,0.0,0.0,0.0,0.0,0.0,0.0,0.0,0.0,0.0,0.0,0.0,0.0,0.0,0.0,0.0,0.0,0.0,0.0,0.0,0.0,0.0,0.0,0.0,0.0,0.0,0.0,0.0,0.0,0.0,0.0,0.0,0.0,0.0,0.0,0.0,0.0,0.0,0.0,0.0,0.0,-3.5806,0.0,0.0,0.0,0.0,0.0,0.0,0.0,0.0,0.0,0.0,0.0,0.0,0.0,0.0,0.0,0.0,0.0,0.0,0.0,0.0,0.0,0.0,0.0,0.0,0.0,0.0,0.0,0.0,0.0,0.0,0.0,0.0,0.0,0.0,0.0,0.0,0.0,0.0,0.0,0.0,0.0,0.0,0.0,0.0,0.0,0.0,0.0,0.0,0.0,0.0,0.0,0.0,0.0,0.0,0.0,0.0,0.0,0.0,0.0,0.0,0.0,0.0,0.0,0.0,0.0,0.0,0.0,0.0,0.0,0.0,0.0,0.0,0.0,0.0,0.0,0.0,0.0,0.0,0.0,0.0,0.0,0.0,0.0,0.0,0.0,0.0,0.0,0.0,0.0,0.0,0.0,0.0,0.0,0.0,0.0,0.0,0.0,0.0,0.0,0.0,0.0,0.0,0.0,0.0,0.0,0.0,0.0,0.0,-3.9805,-3.9941,-3.9941,-3.9941,-4.105,-4.2861,-4.0742,-4.0725,-4.1867,-3.7648,0.0,0.0,0.0,0.0,0.0,0.0,0.0,0.0,0.0,0.0,0.0,0.0,0.0,0.0,0.0,0.0,0.0,0.0,0.0,0.0,0.0,0.0,0.0,0.0,0.0,0.0,0.0,0.0,0.0,0.0,0.0,0.0,0.0,0.0,0.0,0.0,0.0,0.0,-4.0563,-4.0503,-4.0466,-4.033,-3.7566,0.0,0.0,0.0,0.0,0.0,0.0,0.0,0.0,0.0,0.0,0.0,0.0,0.0,0.0,0.0,0.0,0.0,0.0,0.0,0.0,0.0,0.0,0.0,0.0,0.0,0.0,0.0,0.0,0.0,0.0,0.0,0.0,0.0,0.0,0.0,0.0,0.0,0.0,0.0,0.0,0.0,0.0,0.0,-3.5344,-3.6321,0.0,0.0,0.0,0.0,0.0,0.0,0.0,0.0,0.0,0.0,0.0,0.0,0.0,-3.9823,-4.076,-4.2265,-4.3027,-4.3047,-4.4551,-4.5273,-4.5273,-4.5273,-4.5426,-4.5654,-4.5279,0.0,-4.2135,-4.1401,0.0,0.0,0.0,0.0,0.0,0.0,0.0,0.0,0.0,0.0,0.0,0.0,0.0,0.0,0.0,0.0,0.0,0.0,0.0,0.0,0.0,0.0,0.0,0.0,0.0,0.0,0.0,0.0,0.0,0.0,0.0,0.0,0.0,0.0,0.0,0.0,-3.9746,-4.1556,-4.3007,-4.2988,-4.3095,-4.3278,-4.2231,-4.0205,-3.7496,-3.6642,0.0,0.0,0.0,0.0,0.0,0.0,0.0,0.0,0.0,0.0,0.0,0.0,0.0,0.0,0.0,0.0,0.0,0.0,0.0,0.0,0.0,0.0,0.0,0.0,0.0,0.0,0.0,0.0,0.0,0.0,0.0,0.0,0.0,0.0,0.0,0.0,0.0,0.0,0.0,-3.3624,-3.5155,-3.5112,-3.4861,-3.412,0.0,0.0,0.0,0.0,0.0,0.0,0.0,0.0,0.0,-4.1941,-4.2043,-4.2671,-4.4019,-4.4784,-4.5156,-4.5176,-4.5937,-4.6308,-4.6308,-4.6308,-4.6288,-4.6243,-4.6145,-4.5455,-4.4272,-4.2728,-4.0795,-3.8684,0.0,0.0,0.0,0.0,-3.6615,-3.6922,0.0,0.0,0.0,0.0,0.0,0.0,0.0,0.0,0.0,0.0,0.0,0.0,0.0,0.0,0.0,-3.1397,0.0,0.0,0.0,0.0,0.0,0.0,0.0,0.0,0.0,0.0,0.0,0.0,-4.1436,-4.2693,-4.4501,-4.4501,-4.4608,-4.48,-4.5007,-4.303,-3.9526,-3.9123,-3.7478,0.0,0.0,0.0,0.0,0.0,0.0,0.0,0.0,0.0,0.0,0.0,0.0,0.0,0.0,0.0,0.0,0.0,0.0,0.0,0.0,0.0,0.0,0.0,0.0,0.0,0.0,0.0,0.0,0.0,0.0,0.0,0.0,0.0,0.0,0.0,0.0,0.0,0.0,-3.4815,-3.5983,-3.5133,-3.5994,-3.572,0.0,0.0,0.0,0.0,0.0,0.0,-4.0471,-4.0748,-4.1958,-4.4297,-4.4362,-4.4991,-4.628,-4.6304,-4.6307,-4.6308,-4.6308,-4.6308,-4.6308,-4.6308,-4.6288,-4.6241,-4.6142,-4.6076,-4.5875,-4.3868,-4.2671,-4.1921,-4.0064,-3.8914,-3.8381,-3.9017,-3.9199,-3.9504,0.0,0.0,0.0,0.0,0.0,0.0,0.0,0.0,0.0,0.0,0.0,0.0,0.0,0.0,-3.3571,-3.4335,-3.4976,-3.468,0.0,0.0,0.0,0.0,0.0,0.0,0.0,0.0,0.0,-4.0797,-4.3163,-4.4369,-4.4501,-4.4501,-4.4608,-4.4788,-4.4812,-4.4925,-4.4951,-4.2727,-4.1687,-4.1184,0.0,0.0,0.0,0.0,0.0,0.0,0.0,0.0,0.0,0.0,0.0,0.0,0.0,0.0,0.0,0.0,0.0,0.0,0.0,0.0,0.0,0.0,0.0,0.0,0.0,0.0,0.0,0.0,0.0,0.0,0.0,0.0,0.0,0.0,0.0,0.0,0.0,0.0,0.0,-3.9561,-4.0971,0.0,0.0,0.0,0.0,-3.8396,-3.9234,-4.0483,-4.2181,-4.3061,-4.433,-4.6106,-4.6173,-4.6216,-4.6294,-4.63,-4.6302,-4.6302,-4.6306,-4.6307,-4.6307,-4.6308,-4.6237,-4.6112,-4.6102,-4.5983,-4.5808,-4.5659,-4.4221,-4.2091,-4.196,-4.0422,-3.8587,-4.0942,-4.1763,-4.206,0.0,0.0,0.0,0.0,0.0,0.0,0.0,0.0,0.0,0.0,0.0,0.0,0.0,-3.3867,-3.6963,-3.8158,-3.9896,-4.0105,-3.8122,0.0,0.0,0.0,0.0,0.0,0.0,0.0,-4.0985,-4.3168,-4.4069,-4.4501,-4.4501,-4.4501,-4.4608,-4.48,-4.4985,-4.5214,-4.546,-4.4614,-4.33,-4.1689,-4.0308,-3.8125,0.0,0.0,0.0,0.0,0.0,0.0,0.0,0.0,0.0,0.0,0.0,0.0,0.0,0.0,0.0,0.0,0.0,0.0,0.0,0.0,0.0,0.0,0.0,0.0,0.0,0.0,0.0,0.0,0.0,0.0,0.0,0.0,0.0,0.0,0.0,0.0,0.0,-3.9253,-4.103,0.0,-3.9255,-4.0249,-4.1049,-4.1049,-4.2864,-4.425,-4.4875,-4.5207,-4.5656,-4.628,-4.6303,-4.6308,-4.6293,-4.6295,-4.6299,-4.6301,-4.6303,-4.6304,-4.6304,-4.6305,-4.6254,-4.6164,-4.6072,-4.5979,-4.586,-4.5766,-4.5237,-4.4486,-4.4486,-4.3905,-4.3163,-4.4063,-4.4345,-4.4418,0.0,0.0,0.0,0.0,0.0,0.0,0.0,0.0,0.0,0.0,0.0,0.0,-3.2682,-3.7092,-4.0251,-4.1091,-4.2977,-4.2716,-3.9456,0.0,0.0,0.0,0.0,0.0,0.0,-4.0497,-4.2299,-4.4501,-4.4501,-4.4501,-4.4501,-4.4501,-4.4608,-4.48,-4.5074,-4.5304,-4.5498,-4.5577,-4.4638,-4.3058,-4.2607,-4.0776,-3.8144,0.0,0.0,0.0,0.0,0.0,0.0,0.0,0.0,0.0,0.0,0.0,0.0,0.0,0.0,0.0,0.0,0.0,0.0,0.0,0.0,0.0,0.0,0.0,0.0,0.0,0.0,0.0,0.0,0.0,0.0,0.0,0.0,0.0,0.0,0.0,-4.1557,-3.9274,-4.1791,-4.2825,-4.0543,-4.2376,-4.3723,-4.3723,-4.5324,-4.63,-4.63,-4.63,-4.63,-4.63,-4.63,-4.6303,-4.6309,-4.6309,-4.6291,-4.6296,-4.6299,-4.6299,-4.63,-4.6302,-4.6254,-4.6199,-4.6102,-4.6033,-4.5952,-4.5866,-4.5835,-4.5834,-4.5786,-4.5746,-4.5703,-4.5703,-4.5654,-4.5594,0.0,0.0,0.0,0.0,0.0,0.0,0.0,0.0,0.0,0.0,0.0,0.0,0.0,0.0,0.0,0.0,0.0,0.0,0.0,0.0,0.0,0.0,0.0,0.0,-4.076,-4.1648,-4.2868,-4.4501,-4.4501,-4.4501,-4.4501,-4.4501,-4.4595,-4.4788,-4.5074,-4.5304,-4.5498,-4.5715,-4.5807,-4.5671,-4.402,-4.3402,-4.2947,0.0,0.0,0.0,0.0,0.0,0.0,0.0,0.0,0.0,0.0,0.0,0.0,0.0,0.0,0.0,0.0,0.0,0.0,0.0,0.0,0.0,0.0,0.0,0.0,0.0,0.0,0.0,0.0,0.0,0.0,0.0,0.0,0.0,-3.9079,-4.0912,-4.1908,-4.021,-4.3723,-4.5636,-4.3959,-4.5304,-4.63,-4.63,-4.63,-4.63,-4.63,-4.6339,-4.6339,-4.6339,-4.6358,-4.6378,-4.6378,-4.6378,-4.638,-4.638,-4.6387,-4.6372,-4.6372,-4.6382,-4.6334,-4.6287,-4.6271,-4.624,-4.6176,-4.6177,-4.61,-4.5957,-4.5776,-4.5703,-4.5701,-4.5701,-4.5648,-4.5594,0.0,0.0,0.0,0.0,0.0,0.0,0.0,0.0,0.0,0.0,0.0,0.0,0.0,0.0,0.0,0.0,0.0,0.0,0.0,0.0,0.0,0.0,0.0,0.0,-4.1629,-4.3074,-4.4031,-4.4501,-4.4501,-4.4501,-4.4501,-4.4501,-4.4524,-4.4595,-4.5015,-4.5232,-4.5313,-4.565,-4.5807,-4.5768,-4.5304,-4.4415,-4.3272,0.0,0.0,0.0,0.0,0.0,0.0,0.0,0.0,0.0,0.0,0.0,0.0,0.0,0.0,0.0,0.0,0.0,0.0,0.0,0.0,0.0,0.0,0.0,0.0,0.0,0.0,0.0,0.0,0.0,0.0,0.0,0.0,-4.2884,-4.1537,-4.3587,-4.5051,-4.4563,-4.5578,-4.6105,-4.5636,-4.6027,-4.63,-4.63,-4.63,-4.63,-4.63,-4.6905,-4.7237,-4.7237,-4.7803,-4.8115,-4.8115,-4.8161,-4.8184,-4.8184,-4.8192,-4.8195,-4.8195,-4.8197,-4.8149,-4.8077,-4.8025,-4.7973,-4.7903,-4.7853,-4.778,-4.7579,-4.6339,-4.5783,-4.5701,-4.5701,-4.5648,-4.5594,0.0,0.0,0.0,0.0,0.0,0.0,0.0,0.0,0.0,0.0,0.0,0.0,0.0,0.0,0.0,0.0,0.0,0.0,0.0,0.0,0.0,0.0,0.0,-4.1511,-4.3018,-4.3994,-4.4501,-4.4501,-4.4501,-4.4501,-4.4501,-4.4501,-4.4532,-4.4648,-4.5038,-4.5253,-4.5343,-4.5677,-4.5807,-4.5807,-4.5821,-4.5286,-4.4369,-4.3664,-4.2807,-4.182,-4.0631,-3.9994,-3.9388,-3.7353,0.0,0.0,0.0,0.0,0.0,0.0,0.0,0.0,0.0,0.0,0.0,0.0,0.0,0.0,0.0,0.0,0.0,0.0,0.0,0.0,0.0,0.0,0.0,0.0,-4.3313,-4.4602,-4.4114,-4.5343,-4.63,-4.63,-4.63,-4.6436,-4.6807,-4.6846,-4.6983,-4.7315,-4.7354,-4.7354,-4.7354,-4.7822,-4.8096,-4.8096,-4.8564,-4.8798,-4.8798,-4.8843,-4.8864,-4.8865,-4.885,-4.8853,-4.8853,-4.8855,-4.8849,-4.8792,-4.8786,-4.8752,-4.8685,-4.8616,-4.8536,0.0,0.0,0.0,0.0,0.0,-4.6724,-4.6698,0.0,0.0,0.0,0.0,0.0,0.0,0.0,0.0,0.0,0.0,0.0,0.0,0.0,0.0,0.0,0.0,0.0,0.0,0.0,0.0,0.0,-4.0609,-4.1079,-4.2262,-4.4444,-4.4501,-4.4501,-4.4501,-4.4501,-4.4501,-4.4501,-4.4524,-4.4635,-4.48,-4.5107,-4.5323,-4.5507,-4.5723,-4.5807,-4.5807,-4.5867,-4.5899,-4.5737,-4.4257,-4.3729,-4.3588,-4.2034,-4.1024,-4.0364,-4.0092,0.0,0.0,0.0,0.0,0.0,0.0,0.0,0.0,0.0,0.0,0.0,0.0,0.0,0.0,0.0,0.0,0.0,0.0,0.0,0.0,0.0,0.0,0.0,0.0,-4.5304,-4.6475,-4.6573,-4.6573,-4.6554,-4.6456,-4.6534,-4.6885,-4.7664,-4.7742,-4.8037,-4.8759,-4.8798,-4.8798,-4.8798,0.0,0.0,0.0,0.0,-4.9091,-4.9091,-4.9093,-4.9093,-4.9093,-4.9095,-4.9095,-4.9095,-4.9083,-4.9082,-4.9095,-4.9167,-4.9143,-4.9066,-4.9006,-4.8903,-4.8738,-4.8471,-4.8341,-4.8268,-4.8214,-4.8197,-4.8169,0.0,0.0,0.0,0.0,0.0,0.0,0.0,0.0,0.0,0.0,0.0,0.0,0.0,0.0,0.0,0.0,0.0,0.0,0.0,0.0,0.0,-4.076,-4.2731,-4.4013,-4.4482,-4.4501,-4.4501,-4.4501,-4.4501,-4.4501,-4.4496,-4.4668,-4.4758,-4.4812,-4.5255,-4.5463,-4.5507,-4.5723,-4.5807,-4.5807,-4.5867,-4.5899,-4.5872,-4.5605,-4.5504,-4.5472,-4.5128,-4.4914,-4.4462,-4.2408,-4.1611,-4.1106,-3.9047,0.0,0.0,0.0,0.0,0.0,0.0,0.0,0.0,0.0,0.0,0.0,0.0,0.0,0.0,0.0,0.0,0.0,0.0,0.0,0.0,-4.4543,-4.6202,-4.7588,-4.8232,-4.831,-4.8076,-4.7432,-4.792,-4.8388,-4.8545,-4.8564,-4.8623,-4.8798,-4.8798,-4.8798,-4.8798,-4.9462,-4.985,-4.985,-5.0535,-5.0906,-5.0906,-5.0896,-5.0899,-5.0899,0.0,0.0,-5.0907,-5.0908,-5.0908,-5.0907,-5.0904,-5.085,-5.0737,-5.0716,-5.0602,-5.0286,-4.8742,-4.815,-4.8133,-4.8124,-4.8124,-4.8115,0.0,0.0,0.0,0.0,0.0,0.0,0.0,0.0,0.0,0.0,0.0,0.0,0.0,0.0,0.0,0.0,0.0,0.0,0.0,0.0,0.0,-4.26,-4.3825,-4.4501,-4.4501,-4.4501,-4.4501,-4.4501,-4.4501,-4.4501,-4.4496,-4.4701,-4.4861,-4.5,-4.5343,-4.556,-4.565,-4.5752,-4.5807,-4.5807,-4.5867,-4.5893,-4.5911,-4.5966,-4.5994,-4.6002,-4.6002,-4.6002,-4.5808,-4.4525,-4.4098,-4.3894,-4.2641,-4.1376,-4.0028,0.0,0.0,0.0,0.0,0.0,0.0,0.0,0.0,0.0,0.0,0.0,0.0,0.0,0.0,-4.0854,0.0,0.0,-4.5421,-4.669,-4.7627,-4.8349,-4.874,-4.9189,-4.915,-4.8291,-4.8564,-4.8974,-4.9403,-4.9442,-4.9638,-5.0067,-5.0106,-5.0106,-5.0106,-5.0516,-5.0748,-5.0748,-5.118,-5.1394,-5.1394,-5.14,-5.1402,-5.1402,-5.1407,-5.1408,-5.1408,-5.1408,-5.1408,-5.1407,-5.1323,-5.1255,-5.1186,-5.1084,-5.0946,-5.0709,-4.9767,-4.9432,-4.9449,-4.9402,-4.9393,-4.9403,0.0,0.0,0.0,0.0,0.0,0.0,0.0,0.0,0.0,0.0,0.0,0.0,0.0,0.0,0.0,0.0,0.0,0.0,0.0,0.0,0.0,0.0,0.0,-4.451,-4.4546,-4.4546,-4.4573,-4.464,-4.464,-4.464,-4.464,-4.4843,-4.5044,-4.5273,-4.5463,-4.5642,-4.5807,-4.5807,-4.5807,-4.5821,-4.5886,-4.5911,-4.5923,-4.5972,-4.6,-4.6002,-4.6002,-4.6002,-4.6002,-4.6002,-4.6002,-4.6017,-4.6056,-4.4666,-4.2627,-4.0616,-3.9453,0.0,0.0,0.0,0.0,0.0,0.0,0.0,0.0,0.0,-3.8217,-4.0795,-4.2006,-4.3235,-4.5343,-4.6319,-4.7276,-4.8818,-4.9052,-4.9111,-4.9286,-4.9911,-5.0085,-4.9384,-4.9306,-4.9579,-5.028,-5.0358,-5.0631,-5.1355,-5.1394,-5.1394,-5.1394,-5.1394,-5.1394,-5.1394,-5.1394,-5.1394,-5.1394,-5.1394,-5.1394,-5.1394,-5.1394,-5.1394,-5.1394,-5.1394,-5.139,-5.1357,-5.1219,-5.1147,-5.1138,-5.0942,-5.0793,-5.0712,-5.0712,-5.0721,-5.0766,-5.072,-5.0702,-5.0702,0.0,0.0,0.0,0.0,0.0,0.0,0.0,0.0,0.0,0.0,0.0,0.0,0.0,0.0,0.0,0.0,0.0,0.0,0.0,0.0,0.0,0.0,0.0,0.0,0.0,-4.477,-4.4879,-4.5126,-4.5126,-4.5126,-4.5126,-4.5333,-4.5436,-4.5491,-4.5685,-4.5786,-4.5807,-4.5807,-4.5821,-4.5893,-4.5893,-4.5949,-4.5991,-4.6005,-4.5997,-4.6002,-4.6002,-4.6002,-4.6002,-4.6002,-4.6002,-4.6002,-4.6012,-4.5808,-4.4952,-4.1798,0.0,-3.8833,-3.5461,-3.5408,-3.6792,-3.8863,-3.8843,-3.9509,0.0,0.0,-4.3587,-4.6181,-4.7373,-4.8037,-4.831,-4.8447,-4.8837,-4.9792,-4.9948,-5.0221,-5.1004,-5.1199,-5.1219,-5.1121,-5.1102,-5.1141,-5.1258,-5.1258,-5.1297,-5.1394,-5.1394,-5.1394,-5.1394,-5.1394,-5.1394,-5.1394,-5.1394,-5.1394,-5.1394,-5.1394,-5.1394,-5.1394,-5.1394,-5.1394,-5.1394,-5.1394,-5.133,-5.1207,-5.1024,-5.0928,-5.0913,-5.0775,-5.0712,-5.0712,-5.0712,-5.0693,-5.0702,-5.0702,-5.0693,-5.0693,0.0,0.0,0.0,0.0,0.0,0.0,0.0,0.0,0.0,0.0,0.0,0.0,0.0,0.0,0.0,0.0,0.0,0.0,0.0,0.0,0.0,0.0,0.0,0.0,0.0,0.0,-4.4919,-4.5201,-4.5201,-4.5201,-4.5211,-4.5399,-4.549,-4.5498,-4.5715,-4.5807,-4.5807,-4.5807,-4.5847,-4.59,-4.5899,-4.5949,-4.5997,-4.6011,-4.6018,-4.5931,-4.4906,-4.4552,0.0,0.0,-4.4608,-4.477,-4.5806,-4.5423,-4.4144,-4.1756,-4.0801,0.0,-4.0042,-3.9468,0.0,0.0,-4.2201,-4.2884,-4.5051,-4.5363,-4.5792,-4.7861,-4.8974,-4.9558,-4.9558,-4.9969,-5.0438,0.0,-5.0867,-5.0984,-5.1355,-5.1394,-5.1394,-5.1394,-5.1394,-5.1394,-5.1394,-5.1394,-5.1394,-5.1394,-5.1394,-5.1394,-5.1394,-5.1394,-5.1394,-5.1394,-5.1394,-5.1394,-5.1394,-5.1394,-5.1394,-5.1394,-5.1394,-5.1394,-5.1394,-5.1394,-5.1288,-5.1088,-5.0951,-5.0858,-5.0785,-5.0721,-5.0712,-5.0712,-5.0712,-5.0712,-5.0712,-5.0712,-5.0712,-5.0712,0.0,0.0,0.0,0.0,0.0,0.0,0.0,0.0,0.0,0.0,0.0,0.0,0.0,0.0,0.0,0.0,0.0,0.0,0.0,0.0,0.0,0.0,0.0,0.0,0.0,0.0,0.0,-4.5274,-4.5333,-4.5362,-4.5362,-4.5507,-4.5585,-4.5594,-4.5737,-4.5807,-4.5807,-4.5807,-4.5834,-4.5893,-4.5899,-4.5935,-4.5994,-4.6027,-4.5752,-4.5218,-4.3961,-4.3504,0.0,0.0,-4.2875,-4.3095,-4.4368,-4.3903,-4.2557,-4.0874,-4.0062,-4.0073,-4.1812,0.0,0.0,-4.3567,-4.4894,-4.5771,-4.6007,-4.6729,-4.7686,-4.8915,-4.9852,-5.0455,-5.0455,-5.0965,-5.1394,-5.1394,-5.1394,-5.1394,-5.1394,-5.1394,-5.1394,-5.1394,-5.1394,-5.1394,-5.1394,-5.1394,-5.1394,-5.1394,-5.1394,-5.1394,-5.1394,-5.1394,-5.1394,-5.1394,-5.1394,-5.1394,-5.1394,-5.1394,-5.1394,-5.1394,-5.1394,-5.1388,-5.1335,-5.1281,-5.1156,-5.0966,-5.0875,-5.0784,-5.0712,-5.0712,-5.0712,-5.0712,-5.0712,-5.0712,-5.0712,-5.0712,-5.0712,-5.0712,0.0,0.0,0.0,0.0,0.0,0.0,0.0,0.0,0.0,0.0,0.0,0.0,0.0,0.0,0.0,0.0,0.0,0.0,0.0,0.0,0.0,0.0,0.0,0.0,0.0,0.0,0.0,0.0,-4.5692,-4.5773,-4.5773,-4.5793,-4.58,-4.58,-4.58,-4.5807,-4.5807,-4.5807,-4.5848,-4.5905,-4.5911,-4.5947,-4.6012,-4.6068,-4.5059,-4.3568,-4.3529,0.0,0.0,0.0,-4.1074,-4.1094,-4.1135,-4.1115,0.0,-3.9078,-3.7438,0.0,0.0,0.0,-4.1714,-4.4309,-4.6259,-4.7723,-4.8505,-4.9364,-5.0007,-5.0046,-5.075,-5.1355,-5.1355,-5.1375,-5.1394,-5.1394,-5.1394,-5.1394,-5.1394,-5.1394,-5.1394,-5.1394,-5.1394,-5.1394,0.0,-5.1394,-5.1394,-5.1394,-5.1394,-5.1394,-5.1394,-5.1394,-5.1394,-5.1394,-5.1394,-5.1394,-5.1394,-5.1394,-5.1394,-5.1394,-5.1394,-5.133,-5.1199,-5.1005,-5.091,-5.0894,-5.0767,-5.0693,-5.0712,-5.0712,-5.0712,-5.0712,-5.0712,-5.0712,-5.0712,-5.0712,-5.0712,-5.0712,0.0,0.0,0.0,0.0,0.0,0.0,0.0,0.0,0.0,0.0,0.0,0.0,0.0,0.0,0.0,0.0,0.0,0.0,0.0,0.0,0.0,0.0,0.0,0.0,0.0,0.0,0.0,0.0,0.0,-4.5807,-4.5807,-4.5807,-4.5807,-4.5807,-4.5807,-4.5807,-4.5807,-4.5854,-4.5887,-4.5892,-4.5955,-4.6012,-4.5944,-4.4814,-4.4036,-4.3265,0.0,0.0,0.0,0.0,0.0,0.0,-3.9842,0.0,0.0,-3.7182,-3.7252,-3.8102,-3.9801,0.0,-4.4172,-4.622,-4.7996,-4.9323,-4.9597,-5.034,-5.0965,-5.0965,-4.9852,-4.9032,-4.9579,-4.9247,-4.9052,-4.9599,-5.0653,-5.1394,-5.1394,-5.1394,-5.1394,-5.1394,-5.1394,0.0,0.0,0.0,0.0,-5.1394,-5.1394,-5.1394,-5.1394,-5.1394,-5.1394,-5.1394,-5.1394,-5.1394,-5.1394,-5.1394,-5.1394,-5.1394,-5.1394,-5.1288,-5.1063,-5.1004,-5.0951,-5.0887,-5.0758,-5.0712,-5.0712,-5.0712,-5.0712,-5.0712,-5.0712,-5.0712,-5.0712,-5.0712,-5.0712,-5.0712,0.0,0.0,0.0,0.0,0.0,0.0,0.0,0.0,0.0,0.0,0.0,0.0,0.0,0.0,0.0,0.0,0.0,0.0,0.0,0.0,0.0,0.0,0.0,0.0,0.0,0.0,0.0,0.0,0.0,-4.4163,-4.4465,-4.5381,-4.5807,-4.5807,-4.5807,-4.5807,-4.5807,-4.5867,-4.5369,-4.4555,-4.4626,-4.4124,-4.3236,-4.2122,-4.1343,0.0,0.0,0.0,0.0,0.0,0.0,0.0,0.0,-3.7458,-3.6852,-3.6911,-3.7711,-3.9099,-4.1402,-4.3489,-4.5498,-4.753,-4.907,-5.0182,-5.0494,-5.1004,-5.1394,-5.1394,-4.9364,-4.7762,-4.8271,-4.7959,-4.7567,-4.7451,-4.915,-5.0477,-5.0477,-5.0477,-5.0692,-5.1336,-5.1394,-5.1394,0.0,0.0,0.0,-5.1394,-5.1394,-5.1394,-5.1394,-5.1394,-5.1394,-5.1394,-5.1394,-5.1394,-5.1394,-5.1394,-5.1386,-5.1327,-5.1288,-5.1141,-5.0953,-5.0898,-5.0863,-5.0816,-5.075,-5.0712,-5.0712,-5.0712,-5.0712,-5.0712,-5.0712,-5.0712,-5.0712,-5.0712,-5.0712,-5.0712,0.0,0.0,0.0,0.0,0.0,0.0,0.0,0.0,0.0,0.0,0.0,0.0,0.0,0.0,0.0,0.0,0.0,0.0,0.0,0.0,0.0,0.0,0.0,0.0,0.0,0.0,0.0,0.0,0.0,-4.0984,-4.1796,-4.4253,-4.542,-4.542,-4.542,-4.542,-4.542,-4.5486,-4.4125,-4.1907,-4.1976,-4.0559,-3.8399,-3.8372,0.0,0.0,0.0,0.0,0.0,0.0,0.0,0.0,0.0,-3.5564,-3.6597,-3.8298,-3.8825,-3.9587,-4.2925,-4.4504,-4.5792,-4.8252,-4.952,-5.0377,-5.1219,-5.1394,-5.1355,-5.1238,-4.9189,-4.7372,0.0,0.0,-4.6864,-4.5264,-4.7217,-4.8935,-4.8935,-4.8935,-4.956,0.0,0.0,0.0,0.0,0.0,0.0,-5.1394,0.0,-5.1394,-5.1394,-5.1394,-5.1394,-5.1394,-5.1394,-5.1394,-5.1394,-5.1392,-5.1325,-5.1187,-5.1058,-5.0953,-5.0898,-5.0767,-5.0721,-5.0712,-5.0712,-5.0712,-5.0712,-5.0712,-5.0712,-5.0712,-5.0712,-5.0712,-5.0712,-5.0712,-5.0712,-5.0712,0.0,0.0,0.0,0.0,0.0,0.0,0.0,0.0,0.0,0.0,0.0,0.0,0.0,0.0,0.0,0.0,0.0,0.0,0.0,0.0,0.0,0.0,0.0,0.0,0.0,0.0,0.0,0.0,0.0,-3.8005,-3.8237,-3.9533,-4.0133,0.0,-4.0133,-4.0133,-4.0139,-4.0203,-3.9857,-3.9264,0.0,-3.9006,-3.8334,0.0,0.0,0.0,0.0,0.0,0.0,0.0,0.0,0.0,0.0,-3.9097,-4.0015,-4.1108,-4.1888,-4.2866,-4.5051,-4.671,-4.8135,-4.944,-5.0418,-5.1121,-5.1355,-5.1394,-5.0867,-4.8954,-4.6495,-4.4309,0.0,0.0,0.0,-4.4971,-4.8232,0.0,-5.0731,-5.0731,0.0,-5.1355,0.0,-5.1394,-5.1394,-5.1394,0.0,0.0,-5.1394,-5.1394,-5.1394,-5.1394,-5.1394,-5.1394,-5.1394,-5.1394,-5.1394,-5.1297,-5.1156,-5.0972,-5.0997,-5.0918,-5.0749,-5.0827,-5.0793,-5.0712,-5.0712,-5.0712,-5.0712,-5.0712,-5.0712,-5.0712,-5.0712,-5.0712,-5.0712,-5.0712,-5.0712,-5.0789,0.0,0.0,0.0,0.0,0.0,0.0,0.0,0.0,0.0,0.0,0.0,0.0,0.0,0.0,0.0,0.0,0.0,0.0,0.0,0.0,0.0,0.0,0.0,0.0,0.0,0.0,0.0,0.0,0.0,0.0,0.0,-3.6704,-3.7632,-3.7651,-3.8019,-3.8193,-3.8205,0.0,0.0,0.0,0.0,0.0,0.0,0.0,0.0,0.0,0.0,0.0,0.0,0.0,0.0,-3.7925,-3.9351,-4.0659,-4.183,-4.2708,0.0,-4.4641,-4.6397,-4.7803,-4.9013,-4.987,-5.077,-5.1102,-4.9989,-4.9735,-4.8896,-4.5927,-4.3548,0.0,0.0,0.0,0.0,0.0,0.0,0.0,-5.0262,-5.0262,-5.0535,0.0,-5.1394,0.0,-5.1394,-5.1394,-5.1394,0.0,-5.1394,-5.1394,-5.1394,-5.1394,-5.1394,-5.1394,-5.1335,-5.1288,-5.1238,-5.115,-5.1033,-5.0894,-5.0944,-5.0875,-5.0693,-5.0785,-5.0776,-5.0712,0.0,-5.0712,-5.0712,-5.0712,-5.0712,-5.0712,-5.0712,-5.0712,-5.0712,-5.0712,-5.0914,-5.1298,0.0,0.0,0.0,0.0,0.0,0.0,0.0,0.0,0.0,0.0,0.0,0.0,0.0,0.0,0.0,0.0,0.0,0.0,0.0,0.0,0.0,0.0,0.0,0.0,0.0,0.0,0.0,0.0,0.0,0.0,0.0,0.0,0.0,0.0,0.0,0.0,0.0,0.0,0.0,0.0,0.0,0.0,0.0,0.0,0.0,0.0,0.0,0.0,0.0,0.0,-3.9294,-4.021,-4.0542,-4.1771,-4.3255,-4.4114,-4.4836,-4.5751,-4.7606,-4.8447,-4.9032,-5.0026,-5.0848,-5.0731,-4.8172,-4.7606,-4.6552,-4.2825,0.0,-3.9351,-3.8435,-4.0875,-4.2671,-4.1617,0.0,-4.8759,-4.9091,-4.915,-4.9716,-5.1219,-5.1394,-5.1394,-5.1394,-5.1394,-5.1394,-5.1394,-5.1388,-5.1367,-5.1367,-5.136,-5.1355,-5.1355,-5.1222,-5.1118,-5.0978,-5.0997,-5.0952,-5.0882,-5.0882,-5.0819,-5.0712,-5.0712,-5.0712,-5.0712,-5.0712,-5.0712,-5.0712,-5.0712,-5.0712,-5.0712,-5.0712,-5.0712,-5.0712,-5.0712,-5.1202,-5.1923,0.0,0.0,0.0,0.0,0.0,0.0,0.0,0.0,0.0,0.0,-2.47,-2.47,0.0,0.0,0.0,0.0,0.0,0.0,0.0,0.0,0.0,0.0,0.0,0.0,0.0,0.0,0.0,0.0,0.0,0.0,0.0,0.0,0.0,0.0,0.0,0.0,0.0,0.0,0.0,0.0,0.0,0.0,0.0,0.0,0.0,0.0,0.0,0.0,0.0,0.0,-4.0093,-4.2337,-4.4484,-4.587,-4.6864,-4.7686,-4.7549,-4.7664,-5.0087,-4.9794,-4.9189,-5.0789,-5.1297,-5.0731,-4.8172,-4.7606,0.0,0.0,-3.9488,-3.8337,-3.6735,-3.8102,-4.0309,-4.2846,0.0,0.0,0.0,0.0,-5.1063,0.0,0.0,0.0,0.0,0.0,0.0,0.0,0.0,-5.1222,-5.1222,-5.1132,-5.1069,-5.1069,-5.1047,-5.0997,-5.0913,-5.0913,-5.0847,-5.0721,-5.0721,-5.0721,-5.0712,-5.0712,-5.0712,-5.0712,-5.0712,0.0,-5.0712,-5.0712,-5.0712,-5.0712,-5.0712,-5.0712,-5.0712,-5.0712,-5.1202,-5.2,0.0,0.0,0.0,0.0,0.0,0.0,0.0,-2.3806,-2.4069,-2.4069,-2.4069,-2.4238,-2.4643,-2.4757,0.0,0.0,0.0,0.0,0.0,0.0,0.0,0.0,0.0,0.0,0.0,0.0,0.0,0.0,0.0,0.0,0.0,0.0,0.0,0.0,0.0,0.0,0.0,0.0,0.0,0.0,0.0,0.0,0.0,0.0,0.0,0.0,0.0,0.0,0.0,0.0,-3.9546,-4.2864,-4.548,-4.7198,-4.8213,-4.8193,-4.8193,-4.8584,-5.0262,-4.9774,-4.9228,-5.0965,-5.1394,-5.0379,-4.6456,0.0,0.0,0.0,-3.6833,-3.6327,-3.5486,0.0,0.0,0.0,0.0,0.0,0.0,0.0,0.0,0.0,0.0,0.0,0.0,0.0,0.0,0.0,0.0,-5.1132,-5.1199,-5.1069,-5.0972,-5.0945,-5.0939,-5.0905,-5.0793,-5.0793,-5.0767,-5.0712,-5.0712,-5.0712,-5.0712,-5.0712,-5.0712,-5.0712,-5.0712,0.0,-5.0712,-5.0712,-5.0712,-5.0712,-5.0712,-5.0712,-5.075,-5.1164,-5.1856,-5.2692,0.0,0.0,0.0,0.0,0.0,0.0,0.0,-2.2837,-2.3231,-2.3231,-2.3253,-2.3512,-2.4144,-2.4377,-2.4613,0.0,0.0,0.0,0.0,0.0,0.0,0.0,0.0,0.0,0.0,0.0,0.0,0.0,0.0,0.0,0.0,0.0,0.0,0.0,0.0,0.0,0.0,0.0,0.0,0.0,0.0,0.0,0.0,0.0,0.0,0.0,0.0,0.0,0.0,0.0,-3.7964,-4.1205,-4.3821,-4.6183,-4.79,-4.7451,-4.7647,-4.8349,-4.9948,-4.9618,-4.9228,-5.0965,-5.1394,-5.0048,-4.4875,-4.3705,0.0,0.0,-3.4662,-3.4502,-3.489,0.0,0.0,0.0,0.0,0.0,0.0,0.0,0.0,0.0,0.0,0.0,0.0,0.0,0.0,0.0,0.0,0.0,-5.1088,-5.0997,-5.0911,-5.0866,-5.0858,-5.081,-5.0693,-5.0712,-5.0712,-5.0712,-5.0712,-5.0712,-5.0712,-5.0712,-5.0712,-5.0712,-5.0712,0.0,0.0,-5.0712,-5.0712,-5.0712,-5.0712,-5.0808,-5.1029,-5.1673,-5.2558,-5.3587,0.0,0.0,0.0,0.0,0.0,0.0,0.0,-2.2361,-2.2417,-2.2417,-2.2462,-2.2527,-2.2603,-2.3316,-2.4145,0.0,0.0,0.0,0.0,0.0,0.0,0.0,0.0,0.0,0.0,0.0,0.0,0.0,0.0,0.0,0.0,0.0,0.0,0.0,0.0,0.0,0.0,0.0,0.0,0.0,0.0,0.0,0.0,0.0,0.0,0.0,0.0,0.0,0.0,0.0,0.0,-3.5857,-3.8474,-4.2084,-4.55,-4.6202,0.0,0.0,-5.0204,-5.0067,-4.9228,-5.0965,-5.1394,-5.0048,-4.4875,0.0,0.0,-3.6968,-3.4566,-3.3916,-3.5507,-3.4646,-3.4994,0.0,0.0,0.0,0.0,0.0,0.0,0.0,0.0,0.0,0.0,0.0,0.0,0.0,0.0,0.0,-5.0739,-5.073,-5.0721,-5.0721,-5.0721,-5.0712,-5.0712,-5.0712,-5.0712,-5.0712,-5.0712,-5.0712,-5.0712,-5.0712,-5.0712,-5.0712,-5.0712,0.0,0.0,-5.0712,-5.0712,-5.0712,-5.0712,-5.1144,-5.1788,-5.1865,-5.2953,-5.4395,0.0,0.0,0.0,0.0,0.0,0.0,-2.0796,-2.1262,-2.1633,-2.1633,-2.1698,-2.1937,-2.2458,-2.2355,-2.2626,0.0,0.0,0.0,0.0,0.0,0.0,0.0,0.0,0.0,0.0,0.0,0.0,0.0,0.0,0.0,0.0,0.0,0.0,0.0,0.0,0.0,0.0,0.0,0.0,0.0,0.0,0.0,0.0,0.0,0.0,0.0,0.0,0.0,0.0,0.0,0.0,0.0,-3.531,-3.736,0.0,0.0,-4.4894,-4.5265,-5.0087,-5.0126,-4.9228,-5.0965,-5.0243,-4.8148,-4.4478,0.0,-4.0248,-3.6579,-3.4448,-3.3615,-3.4824,-3.4038,-3.3938,0.0,0.0,0.0,0.0,0.0,0.0,0.0,0.0,0.0,0.0,0.0,0.0,0.0,0.0,0.0,-5.0693,-5.0712,-5.0712,-5.0712,-5.0712,-5.0712,-5.0712,-5.0712,-5.0712,-5.0712,-5.0712,-5.0712,-5.0712,-5.0712,-5.0712,-5.0712,-5.0712,0.0,0.0,-5.0712,-5.0712,-5.075,-5.1221,-5.1625,-5.2019,-5.3087,-5.3895,-5.4568,0.0,0.0,0.0,0.0,0.0,-1.9837,-1.9837,-2.042,-2.0872,-2.0872,-2.0928,-2.1211,-2.1813,-2.1388,-2.1308,-2.1963,0.0,0.0,0.0,0.0,0.0,0.0,0.0,0.0,0.0,0.0,0.0,0.0,0.0,0.0,0.0,0.0,0.0,0.0,0.0,0.0,0.0,0.0,0.0,0.0,0.0,0.0,0.0,0.0,0.0,0.0,0.0,0.0,0.0,0.0,0.0,0.0,0.0,0.0,0.0,0.0,-4.265,-4.3626,-4.8545,-4.9364,-4.9228,-5.0965,-4.9481,-4.6895,0.0,0.0,-3.8864,-3.5959,-3.4361,-3.3703,-3.4333,-3.3914,-3.3775,0.0,0.0,-3.8661,0.0,0.0,0.0,0.0,0.0,0.0,0.0,0.0,0.0,0.0,0.0,0.0,-5.0712,-5.0712,-5.0712,-5.0712,-5.0712,-5.0712,-5.0712,-5.0712,-5.0712,-5.0712,-5.0712,-5.0712,-5.0712,-5.0712,-5.0712,-5.0712,-5.0712,0.0,0.0,-5.0712,-5.0846,-5.1106,-5.1673,-5.2212,-5.2818,-5.4049,-5.4645,-5.4934,0.0,0.0,0.0,0.0,0.0,0.0,-1.9907,-2.002,-2.0108,-2.0108,-2.0174,-2.0208,-2.0227,-2.0336,-2.0418,-2.0418,0.0,0.0,0.0,0.0,0.0,0.0,0.0,0.0,0.0,0.0,-2.5507,-2.5507,-2.5509,-2.5501,0.0,0.0,0.0,0.0,0.0,0.0,0.0,0.0,0.0,0.0,0.0,0.0,0.0,0.0,0.0,0.0,0.0,0.0,0.0,0.0,0.0,0.0,0.0,0.0,0.0,0.0,-3.8551,-4.0795,-4.5168,-4.7549,-4.9228,-5.0965,-4.9481,-4.6895,0.0,0.0,-3.8708,-3.5228,-3.4395,-3.4297,-3.4297,-3.4241,-3.4475,-3.5353,-3.5584,0.0,0.0,0.0,0.0,0.0,0.0,0.0,0.0,0.0,0.0,0.0,0.0,0.0,-5.0712,-5.0712,-5.0712,-5.0712,-5.0712,-5.0712,-5.0712,-5.0712,-5.0712,-5.0712,-5.0712,-5.0712,-5.0712,-5.0712,-5.0712,-5.0712,0.0,0.0,0.0,-5.0712,-5.1164,-5.1885,-5.1904,-5.2953,-5.4472,-5.4491,-5.4991,-5.5684,0.0,0.0,0.0,0.0,0.0,0.0,0.0,-2.0111,-2.0167,-2.0167,-2.0261,-2.0346,-2.0346,-2.0366,-2.0402,-2.0402,0.0,0.0,0.0,0.0,0.0,0.0,0.0,0.0,0.0,0.0,-2.5511,-2.5573,-2.5571,-2.5578,-2.558,-2.5593,0.0,0.0,0.0,0.0,0.0,0.0,0.0,0.0,0.0,0.0,0.0,0.0,0.0,0.0,0.0,0.0,0.0,0.0,0.0,0.0,0.0,0.0,0.0,0.0,0.0,0.0,-4.2298,-4.3587,-4.3935,-4.5643,-4.4114,-4.1947,-4.1012,-3.8787,-3.6566,-3.5413,-3.4679,-3.423,-3.423,-3.4212,-3.4302,-3.4564,-3.5136,0.0,0.0,0.0,0.0,0.0,0.0,0.0,0.0,0.0,0.0,0.0,0.0,0.0,-5.0712,-5.0712,-5.0712,-5.0712,-5.0712,-5.0712,-5.0712,-5.0712,-5.0712,-5.0712,-5.0712,-5.0712,-5.0712,-5.0712,-5.0712,0.0,0.0,0.0,0.0,-5.1298,-5.1673,-5.2019,-5.3222,-5.401,-5.4568,-5.5126,-5.5472,-5.5703,0.0,0.0,0.0,0.0,0.0,0.0,0.0,-2.0223,-2.0276,-2.0276,-2.0353,-2.0402,-2.0402,-2.0402,-2.0402,-2.0402,0.0,0.0,0.0,0.0,0.0,0.0,0.0,0.0,0.0,-2.5371,-2.5552,-2.5601,-2.5636,-2.5642,-2.5642,-2.5634,-2.5667,-2.5697,-2.5697,0.0,0.0,0.0,0.0,0.0,0.0,0.0,-2.6645,0.0,0.0,0.0,0.0,0.0,0.0,0.0,0.0,0.0,0.0,0.0,0.0,0.0,-3.2187,0.0,0.0,-4.0767,-4.1473,-4.3161,-4.1614,0.0,0.0,-3.7473,-3.5496,-3.5091,-3.4834,-3.4584,-3.4263,-3.4468,-3.4795,-3.5084,-3.5603,0.0,0.0,0.0,0.0,0.0,0.0,0.0,0.0,0.0,0.0,0.0,0.0,0.0,-5.0712,-5.0712,-5.0712,-5.0712,-5.0712,-5.0712,-5.0712,-5.0712,-5.0712,-5.0712,-5.0712,-5.0712,-5.0712,-5.0712,-5.0712,0.0,0.0,0.0,0.0,-5.1692,-5.2288,-5.2991,-5.4087,-5.4684,-5.5011,-5.5511,-5.5703,-5.5673,0.0,0.0,0.0,0.0,0.0,0.0,0.0,0.0,-2.0402,-2.0402,-2.0402,-2.0402,-2.0402,-2.0402,-2.0402,-2.0402,0.0,0.0,0.0,0.0,0.0,0.0,0.0,0.0,0.0,-2.5198,-2.5607,-2.5609,-2.5679,-2.5709,-2.571,-2.5702,-2.5703,-2.5703,-2.5703,-2.5703,-2.5703,-2.5702,-2.5696,-2.5707,-2.5707,-2.5707,0.0,0.0,0.0,0.0,0.0,0.0,0.0,0.0,0.0,0.0,0.0,0.0,0.0,0.0,0.0,0.0,0.0,0.0,0.0,0.0,0.0,0.0,0.0,-3.7345,0.0,-3.4462,-3.4949,-3.525,-3.443,-3.4949,-3.5731,-3.6481,-3.6654,0.0,0.0,0.0,0.0,0.0,0.0,0.0,0.0,0.0,0.0,0.0,0.0,0.0,-5.0712,-5.0712,-5.0712,-5.0712,-5.0712,-5.0712,-5.0712,-5.0712,-5.0712,-5.0712,-5.0712,-5.0712,-5.0712,-5.0712,-5.0731,0.0,0.0,0.0,0.0,-5.2058,-5.3038,-5.4511,-5.4568,-5.5019,-5.5692,-5.5692,-5.5692,-5.5629,0.0,0.0,0.0,0.0,0.0,0.0,0.0,0.0,0.0,0.0,-2.0402,-2.0402,-2.0402,-2.0402,-2.0402,0.0,0.0,0.0,0.0,0.0,0.0,0.0,0.0,0.0,0.0,-2.5579,-2.5687,-2.568,-2.5682,-2.5702,-2.5702,-2.5703,-2.5703,-2.5703,-2.5703,-2.5703,-2.5701,-2.57,-2.5696,-2.5707,-2.5707,-2.5707,0.0,0.0,0.0,0.0,-3.0131,-3.0724,0.0,0.0,0.0,0.0,0.0,0.0,0.0,0.0,-3.1343,-3.2345,-3.377,0.0,-3.6333,-3.7249,-3.7017,-3.6519,0.0,-3.5965,-3.5463,-3.5238,0.0,-3.5442,-3.5231,-3.5365,-3.5558,-3.575,0.0,0.0,0.0,0.0,0.0,0.0,0.0,0.0,0.0,0.0,0.0,0.0,0.0,-5.0712,-5.0712,-5.0712,-5.0712,-5.0712,-5.0712,-5.0712,-5.0712,-5.0712,-5.0712,-5.0712,-5.0712,-5.0712,-5.0712,-5.0712,-5.1029,0.0,0.0,0.0,-5.2953,-5.3606,-5.4094,-5.4485,-5.51,-5.5431,-5.5551,-5.5551,-5.5551,-5.5504,0.0,0.0,0.0,0.0,0.0,0.0,0.0,0.0,0.0,0.0,0.0,0.0,0.0,0.0,0.0,0.0,0.0,0.0,0.0,0.0,0.0,0.0,0.0,0.0,-2.5104,-2.5501,-2.5701,-2.5703,-2.5703,-2.5703,-2.5703,-2.6113,-2.6074,-2.5703,-2.5703,-2.5703,-2.57,-2.57,-2.5696,-2.5707,-2.5707,0.0,0.0,0.0,0.0,0.0,-3.0192,-3.065,0.0,-3.0682,-3.0709,-3.0713,0.0,0.0,0.0,0.0,-3.154,-3.2629,-3.302,-3.3766,-3.4648,-3.5402,-3.5581,-3.554,-3.552,0.0,0.0,0.0,0.0,0.0,0.0,0.0,0.0,0.0,0.0,0.0,0.0,0.0,0.0,0.0,0.0,0.0,0.0,0.0,0.0,0.0,0.0,-5.0712,-5.0712,-5.0712,-5.0712,-5.0712,-5.0712,-5.0712,-5.0712,-5.0712,-5.0712,-5.0712,-5.0712,-5.0894,-5.1241,-5.1241,-5.1722,0.0,0.0,0.0,-5.3837,-5.4267,-5.4649,-5.5001,-5.5389,-5.5527,-5.5492,-5.5332,-5.5263,-5.5179,0.0,0.0,0.0,0.0,0.0,0.0,0.0,0.0,0.0,0.0,0.0,0.0,0.0,0.0,0.0,0.0,0.0,0.0,0.0,0.0,0.0,0.0,0.0,-2.4602,-2.4602,-2.5312,-2.5703,-2.5703,-2.582,-2.5898,-2.5918,-2.6797,-2.6797,-2.6094,-2.6094,-2.6093,-2.609,-2.6109,-2.6007,-2.5897,-2.6032,0.0,0.0,0.0,0.0,0.0,0.0,0.0,0.0,-3.0647,-3.0672,-3.0677,-3.0677,0.0,0.0,0.0,0.0,0.0,-3.3189,-3.4094,-3.5151,-3.5496,-3.5534,-3.55,-3.55,0.0,0.0,0.0,0.0,0.0,0.0,0.0,0.0,0.0,0.0,0.0,0.0,0.0,0.0,0.0,0.0,0.0,0.0,0.0,0.0,0.0,0.0,-5.0712,-5.0712,-5.0712,-5.0712,-5.0712,-5.0712,-5.077,-5.0875,-5.077,-5.0712,-5.0712,-5.0827,-5.1241,-5.1904,-5.2038,-5.2558,-5.3395,0.0,0.0,-5.4662,-5.4608,-5.4959,-5.5562,-5.5504,-5.5456,-5.5364,-5.5072,-5.4928,-5.4779,0.0,0.0,0.0,0.0,0.0,0.0,0.0,0.0,0.0,0.0,0.0,0.0,0.0,0.0,0.0,0.0,0.0,0.0,0.0,0.0,0.0,0.0,-2.5429,-2.5508,-2.5508,-2.5625,-2.5703,-2.5703,-2.6445,-2.6797,-2.6816,-2.7695,-2.8027,-2.7891,-2.7909,-2.7908,-2.7906,-2.7902,-2.7439,-2.6784,-2.7517,0.0,0.0,0.0,0.0,0.0,0.0,0.0,0.0,-3.0522,-3.0576,-3.0614,-3.0614,0.0,0.0,0.0,0.0,0.0,-3.3845,-3.6234,-3.8055,-3.6015,-3.552,-3.55,-3.55,0.0,0.0,0.0,0.0,0.0,0.0,0.0,0.0,0.0,0.0,0.0,0.0,0.0,0.0,0.0,0.0,0.0,0.0,0.0,0.0,0.0,0.0,-5.0712,-5.0712,-5.0712,-5.0712,-5.0712,-5.0712,-5.1029,-5.1712,-5.1029,-5.0712,-5.0712,-5.1395,-5.1769,-5.1923,-5.2654,-5.3491,-5.4299,0.0,-5.4685,-5.5434,-5.5347,-5.5365,-5.5432,-5.542,-5.5204,-5.4895,-5.4851,-5.4635,-5.4328,0.0,0.0,0.0,0.0,0.0,0.0,0.0,0.0,0.0,0.0,0.0,0.0,0.0,0.0,0.0,0.0,0.0,0.0,0.0,0.0,0.0,-2.5703,-2.5703,-2.5703,-2.5703,-2.5703,-2.5703,-2.5703,-2.6562,-2.6992,-2.7012,-2.7891,-2.8555,-2.8984,-2.8515,-2.8298,-2.8296,-2.8292,-2.8038,-2.7645,0.0,0.0,0.0,0.0,0.0,0.0,0.0,0.0,0.0,0.0,-3.0509,-3.0548,-3.0548,0.0,0.0,0.0,0.0,0.0,-3.3968,-3.568,-3.7296,-3.7507,-3.8584,-3.9604,-3.9604,0.0,0.0,0.0,0.0,0.0,0.0,0.0,0.0,0.0,0.0,0.0,0.0,0.0,0.0,0.0,0.0,0.0,0.0,0.0,0.0,0.0,0.0,0.0,-5.0712,-5.0712,-5.0712,-5.0712,-5.0653,-5.1028,-5.1844,-5.1439,-5.1507,-5.2049,-5.2392,-5.2805,-5.3266,-5.3669,-5.4274,-5.5028,0.0,-5.5247,-5.5539,-5.548,-5.5432,-5.5383,-5.5164,-5.4952,-5.4761,-5.4343,-5.3979,-5.3679,0.0,0.0,0.0,0.0,0.0,0.0,0.0,0.0,0.0,0.0,0.0,0.0,0.0,0.0,0.0,0.0,0.0,0.0,0.0,0.0,-2.5703,-2.5703,-2.5703,-2.5703,-2.5703,-2.5703,-2.5703,-2.5703,-2.6562,-2.7207,-2.7617,-2.8281,-2.9062,-2.9863,-2.9176,-2.8859,-2.8855,-2.8842,-2.8673,-2.8457,0.0,0.0,0.0,0.0,0.0,0.0,0.0,0.0,0.0,0.0,0.0,0.0,0.0,0.0,0.0,-3.1465,-3.2275,-3.3083,-3.3955,-3.5276,-3.6853,-3.8815,0.0,-4.1623,-4.2835,0.0,0.0,0.0,0.0,0.0,0.0,0.0,0.0,0.0,0.0,0.0,0.0,0.0,0.0,0.0,0.0,0.0,0.0,0.0,0.0,0.0,0.0,0.0,-5.0712,-5.0692,-5.0692,-5.0692,-5.0613,-5.0966,-5.1792,-5.1749,-5.2193,-5.3161,-5.33,-5.372,-5.4383,-5.4575,-5.4975,-5.5504,-5.5539,-5.5527,-5.5468,-5.5326,-5.5262,-5.5217,-5.4836,-5.4639,-5.4458,-5.3833,-5.3402,-5.3185,0.0,0.0,0.0,0.0,0.0,0.0,0.0,0.0,0.0,0.0,0.0,0.0,0.0,0.0,0.0,0.0,0.0,0.0,0.0,0.0,-2.5703,-2.5703,-2.5703,-2.5703,-2.5703,-2.5703,-2.5703,-2.5703,-2.6562,-2.7832,-2.9414,-2.9473,-2.9961,-3.0799,-3.0604,-3.0524,-3.0529,-3.0469,-2.9927,-2.9203,-3.0016,0.0,0.0,0.0,0.0,0.0,0.0,0.0,0.0,0.0,0.0,0.0,0.0,0.0,-3.0651,-3.1465,-3.2275,-3.3083,-3.3955,-3.6572,-3.9073,-3.9246,-3.7661,0.0,-4.2027,-4.1258,0.0,-4.2374,0.0,0.0,0.0,0.0,0.0,0.0,0.0,0.0,0.0,0.0,0.0,0.0,0.0,0.0,0.0,0.0,0.0,0.0,0.0,0.0,-5.0712,-5.0633,-5.0603,-5.0603,-5.0532,-5.0913,-5.1787,-5.1796,-5.2198,-5.3023,-5.3836,-5.4258,-5.4334,-5.5082,-5.5446,-5.5492,-5.5444,-5.542,-5.5383,-5.4995,-5.4836,-5.4806,-5.4463,-5.4105,-5.3739,-5.3359,-5.3227,-5.3185,0.0,0.0,0.0,0.0,0.0,0.0,0.0,0.0,0.0,0.0,0.0,0.0,0.0,0.0,0.0,0.0,0.0,0.0,0.0,0.0,-2.5703,-2.5703,-2.5703,-2.5703,-2.5703,-2.5703,-2.5703,-2.5703,-2.6562,-2.787,-2.954,-2.954,-2.9959,-3.0708,-3.0662,-3.0645,-3.0637,-3.0614,-3.0374,-3.0037,-3.0366,-3.0263,0.0,0.0,0.0,0.0,0.0,0.0,0.0,0.0,-3.0414,-3.0428,0.0,-3.0419,-3.0601,-3.1441,-3.2275,-3.3083,-3.3955,-3.6706,-3.9304,-3.9304,-3.8584,0.0,0.0,-4.472,-4.3855,-4.3239,-4.4355,0.0,0.0,0.0,0.0,0.0,0.0,0.0,0.0,0.0,0.0,0.0,0.0,0.0,0.0,0.0,0.0,0.0,0.0,0.0,-5.0633,-5.0563,-5.0532,-5.0532,-5.0478,-5.0867,-5.174,-5.1695,-5.2073,-5.2877,-5.3249,-5.3702,-5.4257,-5.4544,-5.4961,-5.5428,-5.5197,-5.5064,-5.4995,-5.4639,-5.4495,-5.4446,-5.4069,-5.37,-5.3359,-5.3248,-5.3185,-5.3185,0.0,0.0,0.0,0.0,0.0,0.0,0.0,0.0,0.0,0.0,0.0,0.0,0.0,0.0,0.0,0.0,0.0,0.0,0.0,-2.5703,-2.5703,-2.5703,-2.5703,-2.5703,-2.5703,-2.5703,-2.5703,-2.5703,-2.6542,-2.7704,-2.9101,-2.9351,-2.9873,-3.0622,-3.0587,-3.0567,-3.0575,-3.0552,-3.0515,-3.0467,-3.0467,-3.0439,0.0,0.0,0.0,0.0,0.0,0.0,0.0,0.0,-3.0404,0.0,0.0,0.0,0.0,0.0,-3.2449,-3.3853,-3.4449,-3.6699,-3.9084,-3.9892,0.0,0.0,-4.5713,-4.626,-4.5663,-4.5528,-4.6259,0.0,0.0,0.0,0.0,0.0,0.0,0.0,0.0,0.0,0.0,0.0,0.0,0.0,0.0,0.0,0.0,0.0,0.0,0.0,0.0,-5.0511,-5.0468,-5.0468,-5.0393,-5.0646,-5.1251,-5.1223,-5.1467,-5.2002,-5.205,-5.2666,-5.3757,-5.3652,-5.3894,-5.44,-5.4069,-5.4054,-5.4242,-5.3885,-5.3828,-5.3926,-5.3642,-5.34,-5.3185,-5.3185,-5.3041,-5.2821,0.0,0.0,0.0,0.0,0.0,0.0,0.0,0.0,0.0,0.0,0.0,0.0,0.0,0.0,0.0,0.0,0.0,0.0,-2.5703,-2.5703,-2.5703,-2.5703,-2.5703,-2.5703,-2.5703,-2.5703,-2.5703,-2.5703,-2.6513,-2.7345,-2.8227,-2.9012,-2.9855,-3.0697,-3.0568,-3.0505,-3.0492,-3.0436,-3.0404,-3.0404,-3.0404,-3.0404,-3.0404,0.0,0.0,0.0,0.0,0.0,0.0,0.0,-3.0404,0.0,0.0,0.0,0.0,0.0,-3.2808,-3.5481,-3.5481,-3.6731,-3.8642,0.0,0.0,0.0,-4.5658,-4.4897,-4.4566,-4.9654,0.0,0.0,0.0,0.0,0.0,0.0,0.0,0.0,0.0,0.0,0.0,0.0,0.0,0.0,0.0,0.0,0.0,0.0,0.0,0.0,0.0,-5.0468,-5.0401,-5.0401,-5.0325,-5.0302,-5.0302,-5.0302,-5.0302,-5.0302,-5.0302,-5.1181,-5.2773,-5.2444,-5.23,-5.2272,-5.1936,-5.2282,-5.3057,-5.2658,-5.2746,-5.3167,-5.3167,-5.3167,-5.3167,-5.3167,-5.2674,-5.1977,0.0,0.0,0.0,0.0,0.0,0.0,0.0,0.0,0.0,0.0,0.0,0.0,0.0,0.0,0.0,0.0,0.0,0.0,-2.5703,-2.5703,-2.5703,-2.5703,-2.5659,-2.5633,-2.5633,-2.5573,-2.5614,-2.5695,-2.6463,-2.7247,-2.8087,-2.8884,-2.9705,-3.0491,-3.0455,-3.0428,-3.0436,-3.0421,-3.0404,-3.0404,-3.0404,-3.0404,-3.0404,0.0,0.0,0.0,0.0,0.0,0.0,0.0,0.0,0.0,0.0,0.0,0.0,-3.0404,-3.1942,-3.368,-3.368,-3.7055,0.0,0.0,0.0,0.0,0.0,-4.6206,0.0,0.0,0.0,0.0,0.0,0.0,0.0,0.0,0.0,0.0,0.0,0.0,0.0,0.0,0.0,0.0,0.0,0.0,0.0,0.0,0.0,0.0,0.0,-5.039,-5.0325,-5.0325,-5.0314,-5.0302,-5.0302,-5.0302,-5.0169,-4.9955,-4.9955,-5.0525,-5.1608,-5.1508,-5.1636,-5.192,-5.1582,-5.1594,-5.1802,-5.1452,-5.14,-5.1518,-5.1518,-5.1518,-5.1518,-5.1518,-5.1371,-5.1151,0.0,0.0,0.0,0.0,0.0,0.0,0.0,0.0,0.0,0.0,0.0,0.0,0.0,0.0,0.0,0.0,0.0,0.0,0.0,0.0,-2.5816,-2.6167,-2.6103,-2.6235,-2.6584,-2.6531,-2.6523,-2.6606,-2.7054,-2.7695,-2.8522,-2.9318,-2.9939,-3.0402,-3.041,-3.0404,-3.0404,-3.0404,-3.0404,-3.0404,-3.0404,-3.0404,-3.0404,0.0,0.0,0.0,0.0,0.0,0.0,0.0,0.0,0.0,0.0,0.0,0.0,-3.2193,-3.3346,-3.4691,-3.5989,0.0,0.0,0.0,0.0,0.0,0.0,0.0,0.0,0.0,0.0,0.0,0.0,0.0,0.0,0.0,0.0,0.0,0.0,0.0,0.0,0.0,0.0,0.0,0.0,0.0,0.0,0.0,0.0,0.0,0.0,-5.0145,-5.0302,-5.0302,-5.0302,-5.0236,-5.0088,-5.0088,-4.9942,-4.9599,-4.9599,-4.981,-5.018,-5.018,-5.0335,-5.0609,-5.06,-5.0601,-5.062,-5.0737,-5.0802,-5.0802,-5.0802,-5.0802,-5.0802,-5.0802,-5.06,-5.0306,0.0,0.0,0.0,0.0,0.0,0.0,0.0,0.0,0.0,0.0,0.0,0.0,0.0,0.0,0.0,0.0,0.0,0.0,0.0,0.0,-2.5984,-2.6858,-2.6904,-2.7287,-2.8055,-2.8012,-2.8035,-2.8113,-2.8101,-2.8502,-2.9313,-3.0048,-3.0392,-3.0411,-3.0396,-3.0404,-3.0404,-3.0404,-3.0404,-3.0404,-3.0404,-3.0404,-3.0404,-3.0404,0.0,0.0,0.0,0.0,0.0,0.0,0.0,0.0,0.0,-3.2891,-3.3192,-3.4728,-3.5893,-3.7356,-4.0339,0.0,0.0,0.0,0.0,0.0,0.0,0.0,0.0,0.0,0.0,0.0,0.0,0.0,0.0,0.0,0.0,0.0,0.0,0.0,0.0,0.0,0.0,0.0,0.0,0.0,0.0,0.0,0.0,0.0,0.0,-4.9656,-5.0049,-4.9995,-5.0007,-4.9879,-4.9549,-4.9549,-4.9396,-4.9159,-4.9159,-4.9006,-4.8746,-4.8781,-4.8781,-4.8784,-4.9212,-4.9445,-4.9555,-5.027,-5.0582,-5.0582,-5.0582,-5.0582,-5.0582,-5.0582,-5.0105,-4.9482,0.0,0.0,0.0,0.0,0.0,0.0,0.0,0.0,0.0,0.0,0.0,0.0,0.0,0.0,0.0,0.0,0.0,0.0,0.0,0.0,-2.5916,-2.6783,-2.7408,-2.7806,-2.7933,-2.7933,-2.8255,-2.8931,-2.8931,-2.9042,-2.9238,-3.0029,-3.0396,-3.0396,-3.0404,-3.0404,-3.0404,-3.0404,-3.0404,-3.0404,-3.0404,-3.0404,-3.0404,-3.0404,-3.0404,0.0,0.0,0.0,0.0,0.0,0.0,0.0,-3.2852,-3.2891,-3.2968,-3.332,-3.4985,-3.6857,0.0,-3.9976,0.0,0.0,0.0,0.0,0.0,0.0,0.0,0.0,0.0,0.0,0.0,0.0,0.0,0.0,0.0,0.0,0.0,0.0,0.0,0.0,0.0,0.0,0.0,0.0,0.0,0.0,0.0,0.0,-4.7782,-4.8128,-4.8121,-4.765,-4.7889,-4.7857,-4.7518,-4.7518,-4.7676,0.0,-4.7965,-4.8116,-4.842,-4.8694,-4.8658,-4.8402,-4.851,-4.8581,-4.86,-4.8765,-4.8838,-4.8838,-4.8838,-4.8838,-4.8838,-4.8838,-4.8728,-4.8581,0.0,0.0,0.0,0.0,0.0,0.0,0.0,0.0,0.0,0.0,0.0,0.0,0.0,0.0,0.0,0.0,0.0,0.0,0.0,0.0,0.0,-2.7857,-2.8709,-2.9128,-2.9102,-2.9102,-2.9319,-2.9773,-2.9773,-2.9765,-2.9776,-3.021,-3.0404,-3.0404,-3.0404,-3.0404,-3.0404,-3.0404,-3.0404,-3.0404,-3.0404,-3.0654,-3.1019,-3.1019,-3.1019,-3.1077,-3.1462,0.0,0.0,0.0,0.0,0.0,0.0,0.0,-3.4308,-3.5076,-3.5669,-3.66,0.0,0.0,0.0,0.0,0.0,0.0,0.0,0.0,0.0,0.0,0.0,0.0,0.0,0.0,0.0,0.0,0.0,0.0,0.0,0.0,0.0,0.0,0.0,0.0,0.0,0.0,0.0,0.0,0.0,-4.6727,-4.6596,-4.7093,-4.7229,-4.6905,-4.7066,-4.701,-4.6666,-4.6666,-4.6701,-4.6794,-4.6794,-4.691,-4.7168,-4.8126,-4.8476,-4.8306,-4.8306,-4.8306,-4.8306,-4.8306,-4.8306,-4.8306,-4.8306,-4.8306,-4.8306,-4.8306,-4.8306,-4.8306,0.0,0.0,0.0,0.0,0.0,0.0,0.0,0.0,0.0,0.0,0.0,0.0,0.0,0.0,0.0,0.0,0.0,0.0,0.0,0.0,0.0,-2.9036,-2.9929,-3.0404,-3.0404,-3.0404,-3.0404,-3.0404,-3.0404,0.0,0.0,0.0,-3.0481,-3.0615,-3.0462,-3.0481,-3.0615,-3.0462,-3.0404,-3.0404,-3.0558,-3.1058,-3.1718,-3.1852,-3.191,-3.1987,-3.266,-3.2564,-3.2333,-3.3725,0.0,0.0,0.0,0.0,-3.5762,-3.7091,-3.6692,-3.6727,0.0,0.0,0.0,0.0,0.0,0.0,0.0,0.0,0.0,0.0,0.0,0.0,0.0,0.0,0.0,0.0,0.0,0.0,0.0,0.0,0.0,0.0,0.0,0.0,0.0,0.0,0.0,0.0,0.0,-4.5453,-4.5396,-4.6073,-4.6415,-4.6312,-4.6375,-4.624,-4.589,-4.5908,-4.5831,-4.5681,-4.5828,-4.5902,-4.5957,-4.7278,-4.7884,-4.7884,-4.7884,-4.7884,-4.7884,-4.7884,-4.7884,-4.7884,-4.7884,-4.7884,-4.7884,-4.7884,-4.7884,-4.7884,0.0,0.0,0.0,0.0,0.0,0.0,0.0,0.0,0.0,0.0,0.0,0.0,0.0,0.0,0.0,0.0,0.0,0.0,-2.6498,0.0,0.0,-2.9088,-2.9929,-3.0404,-3.0404,-3.0404,-3.0404,-3.0404,0.0,0.0,0.0,0.0,0.0,-3.1487,0.0,-3.0827,-3.1487,-3.0712,-3.0404,-3.0462,-3.1212,-3.1602,-3.1775,-3.2468,-3.2737,-3.2756,-3.2852,-3.3314,-3.3898,-3.4129,-3.4699,0.0,0.0,0.0,-3.5538,-3.5762,-3.6656,-3.7702,0.0,0.0,0.0,0.0,0.0,0.0,0.0,0.0,0.0,0.0,0.0,0.0,0.0,0.0,0.0,0.0,0.0,0.0,0.0,0.0,0.0,0.0,0.0,0.0,0.0,0.0,0.0,0.0,-4.451,-4.4458,-4.4246,-4.4556,-4.449,-4.3979,-4.4241,-4.4241,-4.3877,-4.3877,-4.421,-4.4856,-4.5571,-4.5902,-4.5902,-4.6122,-4.6214,-4.6214,-4.6214,-4.6214,-4.6214,-4.6214,-4.6214,-4.6214,-4.6214,-4.6214,-4.6214,-4.6214,-4.6214,-4.6214,0.0,0.0,0.0,0.0,0.0,0.0,0.0,0.0,0.0,0.0,0.0,0.0,0.0,0.0,0.0,-2.5495,-2.5878,-2.6661,-2.7962,-2.8706,-2.9319,-2.9813,-3.0192,-3.0404,-3.0404,-3.0404,-3.0404,-3.0404,0.0,0.0,0.0,-3.0904,-3.1327,0.0,0.0,0.0,0.0,-3.1968,-3.1795,-3.1833,-3.2218,-3.3237,-3.4449,-3.3853,-3.4218,-3.4968,-3.4519,-3.4295,-3.4263,-3.4757,-3.5173,-3.55,-3.55,0.0,0.0,0.0,-3.6005,0.0,0.0,0.0,0.0,0.0,0.0,0.0,0.0,0.0,0.0,0.0,0.0,0.0,0.0,0.0,0.0,0.0,0.0,0.0,0.0,0.0,0.0,0.0,0.0,0.0,0.0,0.0,0.0,0.0,-4.3902,-4.3839,-4.3732,-4.3841,-4.3777,-4.3515,-4.3649,-4.3649,-4.3515,-4.3515,-4.368,-4.403,-4.4378,-4.4562,-4.4562,-4.4562,-4.5039,-4.5902,-4.5902,-4.5902,-4.5902,-4.5902,-4.5902,-4.5902,-4.5902,-4.5902,-4.5902,-4.5902,-4.5902,-4.5902,0.0,0.0,0.0,0.0,0.0,0.0,0.0,0.0,0.0,0.0,0.0,0.0,0.0,0.0,0.0,0.0,-2.6646,-2.7605,-2.9017,-2.9319,-2.9717,-3.0365,-3.0404,-3.0404,-3.0404,-3.0404,-3.0404,0.0,0.0,0.0,-3.075,-3.1602,-3.2122,0.0,-3.2737,-3.3026,0.0,0.0,0.0,0.0,-3.3603,-3.5007,-3.6635,-3.6026,-3.6584,-3.7526,-3.65,-3.5718,-3.5199,-3.5423,-3.55,-3.55,-3.55,-3.55,0.0,0.0,0.0,0.0,0.0,0.0,0.0,0.0,0.0,0.0,0.0,0.0,0.0,0.0,0.0,0.0,0.0,0.0,0.0,0.0,0.0,0.0,0.0,0.0,0.0,0.0,0.0,0.0,0.0,0.0,0.0,0.0,-4.3515,-4.3515,-4.3515,-4.3515,-4.3515,-4.3515,-4.3515,-4.3515,-4.3515,-4.3515,-4.3515,-4.3515,-4.3515,-4.3515,-4.3515,-4.3515,-4.414,-4.5278,-4.5278,-4.5278,-4.5278,-4.5278,-4.5278,-4.5278,-4.5278,-4.5278,-4.5278,-4.5278,-4.5278,-4.5278,0.0,0.0,0.0,0.0,0.0,0.0,0.0,0.0,0.0,0.0,0.0,0.0,-2.7974,-2.7916,-2.7866,-2.7862,-2.7841,-2.8209,-2.905,-2.9871,-3.0346,-3.0404,-3.0404,0.0,-3.0404,-3.0404,0.0,0.0,0.0,0.0,-3.166,-3.2468,-3.3276,-3.4032,-3.3256,-3.3353,-3.409,0.0,0.0,0.0,0.0,0.0,0.0,0.0,-4.0227,0.0,0.0,-3.7834,-3.7565,-3.6019,-3.55,-3.55,-3.55,-3.55,-3.55,0.0,0.0,0.0,0.0,0.0,0.0,0.0,0.0,0.0,0.0,0.0,0.0,0.0,0.0,0.0,0.0,0.0,0.0,0.0,0.0,0.0,0.0,0.0,0.0,0.0,0.0,0.0,0.0,0.0,0.0,0.0,-4.3515,-4.3515,-4.3515,-4.3515,-4.3515,-4.3515,-4.3515,-4.3515,-4.3515,-4.3515,-4.3515,-4.3515,-4.3515,-4.3515,-4.3515,-4.3515,-4.3551,-4.3608,-4.3608,-4.3608,-4.3608,-4.3608,-4.3608,-4.3608,-4.3608,-4.3608,-4.3608,-4.3608,-4.3608,-4.3573,0.0,0.0,0.0,0.0,0.0,0.0,0.0,0.0,0.0,0.0,0.0,0.0,0.0,-2.7947,-2.7947,-2.7947,-2.8398,-2.9025,-2.989,-3.0231,-3.0404,-3.0404,-3.0286,-3.026,-3.0404,-3.0267,0.0,0.0,0.0,-3.0846,-3.1718,-3.2526,-3.3372,-3.4205,-3.4468,-3.4731,-3.5007,-3.4692,0.0,0.0,0.0,0.0,0.0,0.0,0.0,0.0,0.0,0.0,-3.7904,-3.7259,-3.6344,-3.5493,-3.5453,-3.5446,-3.542,-3.5379,-3.5342,0.0,0.0,0.0,0.0,0.0,0.0,0.0,0.0,0.0,0.0,0.0,0.0,0.0,0.0,0.0,0.0,0.0,0.0,0.0,0.0,0.0,0.0,0.0,0.0,0.0,0.0,0.0,0.0,0.0,0.0,-4.3515,-4.3515,-4.3515,-4.3515,-4.3515,-4.3515,-4.3515,-4.3515,-4.3515,-4.3515,-4.3515,-4.3515,-4.3515,-4.3515,-4.3515,-4.3515,-4.3515,-4.3515,-4.3515,-4.3515,-4.3515,-4.3515,-4.3497,-4.3464,-4.3429,-4.3429,-4.334,-4.3105,-4.2847,0.0,0.0,0.0,0.0,0.0,0.0,0.0,0.0,0.0,0.0,0.0,0.0,0.0,0.0,-2.8736,-2.8736,-2.9236,-2.9775,-3.0365,-3.0404,-3.0404,-3.0404,-3.0267,-3.026,-3.0404,-3.026,0.0,0.0,0.0,0.0,0.0,-3.2526,-3.3372,-3.4244,-3.5122,-3.55,0.0,0.0,0.0,-3.5692,0.0,0.0,-3.9669,0.0,0.0,0.0,0.0,0.0,0.0,-3.8757,-3.8028,-3.7052,-3.6427,-3.5844,-3.5357,-3.53,-3.5231,0.0,-3.6523,0.0,0.0,0.0,0.0,0.0,0.0,0.0,0.0,0.0,0.0,0.0,0.0,0.0,0.0,0.0,0.0,0.0,0.0,0.0,0.0,0.0,0.0,0.0,0.0,0.0,0.0,0.0,0.0,0.0,-4.3515,-4.3515,-4.3515,-4.3515,-4.3515,-4.3515,-4.3515,-4.3515,-4.3515,-4.3515,-4.3515,-4.3515,-4.3515,-4.3515,-4.3497,-4.3463,-4.3463,-4.3463,-4.3463,-4.3463,-4.3445,-4.3375,-4.3358,-4.3233,-4.3105,-4.2995,-4.2675,-4.2246,0.0,0.0,0.0,0.0,0.0,0.0,0.0,0.0,0.0,0.0,0.0,0.0,0.0,0.0,0.0,-3.0404,-3.0404,-3.0404,-3.0404,-3.0404,-3.0404,-3.0404,-3.0398,-3.0398,-3.0404,-3.0398,0.0,0.0,0.0,0.0,0.0,0.0,-3.3353,-3.4244,-3.5115,-3.55,-3.55,0.0,-3.55,-3.5788,0.0,-3.9527,-3.845,0.0,0.0,0.0,-4.0595,-4.054,0.0,-4.0481,0.0,0.0,0.0,0.0,-3.53,-3.53,0.0,0.0,0.0,0.0,0.0,0.0,0.0,0.0,0.0,0.0,0.0,0.0,0.0,0.0,0.0,0.0,0.0,0.0,0.0,0.0,0.0,0.0,0.0,0.0,0.0,0.0,0.0,0.0,0.0,0.0,-4.3515,-4.3515,-4.3515,-4.3515,-4.3515,-4.3515,-4.3478,-4.346,-4.346,-4.3441,-4.3441,-4.3441,-4.346,-4.346,-4.3478,-4.3496,-4.3463,-4.3394,-4.3394,-4.3394,-4.3394,-4.3394,-4.3323,-4.3214,-4.3178,-4.2902,-4.2483,-4.2483,-4.2165,-4.1703,0.0,0.0,0.0,0.0,0.0,0.0,0.0,0.0,0.0,0.0,0.0,0.0,-3.0404,-3.0404,-3.0404,-3.0404,-3.0404,-3.0404,-3.0404,-3.0404,-3.0404,-3.0404,-3.0254,-3.0254,-3.0404,-3.0254,0.0,0.0,0.0,0.0,0.0,0.0,0.0,0.0,-3.5042,-3.5453,-3.55,-3.55,0.0,0.0,-3.9142,-4.0223,0.0,0.0,0.0,0.0,0.0,-4.1414,-4.0596,0.0,-3.9721,-3.6623,0.0,0.0,0.0,0.0,0.0,0.0,-3.4889,0.0,0.0,0.0,0.0,0.0,0.0,0.0,0.0,0.0,0.0,0.0,0.0,0.0,0.0,0.0,0.0,0.0,0.0,0.0,0.0,0.0,0.0,0.0,0.0,0.0,0.0,0.0,-4.3515,-4.3515,-4.3515,-4.3515,-4.3515,-4.3515,-4.2928,-4.2635,-4.2635,-4.2047,-4.1772,-4.1772,-4.2359,-4.2635,-4.2653,-4.3171,-4.3429,-4.3394,-4.3305,-4.3233,-4.3196,-4.3251,-4.3233,-4.316,-4.2769,-4.2537,-4.236,-4.1934,-4.1481,-4.1047,0.0,0.0,0.0,0.0,0.0,0.0,0.0,0.0,0.0,0.0,0.0,0.0,-3.0404,-3.0404,-3.0404,-3.0404,-3.0404,-3.0404,-3.0404,-3.0404,-3.0404,-3.0404,-3.0292,-3.0292,-3.0404,-3.0202,0.0,0.0,0.0,0.0,0.0,0.0,0.0,0.0,0.0,0.0,0.0,0.0,0.0,0.0,-3.9146,0.0,0.0,-4.2051,-4.3118,0.0,0.0,0.0,-4.1646,-4.3283,-4.0968,0.0,0.0,0.0,0.0,0.0,0.0,0.0,0.0,0.0,0.0,0.0,0.0,0.0,-3.8409,-4.0036,0.0,0.0,0.0,0.0,0.0,0.0,0.0,0.0,0.0,0.0,0.0,0.0,0.0,0.0,0.0,0.0,0.0,-4.3515,-4.3515,-4.3515,-4.3515,-4.3515,-4.3515,-4.3167,-4.3002,-4.3002,-4.2213,-4.1792,-4.1759,-4.1301,-4.1029,-4.0978,-4.1452,-4.1672,-4.1708,-4.248,-4.2793,-4.2794,-4.3051,-4.2994,-4.2728,-4.2768,-4.2788,-4.2731,-4.2218,-4.1888,-4.1674,-4.1343,-4.0902,-4.0507,0.0,0.0,0.0,0.0,0.0,0.0,0.0,0.0,0.0,0.0,0.0,0.0,-3.0404,-3.0404,-3.0404,-3.0404,-3.0404,-3.0404,-3.0404,-3.0404,-3.0404,-3.0404,-3.0404,-3.0404,-3.0404,-3.0209,0.0,0.0,0.0,0.0,0.0,0.0,0.0,0.0,0.0,0.0,0.0,0.0,0.0,-3.6024,-3.9011,-3.9399,0.0,0.0,-4.2085,-4.1128,-4.2556,-4.2958,-4.2996,-4.4324,-4.2889,0.0,0.0,0.0,0.0,0.0,-3.5012,0.0,0.0,0.0,0.0,0.0,0.0,0.0,-3.8539,-3.9448,-4.0396,0.0,0.0,0.0,0.0,0.0,0.0,0.0,0.0,0.0,0.0,0.0,0.0,0.0,0.0,0.0,-4.3497,-4.3497,-4.3497,-4.3497,-4.3406,-4.3331,-4.3239,-4.2561,-4.2159,-4.2159,-4.1354,-4.0899,-4.0851,-4.076,-4.0653,-4.0533,-4.0624,-4.0679,-4.0697,-4.1482,-4.1831,-4.1814,-4.2559,-4.2564,-4.2052,-4.2059,-4.2074,-4.2074,-4.1609,-4.1162,-4.0802,-4.0731,-4.0458,-4.0096,-2.8934,0.0,0.0,0.0,0.0,0.0,0.0,0.0,0.0,0.0,0.0,0.0,0.0,-3.0404,-3.0404,-3.0404,-3.0404,-3.0404,-3.0404,-3.0404,-3.0404,-3.0404,-3.0404,-3.0404,-3.0404,-3.0304,-3.0196,0.0,0.0,0.0,0.0,0.0,0.0,0.0,0.0,0.0,0.0,0.0,0.0,-3.7486,-3.8151,0.0,-4.0128,-4.2076,-4.3455,-4.4391,-4.4706,-4.395,-4.2632,-4.1628,-4.1743,-4.1839,0.0,0.0,0.0,-3.6012,0.0,0.0,0.0,0.0,0.0,0.0,0.0,0.0,-3.6892,-3.8061,-3.9258,0.0,0.0,0.0,0.0,0.0,0.0,0.0,0.0,0.0,0.0,0.0,0.0,0.0,0.0,0.0,-4.3411,-4.3463,-4.348,-4.3411,-4.2876,-4.2249,-4.159,-4.1376,-4.1251,-4.1251,-4.0363,-3.9891,-3.9874,-3.9217,-3.8889,-3.8873,-3.9513,-3.9823,-3.9859,-4.0611,-4.0959,-4.0942,-4.128,-4.1332,-4.1245,-4.1121,-4.1298,-4.1591,-4.1116,-4.0896,-4.0754,-4.0377,-4.0171,-4.0096,-2.9679,0.0,0.0,0.0,0.0,0.0,0.0,0.0,0.0,0.0,0.0,0.0,0.0,0.0,-3.0404,-3.0404,-3.0404,-3.0404,-3.0404,-3.0404,-3.0404,-3.0404,-3.0404,-3.0379,-3.0348,-3.0248,-3.0128,0.0,0.0,0.0,0.0,0.0,0.0,0.0,0.0,0.0,0.0,0.0,-3.5837,-3.6741,-3.8457,0.0,-4.178,-4.3426,-4.4582,-4.5307,-4.5307,-4.4762,-4.3921,-4.308,-4.224,0.0,0.0,-3.968,-3.8649,0.0,-3.6738,-3.6799,0.0,0.0,0.0,-3.4314,0.0,0.0,0.0,-3.7072,-3.7845,0.0,0.0,0.0,0.0,0.0,0.0,0.0,0.0,0.0,0.0,0.0,0.0,0.0,0.0,0.0,-4.245,-4.2432,-4.2177,-4.1557,-4.116,-4.0781,-4.0366,-4.0129,-3.9894,-3.9698,-3.9253,-3.8885,-3.8648,-3.8454,-3.832,-3.8305,-3.8723,-3.8888,-3.8925,-3.9462,-3.9698,-3.9734,-4.0032,-4.0008,-3.9831,-4.0129,-4.0233,-4.0267,-4.0401,-4.0434,-4.0427,-4.0196,-4.0096,-4.0096,-3.0404,0.0,0.0,0.0,0.0,0.0,0.0,0.0,0.0,0.0,0.0,0.0,0.0,0.0,0.0,0.0,-3.1385,-3.1231,-3.0904,-3.0885,-3.0885,-3.0885,-3.0552,-3.0501,-3.0784,-3.0353,-3.0075,-2.995,0.0,0.0,0.0,0.0,0.0,0.0,0.0,0.0,0.0,0.0,0.0,-3.6501,0.0,-4.0966,-4.203,-4.3693,-4.4532,-4.4857,-4.5192,-4.5307,-4.525,-4.4934,-4.3023,-4.0893,-4.1609,-4.0339,0.0,0.0,0.0,0.0,0.0,0.0,0.0,0.0,0.0,-3.4241,0.0,0.0,0.0,0.0,0.0,0.0,0.0,0.0,0.0,0.0,0.0,0.0,0.0,0.0,0.0,0.0,0.0,0.0,0.0,-4.0921,-4.0482,-3.9451,-3.9315,-3.9226,-3.9128,-3.881,-3.847,-3.8129,-3.8203,-3.8051,-3.7685,-3.807,-3.8241,-3.8209,-3.8106,-3.8054,-3.8072,-3.8275,-3.8357,-3.8372,-3.8775,-3.8711,-3.8427,-3.9227,-3.9341,-3.9056,-3.9808,-4.0096,-4.0096,-4.0096,-4.0096,-4.0096,-3.0404,-3.0404,0.0,0.0,0.0,0.0,0.0,0.0,0.0,0.0,0.0,0.0,0.0,0.0,0.0,0.0,0.0,0.0,-3.2718,0.0,-3.2622,-3.2622,-3.1136,-3.104,-3.257,-3.1013,-3.0174,-3.0168,0.0,0.0,0.0,0.0,0.0,0.0,-3.6291,0.0,0.0,0.0,-3.8156,0.0,-4.0155,-3.9522,0.0,-4.0224,-4.18,-4.3271,-4.4762,-4.5307,-4.5067,0.0,-4.2832,-4.203,0.0,-3.9889,-4.09,-3.6491,0.0,0.0,0.0,0.0,0.0,0.0,-3.3842,0.0,0.0,0.0,-3.5426,-3.6376,0.0,0.0,0.0,0.0,0.0,0.0,0.0,0.0,0.0,0.0,0.0,0.0,0.0,0.0,0.0,-3.9247,-3.9083,-3.8578,-3.8258,-3.7918,-3.7495,-3.7312,-3.7219,-3.7161,-3.7449,-3.7578,-3.7523,-3.7984,-3.8209,-3.8192,-3.7774,-3.7578,-3.7578,-3.7259,-3.7101,-3.7115,-3.7474,-3.7586,-3.7624,-3.8642,-3.9061,-3.9056,-3.9808,-4.0096,-4.0096,-4.0096,-4.0096,-4.0096,-3.0348,-3.0373,0.0,0.0,0.0,0.0,0.0,0.0,0.0,0.0,0.0,0.0,0.0,0.0,0.0,0.0,0.0,-3.368,0.0,0.0,0.0,-3.1481,-3.0757,-3.0687,-3.138,-3.0657,-3.0234,-3.0188,-3.0556,0.0,0.0,0.0,0.0,0.0,-3.6625,0.0,-3.7471,0.0,-3.87,0.0,0.0,0.0,0.0,-4.181,-4.3634,-4.4341,-4.5059,-4.5307,-4.5192,0.0,-4.3367,0.0,0.0,0.0,0.0,0.0,0.0,0.0,0.0,0.0,0.0,0.0,0.0,0.0,-3.4449,0.0,-3.4412,0.0,0.0,0.0,0.0,0.0,0.0,0.0,-3.5202,0.0,0.0,0.0,0.0,0.0,0.0,0.0,0.0,0.0,0.0,0.0,-3.6637,-3.6484,-3.6274,-3.6478,-3.6457,-3.6207,-3.6803,-3.7036,-3.6801,-3.7226,-3.7449,-3.7431,-3.7246,-3.7133,-3.7151,-3.6739,-3.6536,-3.6533,-3.6397,-3.6353,-3.645,-3.7807,-3.8362,-3.8481,-3.9656,-4.0096,-4.0096,-4.0096,-4.0096,-4.0096,-3.031,0.0,0.0,0.0,0.0,0.0,0.0,0.0,0.0,0.0,0.0,0.0,-3.1096,-3.1923,0.0,0.0,-3.4718,-3.4795,0.0,0.0,-3.3365,0.0,0.0,0.0,0.0,-3.0814,-3.0166,-3.0118,0.0,0.0,0.0,0.0,0.0,0.0,0.0,-3.7411,-3.8481,0.0,0.0,-3.8689,-4.0228,-4.0425,-4.0138,-4.3367,-4.4895,-4.5307,-4.5307,-4.5307,-4.5211,-4.4571,-4.3271,0.0,-4.2393,0.0,0.0,0.0,0.0,0.0,-3.4636,0.0,0.0,0.0,0.0,0.0,0.0,0.0,0.0,0.0,0.0,0.0,0.0,0.0,0.0,0.0,0.0,0.0,0.0,0.0,0.0,0.0,0.0,0.0,0.0,0.0,0.0,-3.5301,-3.5411,-3.5518,-3.5583,-3.5915,-3.5958,-3.5622,-3.635,-3.6597,-3.6301,-3.6698,-3.69,-3.69,-3.6781,-3.6739,-3.6719,-3.6305,-3.611,-3.6088,-3.5756,-3.56,-3.5718,-3.7256,-3.7905,-3.8058,-3.9512,-4.0096,-4.0096,-4.0096,-4.0096,-4.0096,-3.031,-3.0348,0.0,0.0,0.0,0.0,0.0,0.0,0.0,0.0,0.0,0.0,0.0,0.0,0.0,0.0,0.0,-3.9573,-3.793,0.0,-3.6467,0.0,0.0,-3.2215,0.0,-3.2143,-2.9905,-2.9905,0.0,0.0,0.0,0.0,0.0,0.0,0.0,-3.6746,-3.7066,-3.8721,-4.0308,-4.1779,-4.2118,-4.3357,-4.4906,0.0,-4.3883,-4.5307,-4.5307,0.0,0.0,-4.2756,-4.1953,0.0,0.0,0.0,0.0,0.0,0.0,0.0,0.0,0.0,0.0,-3.4211,0.0,0.0,0.0,0.0,-3.3807,0.0,0.0,0.0,0.0,0.0,0.0,0.0,0.0,0.0,0.0,0.0,0.0,0.0,0.0,0.0,0.0,0.0,0.0,-3.4515,-3.4957,-3.5324,-3.5588,-3.5622,-3.5622,-3.56,-3.6067,-3.6322,-3.6301,-3.6698,-3.69,-3.69,-3.6512,-3.6322,-3.6301,-3.5827,-3.5622,-3.5622,-3.56,-3.56,-3.5718,-3.7256,-3.7905,-3.8058,-3.9512,-4.0096,-4.0096,-4.0096,-4.0096,-4.0096,0.0,0.0,0.0,0.0,0.0,0.0,0.0,-3.0404,0.0,0.0,0.0,0.0,0.0,-3.5654,-3.6796,0.0,0.0,-3.9477,-3.8892,-3.7257,0.0,0.0,0.0,-3.1763,0.0,0.0,0.0,0.0,0.0,0.0,0.0,0.0,0.0,0.0,0.0,-3.7355,0.0,0.0,0.0,0.0,0.0,-4.3028,-4.3692,0.0,0.0,-4.5307,-4.5307,-4.5307,0.0,-4.4399,-4.415,-4.3883,-4.2354,-4.2136,-4.2147,-4.0844,-4.1401,0.0,0.0,0.0,-3.856,-3.4743,0.0,0.0,0.0,0.0,0.0,0.0,0.0,0.0,0.0,0.0,0.0,0.0,0.0,0.0,0.0,0.0,0.0,0.0,0.0,0.0,0.0,0.0,0.0,-3.4493,-3.5098,-3.5511,-3.5605,-3.56,-3.56,-3.56,-3.5739,-3.5827,-3.5827,-3.5963,-3.6032,-3.6032,-3.5915,-3.5827,-3.5827,-3.5667,-3.56,-3.56,-3.56,-3.56,-3.5718,-3.7256,-3.7905,-3.8058,-3.9512,-4.0096,-4.0096,-4.0096,-4.0096,-4.0096,-3.0311,0.0,0.0,0.0,0.0,0.0,0.0,0.0,0.0,0.0,-3.2891,0.0,-3.5308,0.0,-3.6815,0.0,-3.9335,-3.9796,-3.8892,-3.8339,0.0,-3.878,-3.5043,0.0,0.0,0.0,0.0,0.0,0.0,-3.2477,0.0,0.0,0.0,0.0,0.0,0.0,-3.9096,0.0,-4.1567,0.0,0.0,-4.3277,0.0,0.0,-4.4832,-4.4494,0.0,-4.5205,-4.5132,-4.5256,-4.5307,-4.5224,-4.4801,-4.4129,-4.3515,-4.3515,-4.3515,-4.3515,-4.3515,-4.2121,0.0,-3.6395,-3.6707,0.0,-3.478,0.0,0.0,0.0,0.0,0.0,0.0,0.0,0.0,0.0,0.0,0.0,0.0,-3.2214,0.0,0.0,0.0,0.0,0.0,0.0,-3.3952,-3.4455,-3.4945,-3.5312,0.0,0.0,-3.56,-3.56,-3.56,-3.56,-3.56,-3.56,-3.56,-3.56,-3.56,-3.56,-3.56,-3.56,-3.56,-3.56,-3.56,-3.56,-3.5718,-3.7256,-3.7905,-3.8058,-3.9512,-4.0096,-4.0096,-4.0096,-4.0096,-4.007,0.0,0.0,0.0,0.0,-3.0304,0.0,0.0,0.0,-3.1135,0.0,-3.3103,-3.3814,-3.5558,-3.718,-3.8142,-3.818,-4.045,-4.0854,-3.8469,-3.9719,0.0,0.0,-3.8823,-3.8971,-4.1428,0.0,0.0,0.0,0.0,0.0,0.0,0.0,0.0,0.0,-3.4409,0.0,-3.8952,-3.9197,-4.0936,-4.3493,-4.382,-4.4087,-4.4312,-4.4638,-4.3912,-4.2917,-4.4645,-4.5057,-4.4831,-4.514,-4.5246,-4.5053,-4.3871,-4.3515,-4.3515,-4.3515,-4.3441,-4.3368,-4.3294,-4.1679,-3.9772,-3.8854,-3.7551,0.0,0.0,0.0,-3.5017,0.0,0.0,0.0,0.0,0.0,0.0,0.0,0.0,0.0,0.0,0.0,0.0,0.0,0.0,0.0,0.0,-3.2405,-3.2936,-3.4336,-3.4472,0.0,0.0,0.0,-3.5566,-3.56,-3.56,-3.56,-3.56,-3.56,-3.56,-3.56,-3.56,-3.56,-3.56,-3.56,-3.56,-3.56,-3.56,-3.56,-3.5718,-3.7256,-3.7905,-3.8058,-3.9512,-4.007,-4.0045,-4.0087,-4.007,-3.9969,-3.0234,-3.0227,-3.0227,0.0,-3.0267,-3.0318,0.0,0.0,0.0,0.0,-3.593,-3.7334,-3.9027,-3.9611,-4.0123,-4.0777,-4.2008,0.0,0.0,0.0,0.0,-4.4039,-4.0111,-3.8916,-4.1152,-3.7061,0.0,-3.4307,0.0,0.0,-3.302,0.0,0.0,0.0,0.0,0.0,-3.8113,-3.8181,-4.003,-4.2943,-4.3276,-4.3057,0.0,0.0,-4.3139,-4.1554,-4.4047,-4.4745,-4.4493,-4.443,-4.4511,-4.4511,-4.3744,-4.3515,-4.3515,-4.3515,-4.2653,-4.146,-4.0267,-4.0634,-4.0761,-3.8157,-3.8315,-3.8528,0.0,0.0,0.0,0.0,0.0,0.0,0.0,0.0,0.0,0.0,0.0,0.0,0.0,0.0,0.0,-3.123,0.0,0.0,-3.1568,-3.2496,-3.3271,-3.366,-3.4184,0.0,0.0,0.0,0.0,-3.5583,-3.56,-3.56,-3.56,-3.56,-3.56,-3.56,-3.56,-3.56,-3.56,-3.56,-3.56,-3.56,-3.56,-3.56,-3.5718,-3.7256,-3.7905,-3.8058,-3.9512,-3.9731,-3.9262,-3.9764,-3.9644,-3.9166,-3.0219,0.0,0.0,-3.0207,0.0,0.0,-3.1386,0.0,0.0,-3.5146,-3.6301,0.0,-3.9219,-4.0054,-4.0708,-4.1181,-4.2374,0.0,-4.2162,0.0,0.0,-4.3732,-4.1925,-4.1487,-4.2692,-3.9252,0.0,-3.6447,0.0,0.0,-3.354,0.0,0.0,0.0,0.0,-3.5453,0.0,-3.8302,-3.9789,-4.1521,-4.2054,0.0,0.0,-4.272,-4.2192,-4.1086,-4.2766,-4.3267,-4.317,-4.3345,-4.3662,-4.3949,-4.3597,-4.3515,-4.3515,-4.3515,-4.1864,-3.9848,-3.8946,-3.9813,-4.0457,-3.8325,-3.8596,-3.8866,-3.7049,-3.6568,-3.651,0.0,-3.6191,-3.6012,0.0,0.0,0.0,0.0,0.0,0.0,0.0,0.0,0.0,0.0,-3.1582,0.0,-3.1241,-3.2527,-3.3406,-3.3406,-3.3778,0.0,0.0,0.0,0.0,-3.5115,-3.543,-3.56,-3.56,-3.56,-3.56,-3.56,-3.56,-3.56,-3.56,-3.56,-3.56,-3.56,-3.56,-3.5785,-3.6231,-3.7415,-3.806,-3.8376,-3.9192,-3.9209,-3.8827,-3.8876,-3.8695,-3.8358,0.0,0.0,0.0,0.0,0.0,0.0,0.0,-3.2128,0.0,-3.5348,0.0,-3.6712,-3.8161,-3.9631,-4.0554,-4.0669,0.0,-4.2027,-3.9931,-4.3115,-4.4096,-4.1846,-4.3545,-4.4514,-4.4466,-4.1939,-4.0159,0.0,0.0,0.0,0.0,0.0,0.0,0.0,0.0,0.0,0.0,-3.8707,-3.9682,-3.9905,-4.0639,-4.0987,-4.1109,-4.1351,-4.1234,-4.0979,-4.12,-4.136,-4.1542,-4.2114,-4.2665,-4.3075,-4.3149,-4.3039,-4.2855,-4.2855,-4.0857,-3.8658,-3.8658,-3.9143,-3.9461,-3.8826,-3.8515,-3.8218,-3.7588,-3.7377,-3.7298,-3.7253,-3.6692,-3.6588,0.0,0.0,0.0,0.0,0.0,0.0,0.0,0.0,0.0,0.0,0.0,0.0,-3.1207,-3.2442,-3.3271,-3.3271,0.0,0.0,0.0,0.0,0.0,-3.4641,-3.5261,-3.56,-3.56,0.0,-3.56,-3.56,-3.56,-3.56,-3.56,-3.56,-3.56,-3.56,-3.5577,-3.6039,-3.6817,-3.7554,-3.8226,-3.879,-3.8694,-3.8564,-3.8342,-3.769,-3.7472,-3.7442,0.0,0.0,0.0,0.0,0.0,-3.3249,-3.4649,-3.5806,-3.6738,-3.7368,-3.8716,-3.9738,-4.0027,-4.0323,-4.0785,-4.1508,-4.1854,0.0,0.0,0.0,0.0,-4.2622,-4.2948,-4.3016,-4.2754,-4.0965,-3.9435,0.0,0.0,0.0,0.0,0.0,0.0,0.0,0.0,0.0,-3.6256,-3.7314,0.0,-3.9672,-3.992,-4.0429,-4.1029,-4.1126,-4.0719,-4.0118,-4.0163,-4.062,-4.1192,-4.1317,-4.114,-4.0946,-4.137,-4.0616,-3.9551,-3.9551,-3.9017,-3.8465,-3.853,-3.864,-3.8679,-3.8501,-3.8338,-3.8221,-3.8142,-3.8072,-3.8025,-3.8008,-3.7899,-3.7682,-3.7285,0.0,0.0,0.0,0.0,0.0,0.0,0.0,0.0,0.0,0.0,-3.2544,0.0,0.0,0.0,0.0,0.0,0.0,0.0,0.0,0.0,0.0,-3.5532,0.0,0.0,0.0,-3.56,-3.56,-3.56,-3.56,-3.56,-3.56,-3.56,-3.56,-3.5543,-3.5919,-3.6619,-3.728,-3.8019,-3.8706,-3.8575,-3.7905,-3.6934,-3.6707,-3.6305,-3.5973,0.0,0.0,0.0,0.0,0.0,0.0,0.0,-3.8023,0.0,-3.8008,-3.8634,-3.9173,-3.92,-3.9977,-4.0669,-4.1085,-4.1546,-4.1953,-4.2296,-4.2712,-4.2898,-4.2805,-4.2619,-4.2482,-4.2306,-4.0866,-3.9382,-3.7894,0.0,0.0,0.0,0.0,0.0,0.0,0.0,-3.4788,0.0,0.0,0.0,-3.8401,-3.8887,-3.9305,-3.965,-3.9731,-3.9507,-3.9192,-3.9242,-3.9533,-3.9863,-3.9863,-3.9664,-3.9517,-3.9756,-3.9331,-3.8692,-3.8596,-3.8496,-3.8449,-3.8401,-3.8403,-3.8403,-3.8401,-3.8305,-3.8225,-3.829,-3.8259,-3.8209,-3.8209,-3.8209,-3.787,-3.6836,-3.5686,0.0,0.0,0.0,0.0,0.0,0.0,0.0,0.0,0.0,0.0,0.0,0.0,0.0,0.0,0.0,0.0,0.0,0.0,0.0,0.0,0.0,0.0,0.0,0.0,0.0,-3.56,-3.5571,-3.5571,-3.56,-3.56,-3.5594,-3.556,-3.5879,-3.6404,-3.7081,-3.7741,-3.8046,-3.8076,-3.7602,-3.7025,-3.6461,-3.607,-3.5733,-3.5537,0.0,-3.0748,0.0,0.0,-3.466,0.0,-3.7583,-3.9373,-4.0032,-3.8616,-3.8418,-3.8516,-3.8754,-3.9954,-4.0819,-4.1003,-4.1476,-4.1747,-4.1686,-4.2092,-4.2315,-4.2269,-4.2011,-4.1851,-4.1795,-4.0701,-3.9412,0.0,0.0,0.0,0.0,0.0,0.0,0.0,0.0,0.0,0.0,0.0,-3.726,-3.7462,-3.8113,-3.8385,-3.8401,-3.8446,-3.8478,-3.8494,-3.8593,-3.8643,-3.8643,-3.8643,-3.8643,-3.8658,-3.8658,-3.8676,-3.8627,-3.8433,-3.8401,-3.8419,-3.832,-3.8289,-3.829,-3.8336,-3.8272,-3.8225,-3.8257,-3.8242,-3.8209,-3.8209,-3.8209,-3.7784,-3.6417,-3.583,0.0,0.0,0.0,0.0,0.0,0.0,0.0,0.0,0.0,0.0,-3.2465,0.0,0.0,0.0,0.0,0.0,0.0,0.0,0.0,0.0,0.0,-3.5324,-3.5324,0.0,-3.5475,-3.5549,-3.5498,-3.552,-3.5594,-3.5594,-3.5566,-3.5525,-3.6155,-3.6816,-3.7485,-3.8052,-3.7908,-3.7265,-3.6662,-3.6305,-3.6133,-3.5683,-3.5504,-3.5504,0.0,0.0,0.0,0.0,0.0,0.0,-3.7774,-3.9832,-4.1093,-4.0264,-4.0158,-4.0471,-4.1281,-4.1492,-4.1878,-4.261,-4.2073,-4.1672,-4.1598,-4.0948,-4.0538,-4.052,-4.0502,-4.0366,-4.013,-3.9774,-3.9013,0.0,0.0,-3.5826,0.0,0.0,0.0,0.0,0.0,0.0,0.0,-3.7051,-3.7493,-3.8133,-3.8254,-3.8323,-3.8323,-3.8385,-3.8415,-3.8415,-3.8415,-3.8433,-3.8433,-3.8433,-3.8462,-3.851,-3.8512,-3.853,-3.8481,-3.8352,-3.8272,-3.8241,-3.829,-3.8257,-3.8209,-3.8225,-3.8209,-3.8209,-3.8209,-3.8209,-3.8209,-3.8209,-3.8209,-3.7698,-3.6052,-3.6289,-3.6363,0.0,0.0,0.0,0.0,0.0,-3.5104,-3.4302,0.0,0.0,0.0,-3.3094,0.0,0.0,-3.2429,0.0,0.0,0.0,0.0,-3.4302,0.0,-3.442,-3.442,-3.5031,-3.5314,-3.5337,-3.5446,-3.5492,-3.5514,-3.5514,-3.5514,-3.5542,-3.6007,-3.6603,-3.7237,-3.7432,-3.7101,-3.6508,-3.643,-3.6085,-3.5602,-3.5537,-3.5504,-3.5504,0.0,0.0,0.0,0.0,0.0,0.0,0.0,-4.1313,-4.2173,-4.1876,-4.1847,-4.1999,-4.238,-4.2427,-4.2552,-4.2879,-4.2611,-4.2382,-4.2317,-4.1551,-4.1064,-4.1017,-4.0559,-4.0176,-3.9914,-3.9647,-3.8964,0.0,0.0,0.0,0.0,0.0,0.0,0.0,0.0,-3.6552,-3.7126,-3.7568,-3.7934,-3.8209,-3.8242,-3.8241,-3.8259,-3.8305,-3.8338,-3.8354,-3.8401,-3.8399,-3.8399,-3.8399,-3.8415,-3.8446,-3.843,-3.8449,-3.8417,-3.8338,-3.829,-3.8257,-3.8241,-3.8225,-3.8209,-3.8209,-3.8209,-3.8209,-3.8209,-3.8209,-3.8209,-3.8209,-3.7985,-3.7434,-3.6277,-3.5963,-3.5772,-3.5459,0.0,0.0,0.0,0.0,0.0,0.0,0.0,-3.4223,0.0,0.0,0.0,0.0,0.0,0.0,0.0,0.0,0.0,-3.4406,0.0,-3.4936,-3.502,-3.514,-3.5222,-3.5291,-3.5268,-3.5291,-3.5377,-3.5377,-3.5595,-3.5992,-3.6554,-3.6775,-3.6709,-3.6781,-3.643,-3.5846,-3.5846,-3.5701,-3.5504,-3.5504,-3.5504,-3.5504,-3.6244,0.0,-3.6929,0.0,-3.9718,-4.052,-4.1705,-4.2603,-4.3148,-4.3149,-4.3388,-4.3465,-4.3273,-4.3263,-4.335,-4.3589,-4.3369,-4.3207,-4.3159,-4.2403,-4.1772,-4.1397,-4.0853,0.0,-3.9682,-3.9489,-3.8965,-3.8141,-3.7135,0.0,0.0,0.0,0.0,0.0,-3.6882,-3.7219,-3.7457,-3.7972,-3.8209,-3.8209,-3.8209,-3.8209,-3.8209,-3.8241,-3.8274,-3.8274,-3.832,-3.8336,-3.8336,-3.8336,-3.8336,-3.8336,-3.8368,-3.8352,-3.832,-3.8272,-3.8274,-3.8257,-3.8225,-3.8209,-3.8209,-3.8209,-3.8209,-3.8209,-3.8209,-3.8088,-3.7915,-3.7685,-3.7468,-3.7057,-3.6241,-3.579,-3.5538,-3.5587,0.0,0.0,0.0,-3.5577,0.0,0.0,-3.4678,-3.4275,-3.422,-3.3799,0.0,0.0,0.0,0.0,0.0,0.0,0.0,0.0,0.0,0.0,-3.4785,-3.4631,-3.4675,-3.4947,-3.4883,-3.4977,-3.5245,-3.5257,-3.5547,-3.6029,-3.645,-3.6546,-3.6399,-3.6196,-3.5878,-3.5504,-3.5504,-3.5504,-3.5504,-3.5504,-3.5504,-3.5504,-3.8457,-3.8954,-3.9756,-4.2297,-4.2756,-4.2756,-4.2775,-4.3472,-4.3987,-4.3987,-4.4743,-4.4973,-4.4163,-4.4097,-4.4421,-4.5192,-4.4475,-4.3987,-4.3987,-4.3233,-4.2283,0.0,0.0,-4.0481,-3.9147,-3.9115,-3.8979,-3.8689,0.0,0.0,-3.7456,0.0,-3.6425,-3.7089,-3.7089,-3.7495,-3.8191,-3.8209,-3.8209,-3.8209,-3.8209,-3.8209,-3.8209,-3.8209,-3.8209,-3.8209,-3.8209,-3.8209,-3.8209,-3.8209,-3.8209,-3.8225,-3.8274,-3.8257,-3.8209,-3.8209,-3.8209,-3.8209,-3.8209,-3.8209,-3.8209,-3.8209,-3.8209,-3.8209,-3.8209,-3.7845,-3.7266,-3.6492,-3.6638,-3.6641,-3.5783,-3.598,-3.6135,-3.5672,0.0,0.0,0.0,0.0,0.0,-3.4398,-3.4314,-3.4225,-3.4022,-3.4175,0.0,0.0,0.0,0.0,0.0,0.0,0.0,-3.3999,-3.343,0.0,-3.3136,-3.3195,-3.3527,-3.4126,-3.4177,-3.4521,-3.5098,-3.516,-3.5251,-3.5315,-3.5329,-3.5738,-3.6337,-3.5765,-3.5504,-3.5504,-3.5504,-3.5504,-3.5504,-3.5504,-3.5504,-3.5504,-4.1437,-4.159,-4.1858,-4.266,-4.3252,-4.3624,-4.3624,-4.4341,-4.4895,-4.4895,-4.5125,-4.5192,-4.4945,-4.4926,-4.5012,0.0,-4.5048,-4.4794,0.0,-4.3787,-4.3076,-4.2492,-4.1406,-4.054,-3.9918,-3.938,-3.8964,-3.8707,0.0,0.0,0.0,-3.6957,-3.7192,-3.7925,-3.7876,-3.7972,-3.8209,-3.8209,-3.8209,-3.8209,-3.8209,-3.8209,-3.8209,-3.8209,-3.8209,-3.8209,-3.8209,-3.8209,-3.8209,-3.8209,-3.8209,-3.8209,-3.8242,-3.8225,-3.8209,-3.8209,-3.8209,-3.8209,-3.8209,-3.8209,-3.8209,-3.8209,-3.8209,-3.8123,-3.781,-3.7413,-3.6939,-3.6409,-3.6388,-3.6305,-3.5694,-3.5717,-3.5761,-3.5605,-3.56,0.0,-3.56,0.0,-3.5391,-3.5138,-3.4968,-3.4831,-3.4755,-3.4808,0.0,0.0,0.0,0.0,0.0,0.0,0.0,0.0,-3.3097,0.0,-3.3313,-3.3228,-3.3501,-3.4101,-3.4109,-3.4453,-3.5051,-3.5203,-3.5287,-3.5344,-3.5829,-3.5934,-3.5765,-3.5602,-3.5504,-3.5504,-3.5504,-3.5504,-3.5504,-3.5504,-3.5504,-3.5504,-4.3195,-4.3252,-4.3348,-4.3673,-4.415,-4.4494,-4.4494,-4.4953,-4.5256,-4.5121,-4.5109,-4.5076,-4.4965,-4.4965,0.0,-4.5109,-4.5109,-4.4988,-4.4663,-4.4178,-4.3615,-4.2978,-4.1712,-4.0733,-4.0152,-3.9357,0.0,-3.8707,-3.8145,-3.7824,-3.7698,-3.7608,-3.7818,-3.8257,-3.8225,-3.8209,-3.8209,-3.8209,-3.8209,-3.8209,-3.8209,-3.8209,-3.8209,-3.8209,-3.8209,-3.8209,-3.8209,-3.8209,-3.8209,-3.8209,-3.8209,-3.8209,-3.8209,-3.8209,-3.8209,-3.8209,-3.8209,-3.8209,-3.8209,-3.8037,-3.7862,-3.7915,-3.781,-3.7595,-3.7151,-3.6841,-3.6557,-3.6131,-3.6045,-3.5958,-3.5667,-3.56,-3.56,-3.56,-3.5594,-3.5571,-3.5571,0.0,-3.5276,0.0,0.0,0.0,0.0,-3.4688,-3.4512,0.0,0.0,0.0,0.0,0.0,0.0,-3.2755,-3.2846,-3.2949,-3.3013,-3.2734,-3.2868,-3.3455,-3.3662,-3.3988,-3.4408,-3.4757,-3.4943,-3.5033,-3.5749,-3.5861,-3.5504,-3.5504,-3.5504,-3.5504,-3.5504,-3.5504,-3.5504,-3.5504,-3.5504,-3.5504,-4.393,-4.4083,-4.435,0.0,-4.5307,0.0,-4.5256,-4.5275,-4.5151,-4.4819,-4.4763,-4.4676,-4.4443,-4.4397,-4.4493,-4.4714,0.0,0.0,0.0,-4.4374,-4.389,-4.2797,-4.1984,-4.107,-4.0008,-3.9203,-3.8747,-3.8692,-3.8559,-3.8462,-3.8382,-3.8322,-3.8257,-3.8209,-3.8209,-3.8209,-3.8209,-3.8209,-3.8209,-3.8209,-3.8209,-3.8209,-3.8209,-3.8209,-3.8209,-3.8209,-3.8209,-3.8209,-3.8209,-3.8209,-3.8192,-3.814,-3.814,-3.8123,-3.8123,-3.8192,-3.8175,-3.814,-3.814,-3.7703,-3.7284,-3.7414,-3.717,-3.6761,-3.6406,-3.628,-3.6131,-3.5689,-3.56,-3.56,-3.56,-3.56,-3.56,-3.56,-3.5543,-3.5492,-3.5492,-3.5268,-3.4901,0.0,0.0,0.0,-3.4014,-3.4014,-3.399,0.0,0.0,0.0,0.0,0.0,-3.306,-3.3087,-3.2586,-3.2342,-3.2342,-3.1783,-3.1796,-3.2425,-3.2942,-3.3291,-3.349,-3.4049,-3.441,-3.4608,-3.5235,-3.5504,-3.5504,-3.5504,-3.5504,-3.5504,-3.5504,-3.5504,-3.5504,-3.5504,-3.5504,-3.5504,0.0,0.0,-4.5048,-4.5269,-4.5307,-4.5205,-4.4957,-4.4922,-4.4819,-4.4533,-4.4493,-4.4465,-4.4416,-4.4397,-4.4346,-4.421,-4.4374,-4.4388,-4.4106,-4.4091,-4.3862,-4.3338,-4.2548,-4.1689,-4.0836,-4.0029,-3.9263,-3.8559,-3.8401,-3.8338,-3.8322,-3.8257,-3.8225,-3.8209,-3.8209,-3.8209,-3.8209,-3.8209,-3.8209,-3.8209,-3.8209,-3.8209,-3.8209,-3.8209,-3.8209,-3.8209,-3.8209,-3.8209,-3.8209,-3.8209,-3.7967,-3.7667,-3.7667,-3.745,-3.7339,-3.8003,-3.7862,-3.7505,-3.7505,-3.7113,-3.6739,-3.6978,-3.6739,-3.6409,-3.6322,-3.6023,-3.5717,-3.5622,-3.56,-3.56,-3.56,-3.5549,-3.552,-3.552,-3.5406,-3.5354,-3.5354,-3.5198,-3.5062,0.0,-3.4768,-3.4532,-3.4129,-3.408,-3.3655,0.0,0.0,0.0,0.0,-3.1683,-3.1809,-3.1908,-3.1768,-3.1726,-3.1726,-3.1582,-3.1796,-3.2398,-3.3045,-3.3604,-3.4094,-3.4349,-3.4749,-3.5265,-3.5429,-3.5504,-3.5504,-3.5504,-3.5504,-3.5504,-3.5504,-3.5504,-3.5504,-3.5504,-3.5504,-3.5504,-4.5307,-4.5307,-4.5307,-4.5307,-4.5173,-4.5011,-4.4831,-4.4688,-4.4519,-4.425,-4.4221,-4.4162,-4.4011,-4.3977,-4.3934,-4.3779,-4.4045,-4.4087,-4.3798,-4.3781,-4.3699,-4.3515,-4.2727,-4.2103,-4.1645,-4.0474,-3.9383,-3.8462,-3.8354,-3.8307,-3.8307,-3.8242,-3.8209,-3.8209,-3.8209,-3.8209,-3.8209,-3.8209,-3.8209,-3.8209,-3.8209,-3.8209,-3.8209,-3.8209,-3.8209,-3.8209,-3.8209,-3.8209,-3.8175,-3.795,-3.7721,-3.7469,-3.7266,-3.7075,-3.6997,-3.7468,-3.7468,-3.7247,-3.7017,-3.6536,-3.6114,-3.6266,-3.6156,-3.598,-3.598,-3.5783,-3.56,-3.56,-3.5594,-3.5549,-3.5549,-3.5475,-3.5423,-3.5423,-3.5006,-3.4821,-3.5148,-3.4805,-3.4542,-3.4634,-3.457,-3.4308,-3.3748,-3.3697,-3.328,-3.2299,-3.2257,0.0,-3.142,-3.1392,-3.1419,-3.1496,-3.1511,-3.1511,-3.1511,-3.1511,-3.1668,-3.1994,-3.2663,-3.3331,-3.3939,-3.4314,-3.4861,-3.5504,-3.5504,-3.5504,-3.5504,-3.5504,-3.5504,-3.5504,-3.5504,-3.5504,-3.5504,-3.5504,-3.5504,-3.5504,-4.5235,-4.5216,-4.5205,-4.5162,-4.4922,-4.4726,-4.4676,-4.4498,-4.425,-4.3955,-4.3926,-4.3814,-4.3513,-4.3515,-4.3515,-4.3515,-4.3765,-4.3814,-4.3513,-4.3515,-4.3515,-4.3515,-4.2837,-4.2433,-4.2288,-4.063,-3.9289,-3.8366,-3.8322,-3.829,-3.829,-3.8242,-3.8209,-3.8209,-3.8209,-3.8209,-3.8209,-3.8209,-3.8209,-3.8209,-3.8209,-3.8209,-3.8209,-3.8209,-3.8209,-3.8192,-3.8123,-3.8088,-3.802,-3.7578,-3.7377,-3.7265,-3.6919,-3.6761,-3.6701,-3.6701,-3.6862,-3.696,-3.6557,-3.6028,-3.56,-3.56,-3.56,-3.5577,-3.5577,-3.5554,-3.5554,-3.5554,-3.552,-3.5469,-3.5469,-3.5377,-3.5234,-3.5117,-3.4558,-3.4293,-3.4738,0.0,-3.3864,-3.3953,-3.3958,-3.3739,-3.3145,-3.3093,-3.2868,-3.2315,-3.2259,-3.2051,-3.1524,-3.1511,-3.1511,-3.1511,-3.1511,-3.1511,-3.1511,-3.1511,-3.1555,-3.166,-3.2318,-3.3006,-3.3664,-3.4369,-3.4951,-3.5504,-3.5504,-3.5504,-3.5504,-3.5504,-3.5504,-3.5504,-3.5504,-3.5504,-3.5504,-3.5472,-3.5439,-3.5407,-4.4934,-4.4879,-4.4807,-4.4591,-4.4511,-4.4388,-4.4166,-4.4094,-4.3939,-4.3615,-4.3565,-4.3548,-4.3515,-4.3515,-4.3515,-4.3515,-4.3566,-4.3548,-4.3496,-4.3515,-4.3515,-4.3515,-4.3386,-4.2968,-4.2222,-4.0462,-3.914,-3.8323,-3.8241,-3.8225,-3.8225,-3.8209,-3.8209,-3.8209,-3.8209,-3.8209,-3.8209,-3.8209,-3.8209,-3.8209,-3.8209,-3.8209,-3.8209,-3.8209,-3.8209,-3.814,-3.7756,-3.7614,-3.7559,-3.7132,-3.6779,-3.6471,-3.6409,-3.6114,-3.5805,-3.5805,-3.5832,-3.5941,-3.6259,-3.598,-3.56,-3.56,-3.5549,-3.5514,-3.5514,-3.5429,-3.5337,-3.5337,-3.5337,-3.5314,-3.5314,-3.5222,-3.4935,-3.4301,-3.4519,-3.4416,-3.3453,0.0,-3.388,-3.3407,-3.3329,-3.3119,-3.2574,-3.252,-3.2287,-3.1682,-3.164,-3.1582,-3.1511,-3.1511,-3.1511,-3.1511,-3.1511,-3.1511,-3.1511,-3.1511,-3.178,-3.2333,-3.3021,-3.3694,-3.4384,-3.504,-3.54,-3.5504,-3.5504,-3.5504,-3.5504,-3.5504,-3.5504,-3.5504,-3.5504,-3.5504,-3.5472,-3.5326,-3.5261,-3.5115,-4.4831,-4.4676,-4.4546,-4.4411,-4.4275,-4.4151,-4.4036,-4.3846,-4.3682,-4.3513,-4.3515,-4.3515,-4.3515,-4.3515,-4.3515,-4.3515,-4.3515,-4.348,-4.3446,-4.348,-4.348,-4.3446,-4.3446,-4.2992,-4.2066,-4.0813,-3.9744,-3.8894,-3.8425,-3.8209,-3.8209,-3.8209,-3.8209,-3.8209,-3.8209,-3.8209,-3.8209,-3.8209,-3.8209,-3.8209,-3.8209,-3.8054,-3.7827,-3.7827,-3.7685,-3.7486,-3.7246,-3.7189,-3.7132,-3.6719,-3.6451,-3.6259,-3.6002,-3.5756,-3.5543,-3.5543,-3.5571,-3.5644,-3.5849,-3.5734,-3.5543,-3.5543,-3.5475,-3.54,-3.54,-3.5337,-3.5291,-3.5291,-3.5245,-3.5198,-3.5198,-3.5065,-3.4783,-3.4151,-3.394,0.0,-3.3175,-3.3051,-3.2958,-3.2795,-3.2776,-3.2532,-3.1966,-3.191,-3.1796,-3.1524,-3.1511,-3.1511,-3.1511,-3.1511,-3.1511,-3.1511,-3.1511,-3.1511,-3.1511,-3.1511,-3.1839,-3.2497,-3.3185,-3.3844,-3.4533,-3.519,-3.5504,-3.5504,-3.5504,-3.5439,-3.5326,-3.5326,-3.5261,-3.518,-3.518,-3.518,-3.5115,-3.4639,-3.4438,-3.4322,-4.4624,-4.4457,-4.4275,-4.4198,-4.403,-4.3894,-4.3894,-4.3666,-4.3515,-4.3515,-4.3515,-4.3515,-4.3515,-4.3515,-4.3497,-4.348,-4.348,-4.3428,-4.3358,-4.3393,-4.341,-4.3358,-4.3341,-4.2886,-4.1923,-4.1269,-4.0418,-3.9387,-3.8788,-3.839,-3.8209,-3.8209,-3.8209,-3.8209,-3.8209,-3.8209,-3.8209,-3.8209,-3.814,-3.8037,-3.8037,-3.7774,-3.7377,-3.7377,-3.717,-3.688,-3.6781,-3.6761,-3.6698,-3.6284,-3.6131,-3.6062,-3.5689,-3.552,-3.5446,-3.5446,-3.5498,-3.5532,-3.5532,-3.5481,-3.5446,-3.5446,-3.5337,-3.5245,-3.5245,-3.5222,-3.5198,-3.5198,-3.5128,-3.5018,-3.4899,-3.4787,-3.4496,-3.3758,0.0,-3.2974,0.0,-3.2421,-3.2153,-3.2198,-3.2176,-3.2023,-3.1524,-3.1511,-3.1511,-3.1511,-3.1511,-3.1511,-3.1511,-3.1511,-3.1511,-3.1511,-3.1511,-3.1511,-3.1511,-3.1645,-3.2064,-3.2751,-3.341,-3.4068,-3.4758,-3.5265,-3.5504,-3.5504,-3.5439,-3.5326,-3.518,-3.5148,-3.5034,-3.4902,-3.4902,-3.4787,-3.4572,-3.3968,-3.361,-3.3318,-4.4124,-4.4033,-4.3923,-4.3632,-4.3548,-4.3549,-4.3549,-4.3532,-4.3515,-4.3515,-4.3515,-4.3515,-4.3515,-4.3515,-4.348,-4.3394,-4.3412,-4.3358,-4.3233,-4.3233,-4.3233,-4.3196,-4.316,-4.2741,-4.1923,-4.1724,-4.0908,-3.9387,-3.9333,-3.8933,-3.8209,-3.8209,-3.8209,-3.8209,-3.8209,-3.8209,-3.8209,-3.8209,-3.795,-3.7542,-3.7542,-3.7302,-3.6939,-3.6939,-3.6919,-3.6841,-3.6492,-3.6326,-3.628,-3.5805,-3.5616,-3.556,-3.5514,-3.5423,-3.5314,-3.5314,-3.5314,-3.5314,-3.5314,-3.5314,-3.5314,-3.5314,-3.5222,-3.5111,-3.5111,-3.5018,-3.4923,-3.4923,-3.4923,-3.4763,-3.4275,-3.4176,-3.3749,-3.2453,0.0,0.0,-3.1601,-3.1963,-3.217,-3.1625,-3.1553,-3.1553,-3.1496,-3.1511,-3.1511,-3.1511,-3.1511,-3.1511,-3.1511,-3.1511,-3.1511,-3.1511,-3.1511,-3.1511,-3.1511,-3.2108,-3.2766,-3.3425,-3.4114,-3.4788,-3.5429,-3.5489,-3.5504,-3.5504,-3.5294,-3.5213,-3.518,-3.5001,-3.4902,-3.4902,-3.4902,-3.4471,-3.3865,-3.361,-3.3059,-3.2285,-4.4036,-4.383,-4.3649,-4.3513,-4.3515,-4.3515,-4.3515,-4.3515,-4.3515,-4.3515,-4.3515,-4.3515,-4.3515,-4.3463,-4.3429,-4.3412,-4.3323,-4.3251,-4.3142,-4.3142,-4.3142,-4.3142,-4.3031,-4.283,-4.2522,-4.1995,-4.1415,-4.0836,-3.9858,-3.9224,-3.8916,-3.8444,-3.8209,-3.8209,-3.8209,-3.8209,-3.8192,-3.788,-3.765,-3.7487,-3.7227,-3.688,-3.6533,-3.6533,-3.635,-3.6075,-3.5915,-3.5871,-3.5827,-3.5616,-3.5537,-3.5492,-3.54,-3.5291,-3.5175,-3.5081,-3.5041,-3.5041,-3.5041,-3.5111,-3.5175,-3.5175,-3.5081,-3.497,-3.497,-3.4667,-3.4399,-3.4399,-3.4118,-3.3783,-3.3578,-3.3527,-3.3266,-3.2433,0.0,-3.2384,-3.1533,-3.1673,-3.1754,-3.1524,-3.1511,-3.1511,-3.1511,-3.1511,-3.1511,-3.1511,-3.1511,-3.1511,-3.1511,-3.1511,-3.1511,-3.1511,-3.1511,-3.1705,-3.2108,-3.2363,-3.3051,-3.4098,-3.4384,-3.4799,-3.5326,-3.5326,-3.5261,-3.5115,-3.5034,-3.4983,-3.485,-3.4269,-3.3968,-3.3796,-3.3332,-3.3003,-3.2684,-3.2096,-3.1683,-3.1328,-4.3814,-4.3632,-4.3479,-4.3428,-4.3445,-4.3445,-4.341,-4.341,-4.341,-4.341,-4.341,-4.341,-4.341,-4.3358,-4.3323,-4.3305,-4.3215,-4.3123,-4.3049,-4.303,-4.303,-4.303,-4.2938,-4.2901,-4.2901,-4.2357,-4.194,-4.1705,-4.0655,-3.9985,-3.9731,-3.8934,-3.8589,-3.8554,-3.8162,-3.7967,-3.795,-3.7505,-3.7246,-3.7113,-3.6821,-3.6454,-3.6088,-3.6088,-3.6024,-3.5955,-3.5909,-3.6038,-3.6257,-3.6158,-3.6105,-3.6041,-3.5947,-3.5685,-3.5317,-3.4989,-3.4899,-3.4899,-3.4899,-3.4835,-3.4828,-3.4994,-3.4851,-3.4643,-3.4643,-3.4234,-3.3815,-3.3815,-3.3501,-3.3145,-3.2986,-3.2949,-3.2761,-3.2203,-3.2135,-3.1966,-3.1553,-3.1511,-3.1511,-3.1511,-3.1511,-3.1511,-3.1511,-3.1511,-3.1511,-3.1511,-3.1511,-3.1511,-3.1511,-3.1467,-3.1438,-3.1438,-3.1588,-3.199,-3.2661,-3.2766,-3.338,-3.4503,-3.4665,-3.488,-3.518,-3.5115,-3.5034,-3.4902,-3.4572,-3.4419,-3.4249,-3.3402,-3.2967,-3.2791,-3.229,-3.1928,-3.1673,-3.1106,-3.0758,-3.0482,-4.3394,-4.3464,-4.3427,-4.3232,-4.3323,-4.334,-4.3233,-4.3214,-4.3214,-4.3214,-4.3214,-4.3214,-4.3214,-4.3214,-4.316,-4.3104,-4.3104,-4.303,-4.2919,-4.2901,-4.2901,-4.2901,-4.2901,-4.2901,-4.2901,-4.2901,-4.2502,-4.1705,-4.1705,-4.1288,-4.0492,-3.9749,-3.9405,-3.9352,-3.808,-3.7523,-3.7487,-3.7092,-3.6676,-3.6318,-3.6318,-3.6041,-3.5616,-3.5616,-3.6113,-3.6789,-3.6592,-3.7016,-3.7672,-3.7542,-3.7394,-3.7295,-3.7295,-3.6705,-3.586,-3.5131,-3.4916,-3.4916,-3.4899,-3.4497,-3.4226,-3.4763,-3.4497,-3.4101,-3.4101,-3.362,-3.3182,-3.3182,-3.3182,-3.3013,-3.2492,-3.2398,-3.2203,-3.1582,-3.1511,-3.1511,-3.1511,-3.1511,-3.1511,-3.1511,-3.1511,-3.1511,-3.1511,-3.1511,-3.1511,-3.1511,-3.1511,-3.1511,-3.1511,-3.138,-3.1307,-3.1322,-3.1752,-3.2324,-3.3004,-3.3346,-3.3829,-3.4518,-3.4966,-3.518,-3.518,-3.4968,-3.4902,-3.482,-3.3899,-3.3506,-3.3437,-3.247,-3.2074,-3.2074,-3.2074,-3.1599,-3.0895,-3.0895,-3.0444,-2.9792,-4.3269,-4.3286,-4.3268,-4.3196,-4.3233,-4.3251,-4.3214,-4.3214,-4.3214,-4.3214,-4.3214,-4.3214,-4.3214,-4.316,-4.3105,-4.3104,-4.3012,-4.2938,-4.2901,-4.2901,-4.2901,-4.2901,-4.2901,-4.2901,-4.2901,-4.2901,-4.2774,-4.2538,-4.1976,-4.1578,-4.1325,-4.02,-3.9674,-3.9637,-3.8925,-3.8619,-3.8599,-3.8181,-3.7958,-3.7821,-3.7541,-3.7329,-3.7205,-3.7094,-3.7205,-3.7408,-3.7256,-3.7358,-3.7542,-3.7394,-3.732,-3.7295,-3.7194,-3.6978,-3.6738,-3.6506,-3.6075,-3.5588,-3.5159,-3.4583,-3.4151,-3.43,-3.3917,-3.3475,-3.3475,-3.3029,-3.2641,-3.2641,-3.2299,-3.1951,-3.1796,-3.1768,-3.1726,-3.1524,-3.1511,-3.1511,-3.1511,-3.1511,-3.1511,-3.1511,-3.1511,-3.1511,-3.1511,-3.1511,-3.1511,-3.1511,-3.1511,-3.1467,-3.1351,-3.1322,-3.1442,-3.1781,-3.1942,-3.2545,-3.3699,-3.3809,-3.4167,-3.4771,-3.4912,-3.4949,-3.4831,-3.4187,-3.3831,-3.3644,-3.2861,-3.2506,-3.247,-3.1586,-3.1267,-3.1193,-3.0684,-3.033,-3.0139,-3.0139,-2.9998,-2.9792,-4.3196,-4.3178,-4.316,-4.3105,-4.3123,-4.3142,-4.3087,-4.3087,-4.3087,-4.3087,-4.3087,-4.3087,-4.3087,-4.305,-4.303,-4.303,-4.2938,-4.2901,-4.2901,-4.2901,-4.2901,-4.2901,-4.2901,-4.2901,-4.2901,-4.2901,-4.2901,-4.2901,-4.2223,-4.1912,-4.1875,-4.0602,-3.999,-3.9952,-3.9213,-3.886,-3.8855,-3.8425,-3.8259,-3.8253,-3.8007,-3.7858,-3.781,-3.772,-3.7857,-3.8035,-3.7886,-3.8037,-3.8262,-3.8134,-3.8092,-3.8033,-3.7658,-3.7549,-3.7432,-3.687,-3.6383,-3.5894,-3.5289,-3.45,-3.3816,-3.3816,-3.3355,-3.2895,-3.2895,-3.2465,-3.2035,-3.2035,-3.1739,-3.1511,-3.1511,-3.1511,-3.1511,-3.1511,-3.1511,-3.1511,-3.1511,-3.1511,-3.1511,-3.1511,-3.1511,-3.1511,-3.1511,-3.1511,-3.1467,-3.1409,-3.1409,-3.1351,-3.1234,-3.1146,-3.1353,-3.1894,-3.2112,-3.271,-3.38,-3.4032,-3.442,-3.4902,-3.4835,-3.4601,-3.4216,-3.3624,-3.3143,-3.272,-3.1965,-3.1636,-3.1563,-3.0771,-3.0482,-3.0406,-2.996,-2.9792,-2.9792,-2.9792,-2.9792,-2.9792,-4.3104,-4.3123,-4.3105,-4.292,-4.2994,-4.303,-4.2919,-4.2901,-4.2901,-4.2901,-4.2901,-4.2901,-4.2901,-4.2901,-4.2901,-4.2901,-4.2901,-4.2901,-4.2901,-4.2901,-4.2901,-4.2901,-4.2901,-4.2882,-4.2844,-4.2844,-4.2844,-4.2844,-4.2378,-4.2136,-4.2118,-4.0908,-4.0355,-4.0298,-3.9155,-3.8637,-3.8631,-3.8241,-3.8084,-3.8084,-3.8084,-3.7995,-3.7874,-3.7874,-3.8195,-3.8656,-3.8537,-3.8918,-3.9458,-3.9325,-3.9299,-3.9183,-3.851,-3.8259,-3.7962,-3.6669,-3.6212,-3.6001,-3.5394,-3.4356,-3.3462,-3.3405,-3.2898,-3.2391,-3.233,-3.1881,-3.1511,-3.1511,-3.1511,-3.1511,-3.1511,-3.1511,-3.1511,-3.1511,-3.1511,-3.1511,-3.1511,-3.1511,-3.1511,-3.1511,-3.1511,-3.1511,-3.1511,-3.1511,-3.1424,-3.1292,-3.1292,-3.1234,-3.1087,-3.0954,-3.1171,-3.1845,-3.2329,-3.2872,-3.3477,-3.4008,-3.4467,-3.4754,-3.4601,-3.4147,-3.3367,-3.3108,-3.2648,-3.1928,-3.1156,-3.0782,-3.0758,-3.0075,-2.9792,-2.9792,-2.9792,-2.9792,-2.9792,-2.9792,-2.9792,-2.9792,-4.2975,-4.2957,-4.2939,-4.2901,-4.2919,-4.2938,-4.2901,-4.2901,-4.2901,-4.2901,-4.2901,-4.2901,-4.2901,-4.2901,-4.2901,-4.2901,-4.2901,-4.2901,-4.2901,-4.2901,-4.2901,-4.2901,-4.2901,-4.2731,-4.2358,-4.2358,-4.2358,-4.2358,-4.1888,-4.1635,-4.1635,-4.1005,-4.0683,-4.066,-4.0024,-3.9753,-3.9753,-3.9647,-3.9564,-3.948,-3.948,-3.9387,-3.926,-3.9148,-3.9196,-3.9294,-3.9146,-3.9219,-3.9325,-3.9299,-3.9299,-3.9265,-3.9116,-3.8695,-3.8219,-3.7901,-3.7074,-3.6121,-3.5509,-3.4749,-3.4006,-3.3592,-3.2975,-3.2329,-3.1817,-3.1582,-3.1511,-3.1511,-3.1511,-3.1511,-3.1511,-3.1511,-3.1511,-3.1511,-3.1511,-3.1511,-3.1511,-3.1511,-3.1511,-3.1511,-3.1511,-3.1511,-3.1511,-3.1409,-3.1292,-3.1161,-3.1132,-3.1073,-3.0895,-3.1334,-3.1813,-3.2312,-3.2966,-3.3278,-3.3273,-3.338,-3.352,-3.3575,-3.3555,-3.3122,-3.2362,-3.1696,-3.1291,-3.1119,-3.0343,-3.0037,-3.0037,-2.9869,-2.9792,-2.9792,-2.9792,-2.9792,-2.9792,-2.9792,-2.9792,-2.9792,-4.2901,-4.2901,-4.2901,-4.2901,-4.2901,-4.2901,-4.2901,-4.2901,-4.2901,-4.2901,-4.2901,-4.2901,-4.2901,-4.2901,-4.2901,-4.2901,-4.2901,-4.2901,-4.2901,-4.2901,-4.2901,-4.2901,-4.2692,-4.2458,-4.2216,-4.176,-4.163,-4.1867,-4.141,-4.1162,-4.1162,-4.0683,-4.0476,-4.0476,-4.0221,-4.0096,-4.0096,-4.0096,-4.0037,-3.9901,-3.9901,-3.9772,-3.959,-3.9528,-3.9475,-3.9395,-3.9325,-3.9299,-3.9299,-3.9299,-3.9299,-3.9299,-3.9299,-3.8843,-3.825,-3.7966,-3.7146,-3.6225,-3.5599,-3.4911,-3.4319,-3.4056,-3.3469,-3.2811,-3.2123,-3.1735,-3.1511,-3.1511,-3.1511,-3.1511,-3.1511,-3.1511,-3.1511,-3.1511,-3.1511,-3.1511,-3.1511,-3.1511,-3.1511,-3.1511,-3.1438,-3.138,-3.1307,-3.1249,-3.1132,-3.0984,-3.1234,-3.135,-3.1154,-3.1766,-3.2217,-3.2415,-3.2744,-3.2863,-3.2684,-3.2684,-3.2492,-3.2096,-3.2492,-3.229,-3.1526,-3.1068,-3.072,-3.0343,-2.9972,-2.9792,-2.9792,-2.9792,-2.9792,-2.9792,-2.9792,-2.9792,-2.9792,-2.9792,-2.9792,-2.9792,-4.2901,-4.2901,-4.2901,-4.2901,-4.2901,-4.2901,-4.2901,-4.2901,-4.2901,-4.2901,-4.2901,-4.2901,-4.2901,-4.2901,-4.2901,-4.2901,-4.2901,-4.2901,-4.2901,-4.2901,-4.2863,-4.2769,-4.2398,-4.2115,-4.1969,-4.1202,-4.0995,-4.137,-4.0902,-4.0683,-4.0659,-4.0279,-4.0096,-4.0096,-4.0096,-4.0087,-4.0062,-4.0062,-3.9986,-3.9824,-3.9824,-3.9694,-3.9475,-3.9475,-3.9405,-3.9299,-3.9299,-3.9299,-3.9299,-3.9299,-3.9202,-3.9121,-3.9121,-3.8606,-3.7879,-3.737,-3.6753,-3.6148,-3.5651,-3.5085,-3.4683,-3.4683,-3.4189,-3.3529,-3.2976,-3.2228,-3.1675,-3.1675,-3.1585,-3.1511,-3.1511,-3.1467,-3.1467,-3.1467,-3.1453,-3.1424,-3.1424,-3.1424,-3.1424,-3.1424,-3.1322,-3.1205,-3.1043,-3.1043,-3.0969,-3.0757,-3.1251,-3.1476,-3.128,-3.1911,-3.2222,-3.2115,-3.2193,-3.2151,-3.1892,-3.1892,-3.1489,-3.072,-3.1392,-3.1355,-3.072,-3.072,-3.0381,-2.9792,-2.9792,-2.9792,-2.9792,-2.9792,-2.9792,-2.9792,-2.9792,-2.9792,-2.9792,-2.9792,-2.9792,-2.9792,-4.2901,-4.2901,-4.2901,-4.2901,-4.2901,-4.2901,-4.2901,-4.2901,-4.2901,-4.2901,-4.2901,-4.2901,-4.2901,-4.2901,-4.2901,-4.2901,-4.2901,-4.2901,-4.2901,-4.2901,-4.2711,-4.2318,-4.2218,-4.1803,-4.0995,-4.0873,-4.0825,-4.0879,-4.041,-4.0196,-4.0196,-4.0121,-4.0096,-4.0096,-4.0096,-4.0037,-3.9926,-3.9926,-3.9772,-3.9554,-3.9554,-3.9458,-3.9325,-3.9325,-3.9325,-3.9299,-3.9299,-3.9299,-3.9299,-3.9299,-3.8898,-3.8435,-3.8435,-3.7618,-3.6631,-3.6554,-3.6116,-3.5587,-3.5537,-3.5429,-3.537,-3.537,-3.4846,-3.4354,-3.4264,-3.326,-3.2348,-3.2348,-3.1899,-3.1511,-3.1511,-3.1409,-3.1322,-3.1322,-3.1249,-3.1132,-3.1132,-3.1132,-3.1132,-3.1132,-3.1146,-3.1043,-3.0866,-3.0821,-3.0739,-3.0464,-3.0527,-3.0536,-3.0364,-3.0965,-3.1286,-3.1262,-3.1837,-3.1775,-3.1068,-3.1082,-3.0696,-2.9934,-3.0049,-3.0037,-2.9934,-2.9934,-2.9895,-2.9792,-2.9792,-2.9792,-2.9792,-2.9792,-2.9792,-2.9792,-2.9792,-2.9792,-2.9792,-2.9792,-2.9792,-2.9753,-4.2901,-4.2901,-4.2901,-4.2901,-4.2901,-4.2901,-4.2901,-4.2901,-4.2901,-4.2901,-4.2901,-4.2901,-4.2901,-4.2901,-4.2901,-4.2901,-4.2901,-4.2787,-4.2536,-4.2498,-4.23,-4.1825,-4.1565,-4.1208,-4.0802,-4.0458,-4.0303,-4.0303,-4.0171,-4.0096,-4.0096,-4.0096,-4.0062,-3.9986,-3.9986,-3.991,-3.9781,-3.9781,-3.9694,-3.9501,-3.9501,-3.9422,-3.9299,-3.9299,-3.9299,-3.9245,-3.8871,-3.8745,-3.8689,-3.8339,-3.8039,-3.7793,-3.7793,-3.7145,-3.6399,-3.6399,-3.5973,-3.5504,-3.5504,-3.5504,-3.5504,-3.5504,-3.528,-3.5055,-3.5055,-3.4307,-3.3499,-3.314,-3.2736,-3.2467,-3.2467,-3.202,-3.1693,-3.1693,-3.1368,-3.1117,-3.1117,-3.1117,-3.1043,-3.0955,-3.1263,-3.1271,-3.0645,-3.0865,-3.086,-3.0339,-3.0602,-3.0767,-3.0729,-3.1297,-3.1429,-3.0993,-3.1282,-3.1057,-3.0305,-3.0279,-3.0101,-2.9792,-2.9792,-2.9792,-2.9792,-2.9792,-2.9792,-2.9792,-2.9792,-2.9792,-2.9792,-2.9792,-2.9792,-2.9792,-2.9792,-2.9792,-2.9792,-2.965,-2.956,-2.9521]},{"header":{"parameterUnit":"m.s-1","parameterCategory":1,"la1":30.6,"la2":28.766,"lo1":-90.7593,"lo2":-88.6598,"dy":0.0162,"dx":0.0183,"nx":116,"ny":114,"refTime":"2023-08-14T12:00:00:Z","depth":0,"parameterNumber":3,"parameterNumberName":"V-component_of_WINDS"},"data":[0.0,0.0,0.0,0.0,0.0,0.0,0.0,0.0,0.0,0.0,0.0,0.0,0.0,0.0,0.0,0.0,0.0,0.0,0.0,0.0,0.0,0.0,0.0,0.0,0.0,0.0,0.0,0.0,0.0,0.0,0.0,0.0,0.0,0.0,0.0,0.0,0.0,0.0,0.0,0.0,0.0,0.0,0.0,0.0,0.0,0.0,0.0,0.0,0.0,0.0,0.0,0.0,0.0,0.0,0.0,0.0,0.0,0.0,0.0,0.0,0.0,0.0,0.0,0.0,0.0,0.0,0.0,0.0,0.0,0.0,0.0,0.0,0.0,0.0,0.0,0.0,0.0,0.0,0.0,0.0,0.0,0.0,0.0,0.0,0.0,0.0,0.0,0.0,0.0,0.0,0.0,0.0,0.0,0.0,0.0,0.0,0.0,0.0,0.0,0.0,0.0,0.0,0.0,0.0,0.0,0.0,0.0,0.0,0.0,0.0,0.0,0.0,0.0,0.0,0.0,0.0,0.0,0.0,0.0,0.0,0.0,0.0,0.0,0.0,0.0,0.0,0.0,0.0,0.0,0.0,0.0,0.0,0.0,0.0,0.0,0.0,0.0,0.0,0.0,0.0,0.0,0.0,0.0,0.0,0.0,0.0,0.0,0.0,0.0,0.0,0.0,0.0,0.0,0.0,0.0,0.0,0.0,0.0,0.0,0.0,0.0,0.0,0.0,0.0,0.0,0.0,0.0,0.0,0.0,0.0,0.0,0.0,0.0,0.0,0.0,0.0,0.0,0.0,0.0,0.0,0.0,0.0,0.0,0.0,0.0,0.0,0.0,0.0,0.0,0.0,0.0,0.0,0.0,0.0,0.0,0.0,0.0,0.0,0.0,0.0,0.0,0.0,0.0,0.0,0.0,0.0,0.0,0.0,0.0,0.0,0.0,0.0,0.0,0.0,0.0,0.0,0.0,0.0,0.0,0.0,0.0,0.0,0.0,0.0,0.0,0.0,0.0,0.0,0.0,0.0,0.0,0.0,0.0,0.0,0.0,0.0,0.0,0.0,0.0,0.0,0.0,0.0,0.0,0.0,0.0,0.0,0.0,0.0,0.0,0.0,0.0,0.0,0.0,0.0,0.0,0.0,0.0,0.0,0.0,0.0,0.0,0.0,0.0,0.0,0.0,0.0,0.0,0.0,0.0,0.0,0.0,0.0,0.0,0.0,0.0,0.0,0.0,0.0,0.0,0.0,0.0,0.0,0.0,0.0,0.0,0.0,0.0,0.0,0.0,0.0,0.0,0.0,0.0,0.0,0.0,0.0,0.0,0.0,0.0,0.0,0.0,0.0,0.0,0.0,0.0,0.0,0.0,0.0,0.0,0.0,0.0,0.0,0.0,0.0,0.0,0.0,0.0,0.0,0.0,0.0,0.0,0.0,0.0,0.0,0.0,0.0,0.0,0.0,0.0,0.0,0.0,0.0,0.0,0.0,0.0,0.0,0.0,0.0,0.0,0.0,0.0,0.0,0.0,0.0,0.0,0.0,0.0,0.0,0.0,0.0,0.0,0.0,0.0,0.0,0.0,0.0,0.0,0.0,0.0,0.0,0.0,0.0,0.0,0.0,0.0,0.0,0.0,0.0,0.0,0.0,0.0,0.0,0.0,0.0,0.0,0.0,0.0,0.0,0.0,0.0,0.0,0.0,0.0,0.0,0.0,0.0,0.0,0.0,0.0,0.0,0.0,0.0,0.0,0.0,0.0,0.0,0.0,0.0,0.0,0.0,0.0,0.0,0.0,0.0,0.0,0.0,0.0,0.0,0.0,0.0,0.0,0.0,0.0,0.0,0.0,0.0,0.0,0.0,0.0,0.0,0.0,0.0,0.0,0.0,0.0,0.0,0.0,0.0,0.0,0.0,0.0,0.0,0.0,0.0,0.0,0.0,0.0,0.0,0.0,0.0,0.0,0.0,0.0,0.0,0.0,0.0,0.0,0.0,0.0,0.0,0.0,0.0,0.0,0.0,0.0,0.0,0.0,0.0,0.0,0.0,0.0,0.0,0.0,0.0,0.0,0.0,0.0,0.0,0.0,0.0,0.0,0.0,0.0,0.0,0.0,0.0,0.0,0.0,0.0,0.0,0.0,0.0,0.0,0.0,0.0,0.0,0.0,0.0,0.0,0.0,0.0,0.0,0.0,0.0,0.0,0.0,0.0,0.0,0.0,0.0,0.0,0.0,0.0,0.0,0.0,0.0,0.0,0.0,0.0,0.0,0.0,0.0,0.0,0.0,0.0,0.0,0.0,0.0,0.0,0.0,0.0,0.0,0.0,0.0,0.0,0.0,0.0,0.0,0.0,0.0,0.0,0.0,0.0,0.0,0.0,0.0,0.0,0.0,0.0,0.0,0.0,0.0,0.0,0.0,0.0,0.0,0.0,0.0,0.0,0.0,0.0,0.0,0.0,0.0,0.0,0.0,0.0,0.0,0.0,0.0,0.0,0.0,0.0,0.0,0.0,0.0,0.0,0.0,0.0,0.0,0.0,0.0,0.0,0.0,0.0,0.0,0.0,0.0,0.0,0.0,0.0,0.0,0.0,0.0,0.0,0.0,0.0,0.0,0.0,0.0,0.0,0.0,0.0,0.0,0.0,0.0,0.0,0.0,0.0,0.0,0.0,0.0,0.0,0.0,0.0,0.0,0.0,0.0,0.0,0.0,0.0,0.0,0.0,0.0,0.0,0.0,0.0,0.0,0.0,0.0,0.0,0.0,0.0,0.0,0.0,0.0,0.0,0.0,0.0,0.0,0.0,0.0,0.0,0.0,0.0,0.0,0.0,0.0,0.0,0.0,0.0,0.0,0.0,0.0,0.0,0.0,0.0,0.0,0.0,0.0,0.0,0.0,0.0,0.0,0.0,0.0,0.0,0.0,0.0,0.0,0.0,0.0,0.0,0.0,0.0,0.0,0.0,0.0,0.0,0.0,0.0,0.0,0.0,0.0,0.0,0.0,0.0,0.0,0.0,0.0,0.0,0.0,0.0,0.0,0.0,0.0,0.0,0.0,0.0,0.0,0.0,0.0,0.0,0.0,0.0,0.0,0.0,0.0,0.0,0.0,0.0,0.0,0.0,0.0,0.0,0.0,0.0,0.0,0.0,0.0,0.0,0.0,0.0,0.0,0.0,0.0,0.0,0.0,0.0,0.0,0.0,0.0,0.0,0.0,0.0,0.0,0.0,0.0,0.0,0.0,0.0,0.0,0.0,0.0,0.0,0.0,0.0,0.0,0.0,0.0,0.0,0.0,0.0,0.0,0.0,0.0,0.0,0.0,0.0,0.0,0.0,0.0,0.0,0.0,0.0,0.0,0.0,0.0,0.0,0.0,0.0,0.0,0.0,0.0,0.0,0.0,0.0,0.0,0.0,0.0,0.0,0.0,0.0,0.0,0.0,0.0,0.0,0.0,0.0,0.0,0.0,0.0,0.0,0.0,0.0,0.0,0.0,0.0,0.0,0.0,0.0,0.0,0.0,0.0,0.0,0.0,0.0,0.0,0.0,0.0,0.0,0.0,0.0,0.0,0.0,0.0,0.0,0.0,0.0,0.0,0.0,0.0,0.0,0.0,0.0,0.0,0.0,0.0,0.0,0.0,0.0,0.0,0.0,0.0,0.0,0.0,0.0,0.0,0.0,0.0,0.0,0.0,0.0,0.0,0.0,0.0,0.0,0.0,0.0,0.0,0.0,0.0,0.0,0.0,0.0,0.0,0.0,0.0,0.0,0.0,0.0,0.0,0.0,0.0,0.0,0.0,0.0,0.0,0.0,0.0,0.0,0.0,0.0,0.0,0.0,0.0,0.0,0.0,0.0,0.0,0.0,0.0,0.0,0.0,0.0,0.0,0.0,0.0,0.0,0.0,0.0,0.0,0.0,0.0,0.0,0.0,0.0,0.0,0.0,0.0,0.0,0.0,0.0,0.0,0.0,0.0,0.0,0.0,0.0,0.0,0.0,0.0,0.0,0.0,0.0,0.0,0.0,0.0,0.0,0.0,0.0,0.0,0.0,0.0,0.0,0.0,0.0,0.0,0.0,0.0,0.0,0.0,0.0,0.0,0.0,0.0,0.0,0.0,0.0,0.0,0.0,0.0,0.0,0.0,0.0,0.0,0.0,0.0,0.0,0.0,0.0,0.0,0.0,0.0,0.0,0.0,0.0,0.0,0.0,0.0,0.0,0.0,0.0,0.0,0.0,0.0,0.0,0.0,0.0,0.0,0.0,0.0,0.0,0.0,0.0,0.0,0.0,0.0,0.0,0.0,0.0,0.0,0.0,0.0,0.0,0.0,0.0,0.0,0.0,0.0,0.0,0.0,0.0,0.0,0.0,0.0,0.0,0.0,0.0,0.0,0.0,0.0,0.0,0.0,0.0,0.0,0.0,0.0,0.0,0.0,0.0,0.0,0.0,0.0,0.0,0.0,0.0,0.0,0.0,0.0,0.0,0.0,0.0,0.0,0.0,0.0,0.0,0.0,0.0,0.0,0.0,0.0,0.0,0.0,0.0,0.0,0.0,0.0,0.0,0.0,0.0,0.0,0.0,0.0,0.0,0.0,0.0,0.0,0.0,0.0,0.0,0.0,0.0,0.0,0.0,0.0,0.0,0.0,0.0,0.0,0.0,0.0,0.0,0.0,0.0,0.0,0.0,0.0,0.0,0.0,0.0,0.0,0.0,0.0,0.0,0.0,0.0,0.0,0.0,0.0,0.0,0.0,0.0,0.0,0.0,0.0,0.0,0.0,0.0,0.0,0.0,0.0,0.0,0.0,0.0,0.0,0.0,0.0,0.0,0.0,0.0,0.0,0.0,0.0,0.0,0.0,0.0,0.0,0.0,0.0,0.0,0.0,0.0,0.0,0.0,0.0,0.0,0.0,0.0,0.0,0.0,0.0,0.0,0.0,0.0,0.0,0.0,0.0,0.0,0.0,0.0,0.0,0.0,0.0,0.0,0.0,0.0,0.0,0.0,0.0,0.0,0.0,0.0,0.0,0.0,0.0,0.0,0.0,0.0,0.0,0.0,0.0,0.0,0.0,0.0,0.0,0.0,0.0,0.0,0.0,0.0,0.0,0.0,0.0,0.0,0.0,0.0,0.0,0.0,0.0,0.0,0.0,0.0,0.0,0.0,0.0,0.0,0.0,0.0,0.0,0.0,0.0,0.0,0.0,0.0,0.0,0.0,0.0,0.0,0.0,0.0,0.0,0.0,0.0,0.0,0.0,0.0,0.0,0.0,0.0,0.0,0.0,0.0,0.0,0.0,0.0,0.0,0.0,0.0,0.0,0.0,0.0,0.0,0.0,0.0,0.0,0.0,0.0,0.0,0.0,0.0,0.0,0.0,0.0,0.0,0.0,0.0,0.0,0.0,0.0,0.0,0.0,0.0,0.0,0.0,0.0,0.0,0.0,0.0,0.0,0.0,0.0,0.0,0.0,0.0,0.0,0.0,0.0,0.0,0.0,0.0,0.0,0.0,0.0,0.0,0.0,0.0,0.0,0.0,0.0,0.0,0.0,0.0,0.0,0.0,0.0,0.0,0.0,0.0,0.0,0.0,0.0,0.0,0.0,0.0,0.0,0.0,0.0,0.0,0.0,0.0,0.0,0.0,0.0,0.0,0.0,0.0,0.0,0.0,0.0,0.0,0.0,0.0,0.0,0.0,0.0,0.0,0.0,0.0,0.0,0.0,0.0,0.0,0.0,0.0,0.0,0.0,0.0,0.0,0.0,0.0,0.0,0.0,0.0,0.0,0.0,0.0,0.0,0.0,0.0,0.0,0.0,0.0,0.0,0.0,0.0,0.0,0.0,0.0,0.0,0.0,0.0,0.0,0.0,0.0,0.0,0.0,0.0,0.0,0.0,0.0,0.0,0.0,0.0,0.0,0.0,0.0,0.0,0.0,0.0,0.0,0.0,0.0,0.0,0.0,0.0,0.0,0.0,0.0,0.0,0.0,0.0,0.0,0.0,0.0,0.0,0.0,0.0,0.0,0.0,0.0,0.0,0.0,0.0,0.0,0.0,0.0,0.0,0.0,0.0,0.0,0.0,0.0,0.0,0.0,0.0,0.0,0.0,0.0,0.0,0.16,0.0,0.0,0.0,0.0,0.0,0.0,0.0,0.0,0.0,0.0,0.0,0.0,0.0,0.0,0.0,0.0,0.0,0.0,0.0,0.0,0.0,0.0,0.0,0.0,0.0,0.0,0.0,0.0,0.0,0.0,0.0,0.0,0.0,0.0,0.0,0.0,0.0,0.0,0.0,0.0,0.0,0.0,0.0,0.0,0.0,0.0,0.0,0.0,0.0,0.0,0.0,0.0,0.0,0.0,0.0,0.0,0.0,0.0,0.0,0.0,0.0,0.0,0.0,0.0,0.0,0.0,0.0,0.0,0.0,0.0,0.0,0.0,0.0,0.0,0.0,0.0,0.0,0.0,0.0,0.0,0.0,0.0,0.0,0.0,0.0,0.0,0.0,0.0,0.0,0.0,0.0,0.0,0.0,0.0,0.0,0.0,0.0,0.0,0.0,0.0,0.0,0.0,0.0,0.0,0.0,0.0,0.0,0.0,0.0,0.0,0.0,0.0,0.0,0.0,0.0,0.0,0.1955,0.0,0.0,0.0,0.0,0.0,0.0,0.0,0.0,0.0,0.0,0.0,0.0,0.0,0.0,0.0,0.0,0.0,0.0,0.0,0.0,0.0,0.0,0.0,0.0,0.0,0.0,0.0,0.0,0.0,0.0,0.0,0.0,0.0,0.0,0.0,0.0,0.0,0.0,0.0,0.0,0.0,0.0,0.0,0.0,0.0,0.0,0.0,0.0,0.0,0.0,0.0,0.0,0.0,0.0,0.0,0.0,0.0,0.0,0.0,0.0,0.0,0.0,0.0,0.0,0.0,0.0,0.0,0.0,0.0,0.0,0.0,0.0,0.0,0.0,0.0,0.0,0.0,0.0,0.0,0.0,0.0,0.0,0.0,0.0,0.0,0.0,0.0,0.0,0.0,0.0,0.0,0.0,0.0,0.0,0.0,0.0,0.0,0.0,0.0,0.0,0.0,0.0,0.0,0.0,0.0,0.0,0.0,0.0,0.0,0.0,0.0,0.0,0.0582,0.159,0.1779,0.2491,0.3479,0.255,0.0,0.0,0.0,0.0,0.0,0.0,0.0,0.0,0.0,0.0,0.0,0.0,0.0,0.0,0.0,0.0,0.0,0.0,0.0,0.0,0.0,0.0,0.0,0.0,0.0,0.0,0.0,0.0,0.0,0.0,0.0,0.0,0.0,0.0,0.0,0.0,0.0,0.0,-1.0161,-1.0475,-0.9902,-0.8664,-0.85,0.0,0.0,0.0,0.0,0.0,0.0,0.0,0.0,0.0,0.0,0.0,0.0,0.0,0.0,0.0,0.0,0.0,0.0,0.0,0.0,0.0,0.0,0.0,0.0,0.0,0.0,0.0,0.0,0.0,0.0,0.0,0.0,0.0,0.0,0.0,0.0,0.0,0.0,0.0,0.0,0.0,0.0,0.0,0.2162,0.1387,0.0,0.0,0.0,0.0,0.0,0.0,0.0,0.0,0.0,0.0,0.0,0.0,0.0,0.0348,0.04,0.0138,0.0,0.0,0.0,0.0,0.0,0.0,0.0595,0.1644,0.2571,0.0,0.3316,0.4078,0.0,0.0,0.0,0.0,0.0,0.0,0.0,0.0,0.0,0.0,0.0,0.0,0.0,0.0,0.0,0.0,0.0,0.0,0.0,0.0,0.0,0.0,0.0,0.0,0.0,0.0,0.0,0.0,0.0,0.0,0.0,0.0,0.0,0.0,0.0,0.0,-1.1397,-1.1671,-1.1624,-1.177,-1.1296,-1.024,-0.9653,-0.8959,-0.8184,-0.6998,0.0,0.0,0.0,0.0,0.0,0.0,0.0,0.0,0.0,0.0,0.0,0.0,0.0,0.0,0.0,0.0,0.0,0.0,0.0,0.0,0.0,0.0,0.0,0.0,0.0,0.0,0.0,0.0,0.0,0.0,0.0,0.0,0.0,0.0,0.0,0.0,0.0,0.0,0.0,0.1799,0.1689,0.1303,0.1217,0.1191,0.0,0.0,0.0,0.0,0.0,0.0,0.0,0.0,0.0,0.1007,0.078,0.0605,0.0624,0.0342,0.0148,0.0,0.0,0.0,0.0,0.0,0.0252,0.0807,0.2469,0.3179,0.329,0.435,0.4243,0.3342,0.0,0.0,0.0,0.0,0.3002,0.3311,0.0,0.0,0.0,0.0,0.0,0.0,0.0,0.0,0.0,0.0,0.0,0.0,0.0,0.0,0.0,-1.1157,0.0,0.0,0.0,0.0,0.0,0.0,0.0,0.0,0.0,0.0,0.0,0.0,-1.1881,-1.2242,-1.2813,-1.2813,-1.2214,-1.117,-1.0391,-0.9392,-0.8311,-0.7119,-0.644,0.0,0.0,0.0,0.0,0.0,0.0,0.0,0.0,0.0,0.0,0.0,0.0,0.0,0.0,0.0,0.0,0.0,0.0,0.0,0.0,0.0,0.0,0.0,0.0,0.0,0.0,0.0,0.0,0.0,0.0,0.0,0.0,0.0,0.0,0.0,0.0,0.0,0.0,0.1406,0.1532,0.1265,0.1257,0.1247,0.0,0.0,0.0,0.0,0.0,0.0,0.1192,0.1067,0.1099,0.1305,0.1065,0.0884,0.0909,0.0657,0.0404,0.0202,0.0152,0.0101,0.0101,0.0051,0.0303,0.0908,0.2519,0.3525,0.4064,0.4901,0.505,0.473,0.3902,0.3619,0.3653,0.3972,0.4293,0.4719,0.0,0.0,0.0,0.0,0.0,0.0,0.0,0.0,0.0,0.0,0.0,0.0,0.0,0.0,-1.3097,-1.3395,-1.2343,-1.1268,0.0,0.0,0.0,0.0,0.0,0.0,0.0,0.0,0.0,-1.1698,-1.2377,-1.2775,-1.2813,-1.2813,-1.2214,-1.1219,-1.1121,-0.996,-0.7926,-0.6529,-0.5951,-0.588,0.0,0.0,0.0,0.0,0.0,0.0,0.0,0.0,0.0,0.0,0.0,0.0,0.0,0.0,0.0,0.0,0.0,0.0,0.0,0.0,0.0,0.0,0.0,0.0,0.0,0.0,0.0,0.0,0.0,0.0,0.0,0.0,0.0,0.0,0.0,0.0,0.0,0.0,0.0,0.1511,0.1431,0.0,0.0,0.0,0.0,0.1299,0.137,0.1414,0.1473,0.1457,0.15,0.156,0.131,0.116,0.1162,0.0909,0.0758,0.0758,0.0505,0.0404,0.0354,0.0101,0.111,0.3022,0.3173,0.4377,0.6234,0.6315,0.5724,0.4796,0.4734,0.4249,0.3758,0.5027,0.5684,0.6098,0.0,0.0,0.0,0.0,0.0,0.0,0.0,0.0,0.0,0.0,0.0,0.0,0.0,-1.3726,-1.4235,-1.3419,-1.3349,-1.2838,-1.1519,0.0,0.0,0.0,0.0,0.0,0.0,0.0,-1.1752,-1.2429,-1.2689,-1.2813,-1.2813,-1.2813,-1.2214,-1.117,-1.0489,-0.9353,-0.7965,-0.7466,-0.7149,-0.6836,-0.5934,-0.5189,0.0,0.0,0.0,0.0,0.0,0.0,0.0,0.0,0.0,0.0,0.0,0.0,0.0,0.0,0.0,0.0,0.0,0.0,0.0,0.0,0.0,0.0,0.0,0.0,0.0,0.0,0.0,0.0,0.0,0.0,0.0,0.0,0.0,0.0,0.0,0.0,0.0,0.1371,0.1433,0.0,0.1328,0.1406,0.1433,0.1433,0.1497,0.1545,0.1567,0.1579,0.1594,0.1616,0.1516,0.1364,0.1212,0.1111,0.096,0.0808,0.0707,0.0657,0.0657,0.0556,0.1211,0.247,0.3323,0.4427,0.5682,0.6534,0.6509,0.5807,0.5807,0.5878,0.597,0.6438,0.6924,0.7333,0.0,0.0,0.0,0.0,0.0,0.0,0.0,0.0,0.0,0.0,0.0,0.0,-1.3579,-1.4658,-1.5149,-1.4501,-1.4172,-1.352,-1.2299,0.0,0.0,0.0,0.0,0.0,0.0,-1.1612,-1.2129,-1.2813,-1.2813,-1.2813,-1.2813,-1.2813,-1.2214,-1.117,-1.0096,-0.9011,-0.7971,-0.7627,-0.732,-0.7061,-0.6273,-0.5549,-0.4895,0.0,0.0,0.0,0.0,0.0,0.0,0.0,0.0,0.0,0.0,0.0,0.0,0.0,0.0,0.0,0.0,0.0,0.0,0.0,0.0,0.0,0.0,0.0,0.0,0.0,0.0,0.0,0.0,0.0,0.0,0.0,0.0,0.0,0.0,0.0,0.1451,0.1329,0.1459,0.1495,0.1372,0.148,0.1527,0.1527,0.1583,0.1617,0.1617,0.1617,0.1617,0.1617,0.1617,0.1516,0.1314,0.1314,0.1263,0.1061,0.096,0.096,0.0909,0.0758,0.1211,0.2169,0.287,0.3825,0.488,0.5632,0.6034,0.6187,0.6537,0.6939,0.7341,0.7341,0.764,0.7988,0.0,0.0,0.0,0.0,0.0,0.0,0.0,0.0,0.0,0.0,0.0,0.0,0.0,0.0,0.0,0.0,0.0,0.0,0.0,0.0,0.0,0.0,0.0,0.0,-1.1688,-1.1991,-1.2343,-1.2813,-1.2813,-1.2813,-1.2813,-1.2813,-1.2262,-1.1219,-1.0096,-0.9011,-0.7971,-0.6883,-0.6387,-0.6368,-0.6187,-0.581,-0.5368,0.0,0.0,0.0,0.0,0.0,0.0,0.0,0.0,0.0,0.0,0.0,0.0,0.0,0.0,0.0,0.0,0.0,0.0,0.0,0.0,0.0,0.0,0.0,0.0,0.0,0.0,0.0,0.0,0.0,0.0,0.0,0.0,0.0,0.1322,0.1429,0.1463,0.1404,0.1527,0.1594,0.1487,0.1582,0.1617,0.1617,0.1617,0.1617,0.1617,0.1618,0.1618,0.1618,0.1619,0.162,0.162,0.162,0.1569,0.1569,0.1316,0.1164,0.1164,0.0658,0.1112,0.2375,0.1869,0.2524,0.3989,0.3736,0.4388,0.5694,0.6739,0.7341,0.7596,0.7596,0.7793,0.7988,0.0,0.0,0.0,0.0,0.0,0.0,0.0,0.0,0.0,0.0,0.0,0.0,0.0,0.0,0.0,0.0,0.0,0.0,0.0,0.0,0.0,0.0,0.0,0.0,-1.1986,-1.2402,-1.2678,-1.2813,-1.2813,-1.2813,-1.2813,-1.2813,-1.2662,-1.2262,-1.0444,-0.946,-0.9065,-0.7179,-0.6387,-0.6381,-0.6317,-0.6045,-0.5601,0.0,0.0,0.0,0.0,0.0,0.0,0.0,0.0,0.0,0.0,0.0,0.0,0.0,0.0,0.0,0.0,0.0,0.0,0.0,0.0,0.0,0.0,0.0,0.0,0.0,0.0,0.0,0.0,0.0,0.0,0.0,0.0,0.1498,0.1451,0.1522,0.1573,0.1556,0.1592,0.161,0.1594,0.1607,0.1617,0.1617,0.1617,0.1617,0.1617,0.1638,0.165,0.165,0.1669,0.168,0.168,0.1471,0.1367,0.1367,0.1052,0.0894,0.0894,0.0736,0.1208,0.2152,0.2412,0.2987,0.3717,0.4081,0.4864,0.5789,0.5946,0.6689,0.7596,0.7596,0.7793,0.7988,0.0,0.0,0.0,0.0,0.0,0.0,0.0,0.0,0.0,0.0,0.0,0.0,0.0,0.0,0.0,0.0,0.0,0.0,0.0,0.0,0.0,0.0,0.0,-1.1903,-1.2386,-1.2667,-1.2813,-1.2813,-1.2813,-1.2813,-1.2813,-1.2813,-1.2559,-1.2068,-1.0346,-0.9361,-0.8814,-0.7132,-0.6387,-0.6387,-0.6287,-0.6012,-0.5644,-0.5458,-0.5066,-0.458,-0.4315,-0.4204,-0.4183,-0.3926,0.0,0.0,0.0,0.0,0.0,0.0,0.0,0.0,0.0,0.0,0.0,0.0,0.0,0.0,0.0,0.0,0.0,0.0,0.0,0.0,0.0,0.0,0.0,0.0,0.1513,0.1558,0.154,0.1583,0.1617,0.1617,0.1617,0.1622,0.1635,0.1636,0.1641,0.1652,0.1654,0.1654,0.1654,0.167,0.168,0.168,0.1696,0.1704,0.1704,0.1546,0.1493,0.144,0.1279,0.1173,0.1173,0.1066,0.1332,0.1864,0.2023,0.2342,0.2871,0.3613,0.4567,0.0,0.0,0.0,0.0,0.0,0.7871,0.8024,0.0,0.0,0.0,0.0,0.0,0.0,0.0,0.0,0.0,0.0,0.0,0.0,0.0,0.0,0.0,0.0,0.0,0.0,0.0,0.0,0.0,-1.1645,-1.1779,-1.2118,-1.2797,-1.2813,-1.2813,-1.2813,-1.2813,-1.2813,-1.2813,-1.2662,-1.2116,-1.117,-0.9948,-0.8913,-0.7922,-0.6833,-0.6387,-0.6387,-0.6089,-0.5839,-0.5565,-0.5434,-0.5079,-0.4581,-0.4418,-0.4312,-0.4242,-0.4214,0.0,0.0,0.0,0.0,0.0,0.0,0.0,0.0,0.0,0.0,0.0,0.0,0.0,0.0,0.0,0.0,0.0,0.0,0.0,0.0,0.0,0.0,0.0,0.0,0.1582,0.1623,0.1626,0.1626,0.1626,0.1622,0.1625,0.1637,0.1717,0.1719,0.1677,0.1703,0.1704,0.1704,0.1704,0.0,0.0,0.0,0.0,0.1714,0.1714,0.1661,0.1661,0.1661,0.1607,0.1607,0.1607,0.1339,0.1392,0.1607,0.1126,0.1287,0.1874,0.2729,0.3956,0.5284,0.5898,0.674,0.7753,0.796,0.8065,0.8115,0.0,0.0,0.0,0.0,0.0,0.0,0.0,0.0,0.0,0.0,0.0,0.0,0.0,0.0,0.0,0.0,0.0,0.0,0.0,0.0,0.0,-1.1688,-1.2253,-1.2672,-1.2807,-1.2813,-1.2813,-1.2813,-1.2813,-1.2813,-1.2759,-1.1917,-1.1419,-1.1121,-0.9156,-0.817,-0.7922,-0.6833,-0.6387,-0.6387,-0.6089,-0.5839,-0.5582,-0.5347,-0.5034,-0.4779,-0.4693,-0.4671,-0.4673,-0.441,-0.4328,-0.4275,-0.4061,0.0,0.0,0.0,0.0,0.0,0.0,0.0,0.0,0.0,0.0,0.0,0.0,0.0,0.0,0.0,0.0,0.0,0.0,0.0,0.0,0.1555,0.1613,0.1662,0.1684,0.1687,0.1679,0.1656,0.1673,0.169,0.1695,0.1696,0.1698,0.1704,0.1704,0.1704,0.1704,0.1727,0.1795,0.1795,0.1765,0.1778,0.1778,0.1499,0.1388,0.1388,0.0,0.0,0.1055,0.1,0.1,0.1055,0.1166,0.172,0.2548,0.2935,0.426,0.6174,0.7502,0.8111,0.8325,0.8377,0.8377,0.843,0.0,0.0,0.0,0.0,0.0,0.0,0.0,0.0,0.0,0.0,0.0,0.0,0.0,0.0,0.0,0.0,0.0,0.0,0.0,0.0,0.0,-1.2215,-1.2618,-1.2813,-1.2813,-1.2813,-1.2813,-1.2813,-1.2813,-1.2813,-1.2759,-1.1717,-1.0925,-1.0337,-0.8711,-0.7726,-0.7179,-0.6634,-0.6387,-0.6387,-0.5937,-0.5737,-0.5586,-0.5288,-0.5037,-0.4784,-0.4784,-0.4784,-0.4764,-0.4631,-0.4586,-0.4468,-0.3824,-0.3256,-0.2667,0.0,0.0,0.0,0.0,0.0,0.0,0.0,0.0,0.0,0.0,0.0,0.0,0.0,0.0,0.1427,0.0,0.0,0.1586,0.163,0.1663,0.1688,0.1702,0.1718,0.1716,0.1686,0.1696,0.171,0.1725,0.1727,0.1733,0.1748,0.175,0.175,0.175,0.1764,0.1828,0.1828,0.1787,0.1795,0.1795,0.1627,0.157,0.157,0.1402,0.1346,0.1346,0.1346,0.1346,0.1402,0.2129,0.2742,0.3243,0.4582,0.6086,0.7692,0.8384,0.8494,0.8275,0.8433,0.8487,0.8545,0.0,0.0,0.0,0.0,0.0,0.0,0.0,0.0,0.0,0.0,0.0,0.0,0.0,0.0,0.0,0.0,0.0,0.0,0.0,0.0,0.0,0.0,0.0,-1.271,-1.2511,-1.2511,-1.2414,-1.217,-1.217,-1.217,-1.217,-1.1077,-1.0141,-0.9262,-0.817,-0.7229,-0.6387,-0.6387,-0.6387,-0.6287,-0.5787,-0.5586,-0.5486,-0.5238,-0.4987,-0.4784,-0.4784,-0.4784,-0.4784,-0.4784,-0.4784,-0.4634,-0.3776,-0.2977,-0.2047,-0.0842,0.0043,0.0,0.0,0.0,0.0,0.0,0.0,0.0,0.0,0.0,0.1376,0.1425,0.1467,0.151,0.1583,0.1618,0.1651,0.1705,0.1713,0.1715,0.1721,0.1743,0.1804,0.1725,0.1722,0.1731,0.1811,0.1814,0.1823,0.1793,0.1795,0.1795,0.1795,0.1795,0.1795,0.1795,0.1795,0.1795,0.1795,0.1795,0.1795,0.1795,0.1795,0.1795,0.1795,0.1795,0.1907,0.2242,0.3638,0.4306,0.4418,0.6594,0.8045,0.8885,0.8885,0.8602,0.8211,0.8488,0.8598,0.8598,0.0,0.0,0.0,0.0,0.0,0.0,0.0,0.0,0.0,0.0,0.0,0.0,0.0,0.0,0.0,0.0,0.0,0.0,0.0,0.0,0.0,0.0,0.0,0.0,0.0,-1.137,-1.093,-0.9953,-0.9953,-0.9953,-0.9953,-0.8863,-0.8319,-0.8124,-0.7083,-0.6537,-0.6387,-0.6387,-0.6287,-0.6042,-0.5737,-0.5438,-0.524,-0.4937,-0.4834,-0.4784,-0.4784,-0.4784,-0.4784,-0.4784,-0.4784,-0.4784,-0.4684,-0.4562,-0.4081,-0.2191,0.0,-0.1059,0.0735,0.1236,0.1325,0.1357,0.1356,0.1337,0.0,0.0,0.1522,0.1663,0.1654,0.1677,0.1687,0.1692,0.1705,0.1793,0.1799,0.1809,0.1781,0.1788,0.1789,0.1785,0.1785,0.1786,0.179,0.179,0.1791,0.1795,0.1795,0.1795,0.1795,0.1795,0.1795,0.1795,0.1795,0.1795,0.1795,0.1795,0.1795,0.1795,0.1795,0.1795,0.1795,0.1795,0.2409,0.3525,0.5757,0.6705,0.6816,0.8156,0.8771,0.8885,0.8885,0.8881,0.8826,0.8826,0.8881,0.8881,0.0,0.0,0.0,0.0,0.0,0.0,0.0,0.0,0.0,0.0,0.0,0.0,0.0,0.0,0.0,0.0,0.0,0.0,0.0,0.0,0.0,0.0,0.0,0.0,0.0,0.0,-1.0681,-0.9608,-0.9608,-0.9608,-0.9558,-0.8517,-0.8021,-0.7971,-0.6883,-0.6387,-0.6387,-0.6387,-0.6239,-0.5992,-0.5687,-0.5438,-0.519,-0.4887,-0.4431,-0.3867,-0.3929,-0.3947,0.0,0.0,-0.2973,-0.2885,-0.22,-0.2033,-0.1783,-0.0364,0.0045,0.0,0.1136,0.1378,0.0,0.0,0.1474,0.1498,0.1573,0.1584,0.1599,0.1671,0.171,0.1785,0.1785,0.1745,0.1761,0.0,0.1776,0.178,0.1793,0.1795,0.1795,0.1795,0.1795,0.1795,0.1795,0.1795,0.1795,0.1795,0.1795,0.1795,0.1795,0.1795,0.1795,0.1795,0.1795,0.1795,0.1795,0.1795,0.1795,0.1795,0.1795,0.1795,0.1795,0.1795,0.2856,0.4751,0.6369,0.7487,0.8214,0.8716,0.8885,0.8885,0.8885,0.8885,0.8885,0.8885,0.8885,0.8885,0.0,0.0,0.0,0.0,0.0,0.0,0.0,0.0,0.0,0.0,0.0,0.0,0.0,0.0,0.0,0.0,0.0,0.0,0.0,0.0,0.0,0.0,0.0,0.0,0.0,0.0,0.0,-0.916,-0.8863,-0.8715,-0.8715,-0.7922,-0.7577,-0.7528,-0.6734,-0.6387,-0.6387,-0.6387,-0.6187,-0.5889,-0.5687,-0.5386,-0.5037,-0.4533,-0.3902,-0.3212,-0.3267,-0.309,0.0,0.0,-0.1731,-0.1599,-0.0774,-0.0527,-0.0371,0.0624,0.1137,0.1399,0.1414,0.0,0.0,0.1521,0.1568,0.1648,0.1607,0.1632,0.1665,0.1708,0.1741,0.1817,0.1817,0.178,0.1795,0.1795,0.1795,0.1795,0.1795,0.1795,0.1795,0.1795,0.1795,0.1795,0.1795,0.1795,0.1795,0.1795,0.1795,0.1795,0.1795,0.1795,0.1795,0.1795,0.1795,0.1795,0.1795,0.1795,0.1795,0.1795,0.1795,0.1963,0.2297,0.2968,0.4195,0.5919,0.7093,0.81,0.8885,0.8885,0.8885,0.8885,0.8885,0.8885,0.8885,0.8885,0.8885,0.8885,0.0,0.0,0.0,0.0,0.0,0.0,0.0,0.0,0.0,0.0,0.0,0.0,0.0,0.0,0.0,0.0,0.0,0.0,0.0,0.0,0.0,0.0,0.0,0.0,0.0,0.0,0.0,0.0,-0.7033,-0.6484,-0.6484,-0.6487,-0.6437,-0.6437,-0.6437,-0.6387,-0.6387,-0.6387,-0.6087,-0.5636,-0.5586,-0.5286,-0.4684,-0.3626,-0.325,-0.3285,-0.3282,0.0,0.0,0.0,-0.1793,-0.1794,-0.1751,-0.175,0.0,-0.0554,0.049,0.0,0.0,0.0,0.1411,0.1547,0.1666,0.1719,0.1694,0.1724,0.1801,0.1802,0.1772,0.1793,0.1793,0.1794,0.1795,0.1795,0.1795,0.1795,0.1795,0.1795,0.1795,0.1795,0.1795,0.1795,0.0,0.1795,0.1795,0.1795,0.1795,0.1795,0.1795,0.1795,0.1795,0.1795,0.1795,0.1795,0.1795,0.1795,0.1795,0.1795,0.1795,0.2409,0.3636,0.5924,0.6985,0.7096,0.8325,0.8881,0.8885,0.8885,0.8885,0.8885,0.8885,0.8885,0.8885,0.8885,0.8885,0.8885,0.0,0.0,0.0,0.0,0.0,0.0,0.0,0.0,0.0,0.0,0.0,0.0,0.0,0.0,0.0,0.0,0.0,0.0,0.0,0.0,0.0,0.0,0.0,0.0,0.0,0.0,0.0,0.0,0.0,-0.6387,-0.6387,-0.6387,-0.6387,-0.6387,-0.6387,-0.6387,-0.6387,-0.6189,-0.5939,-0.5584,-0.5388,-0.4684,-0.3717,-0.3379,-0.2404,-0.118,0.0,0.0,0.0,0.0,0.0,0.0,0.0304,0.0,0.0,0.0649,0.1016,0.1331,0.1346,0.0,0.1543,0.1665,0.1728,0.1776,0.1786,0.1758,0.178,0.178,0.1741,0.1712,0.1731,0.172,0.1713,0.1732,0.1769,0.1795,0.1795,0.1795,0.1795,0.1795,0.1795,0.0,0.0,0.0,0.0,0.1795,0.1795,0.1795,0.1795,0.1795,0.1795,0.1795,0.1795,0.1795,0.1795,0.1795,0.1795,0.1795,0.1795,0.2856,0.4804,0.5586,0.6369,0.7152,0.838,0.8885,0.8885,0.8885,0.8885,0.8885,0.8885,0.8885,0.8885,0.8885,0.8885,0.8885,0.0,0.0,0.0,0.0,0.0,0.0,0.0,0.0,0.0,0.0,0.0,0.0,0.0,0.0,0.0,0.0,0.0,0.0,0.0,0.0,0.0,0.0,0.0,0.0,0.0,0.0,0.0,0.0,0.0,-0.6158,-0.6249,-0.6327,-0.6387,-0.6387,-0.6387,-0.6387,-0.6387,-0.6089,-0.5671,-0.5076,-0.4789,-0.3909,-0.2692,-0.2346,-0.1399,0.0,0.0,0.0,0.0,0.0,0.0,0.0,0.0,0.1308,0.1287,0.1289,0.1317,0.1323,0.1401,0.1519,0.1639,0.166,0.1767,0.1807,0.1818,0.1781,0.1795,0.1795,0.1724,0.172,0.1686,0.1675,0.1713,0.1657,0.1716,0.1763,0.1763,0.1763,0.177,0.1793,0.1795,0.1795,0.0,0.0,0.0,0.1795,0.1795,0.1795,0.1795,0.1795,0.1795,0.1795,0.1795,0.1795,0.1795,0.1795,0.2019,0.2465,0.2856,0.4137,0.6031,0.6475,0.7035,0.7765,0.8549,0.8885,0.8885,0.8885,0.8885,0.8885,0.8885,0.8885,0.8885,0.8885,0.8885,0.8885,0.0,0.0,0.0,0.0,0.0,0.0,0.0,0.0,0.0,0.0,0.0,0.0,0.0,0.0,0.0,0.0,0.0,0.0,0.0,0.0,0.0,0.0,0.0,0.0,0.0,0.0,0.0,0.0,0.0,-0.576,-0.5874,-0.6219,-0.6333,-0.6333,-0.6333,-0.6333,-0.6333,-0.5988,-0.5223,-0.4127,-0.3811,-0.2925,-0.1719,-0.0712,0.0,0.0,0.0,0.0,0.0,0.0,0.0,0.0,0.0,0.1242,0.1318,0.1296,0.1313,0.1339,0.1452,0.1554,0.1599,0.1685,0.1729,0.1814,0.1789,0.1795,0.1793,0.1789,0.1718,0.1706,0.0,0.0,0.1688,0.163,0.1649,0.1709,0.1709,0.1709,0.1731,0.0,0.0,0.0,0.0,0.0,0.0,0.1795,0.0,0.1795,0.1795,0.1795,0.1795,0.1795,0.1795,0.1795,0.1795,0.1851,0.2521,0.3804,0.486,0.6031,0.721,0.8325,0.883,0.8885,0.8885,0.8885,0.8885,0.8885,0.8885,0.8885,0.8885,0.8885,0.8885,0.8885,0.8885,0.8885,0.0,0.0,0.0,0.0,0.0,0.0,0.0,0.0,0.0,0.0,0.0,0.0,0.0,0.0,0.0,0.0,0.0,0.0,0.0,0.0,0.0,0.0,0.0,0.0,0.0,0.0,0.0,0.0,0.0,-0.5341,-0.5374,-0.5556,-0.564,0.0,-0.564,-0.564,-0.5597,-0.4625,-0.4013,-0.3651,0.0,-0.1703,-0.0669,0.0,0.0,0.0,0.0,0.0,0.0,0.0,0.0,0.0,0.0,0.1365,0.1397,0.1436,0.1463,0.145,0.1573,0.1631,0.1681,0.178,0.1761,0.1785,0.1793,0.1795,0.1776,0.171,0.1624,0.1547,0.0,0.0,0.0,0.162,0.1684,0.0,0.1772,0.1772,0.0,0.1793,0.0,0.1795,0.1795,0.1795,0.0,0.0,0.1795,0.1795,0.1795,0.1795,0.1795,0.1795,0.1795,0.1795,0.1795,0.2688,0.4195,0.6202,0.5641,0.6478,0.8436,0.7823,0.8045,0.8885,0.8885,0.8885,0.8885,0.8885,0.8885,0.8885,0.8885,0.8885,0.8885,0.8885,0.8885,0.8898,0.0,0.0,0.0,0.0,0.0,0.0,0.0,0.0,0.0,0.0,0.0,0.0,0.0,0.0,0.0,0.0,0.0,0.0,0.0,0.0,0.0,0.0,0.0,0.0,0.0,0.0,0.0,0.0,0.0,0.0,0.0,-0.5199,-0.5331,-0.5333,-0.5385,-0.541,-0.5327,0.0,0.0,0.0,0.0,0.0,0.0,0.0,0.0,0.0,0.0,0.0,0.0,0.0,0.0,0.1366,0.1374,0.142,0.1461,0.1491,0.0,0.1559,0.162,0.1669,0.1712,0.1796,0.1773,0.1785,0.1746,0.1737,0.1707,0.1654,0.1521,0.0,0.0,0.0,0.0,0.0,0.0,0.0,0.1755,0.1755,0.1765,0.0,0.1795,0.0,0.1795,0.1795,0.1795,0.0,0.1795,0.1795,0.1795,0.1795,0.1795,0.1795,0.2297,0.2856,0.3358,0.4026,0.5308,0.7096,0.6424,0.7093,0.8881,0.8214,0.8269,0.8885,0.0,0.8885,0.8885,0.8885,0.8885,0.8885,0.8885,0.8885,0.8885,0.8885,0.8977,0.9045,0.0,0.0,0.0,0.0,0.0,0.0,0.0,0.0,0.0,0.0,0.0,0.0,0.0,0.0,0.0,0.0,0.0,0.0,0.0,0.0,0.0,0.0,0.0,0.0,0.0,0.0,0.0,0.0,0.0,0.0,0.0,0.0,0.0,0.0,0.0,0.0,0.0,0.0,0.0,0.0,0.0,0.0,0.0,0.0,0.0,0.0,0.0,0.0,0.0,0.0,0.1329,0.1404,0.1416,0.1459,0.151,0.154,0.1566,0.1648,0.1714,0.1692,0.1712,0.1802,0.1776,0.1772,0.1735,0.1714,0.1676,0.1495,0.0,0.1374,0.13,0.1383,0.1443,0.1408,0.0,0.1703,0.1714,0.1716,0.1736,0.1789,0.1795,0.1795,0.1795,0.1795,0.1795,0.1795,0.1963,0.2018,0.2018,0.2186,0.2298,0.2298,0.3301,0.4416,0.5639,0.5641,0.62,0.7321,0.7321,0.7878,0.8885,0.8885,0.8885,0.8885,0.8885,0.8885,0.8885,0.8885,0.8885,0.8885,0.8885,0.8885,0.8885,0.8885,0.9028,0.9214,0.0,0.0,0.0,0.0,0.0,0.0,0.0,0.0,0.0,0.0,-0.7112,-0.7112,0.0,0.0,0.0,0.0,0.0,0.0,0.0,0.0,0.0,0.0,0.0,0.0,0.0,0.0,0.0,0.0,0.0,0.0,0.0,0.0,0.0,0.0,0.0,0.0,0.0,0.0,0.0,0.0,0.0,0.0,0.0,0.0,0.0,0.0,0.0,0.0,0.0,0.0,0.14,0.1478,0.1553,0.1602,0.1688,0.1665,0.166,0.1717,0.1749,0.1739,0.1718,0.1774,0.1791,0.1772,0.1735,0.1714,0.0,0.0,0.1379,0.1297,0.1283,0.1331,0.1364,0.1449,0.0,0.0,0.0,0.0,0.1783,0.0,0.0,0.0,0.0,0.0,0.0,0.0,0.0,0.3301,0.3301,0.4249,0.4749,0.4749,0.4972,0.5641,0.6816,0.6816,0.7429,0.8602,0.8602,0.8716,0.8885,0.8885,0.8885,0.8885,0.8885,0.0,0.8885,0.8885,0.8885,0.8885,0.8885,0.8885,0.8885,0.8885,0.9028,0.9228,0.0,0.0,0.0,0.0,0.0,0.0,0.0,-0.6826,-0.6902,-0.6902,-0.6902,-0.695,-0.7095,-0.6837,0.0,0.0,0.0,0.0,0.0,0.0,0.0,0.0,0.0,0.0,0.0,0.0,0.0,0.0,0.0,0.0,0.0,0.0,0.0,0.0,0.0,0.0,0.0,0.0,0.0,0.0,0.0,0.0,0.0,0.0,0.0,0.0,0.0,0.0,0.0,0.0,0.1381,0.1497,0.1588,0.1648,0.1684,0.1683,0.1683,0.1697,0.1755,0.1738,0.1719,0.178,0.1795,0.1759,0.1622,0.0,0.0,0.0,0.1286,0.1229,0.1239,0.0,0.0,0.0,0.0,0.0,0.0,0.0,0.0,0.0,0.0,0.0,0.0,0.0,0.0,0.0,0.0,0.4249,0.3636,0.4749,0.5695,0.6255,0.6311,0.6871,0.8045,0.8045,0.8325,0.8885,0.8885,0.8885,0.8885,0.8885,0.8885,0.8885,0.8885,0.0,0.8885,0.8885,0.8885,0.8885,0.8885,0.8885,0.8892,0.9022,0.9144,0.935,0.0,0.0,0.0,0.0,0.0,0.0,0.0,-0.6521,-0.6634,-0.6634,-0.6558,-0.6576,-0.6781,-0.6818,-0.6624,0.0,0.0,0.0,0.0,0.0,0.0,0.0,0.0,0.0,0.0,0.0,0.0,0.0,0.0,0.0,0.0,0.0,0.0,0.0,0.0,0.0,0.0,0.0,0.0,0.0,0.0,0.0,0.0,0.0,0.0,0.0,0.0,0.0,0.0,0.0,0.1367,0.1439,0.153,0.1613,0.1673,0.1657,0.1664,0.1688,0.1799,0.1733,0.1719,0.178,0.1795,0.1748,0.1567,0.1478,0.0,0.0,0.1324,0.1431,0.1485,0.0,0.0,0.0,0.0,0.0,0.0,0.0,0.0,0.0,0.0,0.0,0.0,0.0,0.0,0.0,0.0,0.0,0.4751,0.5641,0.6533,0.7432,0.7487,0.7934,0.8881,0.8885,0.8885,0.8885,0.8885,0.8885,0.8885,0.8885,0.8885,0.8885,0.8885,0.0,0.0,0.8885,0.8885,0.8885,0.8885,0.8902,0.8998,0.9169,0.9326,0.9449,0.0,0.0,0.0,0.0,0.0,0.0,0.0,-0.6412,-0.6428,-0.6428,-0.6045,-0.58,-0.5819,-0.5948,-0.5852,0.0,0.0,0.0,0.0,0.0,0.0,0.0,0.0,0.0,0.0,0.0,0.0,0.0,0.0,0.0,0.0,0.0,0.0,0.0,0.0,0.0,0.0,0.0,0.0,0.0,0.0,0.0,0.0,0.0,0.0,0.0,0.0,0.0,0.0,0.0,0.0,0.1252,0.1302,0.147,0.1589,0.1613,0.0,0.0,0.1753,0.1748,0.1719,0.178,0.1795,0.1748,0.1567,0.0,0.0,0.1331,0.1736,0.2149,0.2366,0.2879,0.337,0.0,0.0,0.0,0.0,0.0,0.0,0.0,0.0,0.0,0.0,0.0,0.0,0.0,0.0,0.0,0.8377,0.8546,0.8602,0.8716,0.8716,0.8771,0.8885,0.8885,0.8885,0.8885,0.8885,0.8885,0.8885,0.8885,0.8885,0.8885,0.8885,0.0,0.0,0.8885,0.8885,0.8885,0.8885,0.9018,0.919,0.9204,0.9337,0.9591,0.0,0.0,0.0,0.0,0.0,0.0,-0.5988,-0.5846,-0.5746,-0.5746,-0.5334,-0.509,-0.5262,-0.5187,-0.4964,0.0,0.0,0.0,0.0,0.0,0.0,0.0,0.0,0.0,0.0,0.0,0.0,0.0,0.0,0.0,0.0,0.0,0.0,0.0,0.0,0.0,0.0,0.0,0.0,0.0,0.0,0.0,0.0,0.0,0.0,0.0,0.0,0.0,0.0,0.0,0.0,0.0,0.1233,0.1305,0.0,0.0,0.1568,0.1581,0.1749,0.175,0.1719,0.178,0.1755,0.1839,0.2185,0.0,0.2285,0.2718,0.29,0.3015,0.3085,0.3315,0.353,0.0,0.0,0.0,0.0,0.0,0.0,0.0,0.0,0.0,0.0,0.0,0.0,0.0,0.0,0.0,0.8881,0.8885,0.8885,0.8885,0.8885,0.8885,0.8885,0.8885,0.8885,0.8885,0.8885,0.8885,0.8885,0.8885,0.8885,0.8885,0.8885,0.0,0.0,0.8885,0.8885,0.8892,0.9032,0.9103,0.9231,0.9361,0.9503,0.9622,0.0,0.0,0.0,0.0,0.0,-0.5501,-0.5501,-0.521,-0.5011,-0.5011,-0.4592,-0.4388,-0.4562,-0.4303,-0.3997,-0.3774,0.0,0.0,0.0,0.0,0.0,0.0,0.0,0.0,0.0,0.0,0.0,0.0,0.0,0.0,0.0,0.0,0.0,0.0,0.0,0.0,0.0,0.0,0.0,0.0,0.0,0.0,0.0,0.0,0.0,0.0,0.0,0.0,0.0,0.0,0.0,0.0,0.0,0.0,0.0,0.0,0.1489,0.1523,0.1695,0.1724,0.1719,0.178,0.1728,0.1894,0.0,0.0,0.2803,0.3542,0.3801,0.3877,0.3874,0.4089,0.4259,0.0,0.0,0.4362,0.0,0.0,0.0,0.0,0.0,0.0,0.0,0.0,0.0,0.0,0.0,0.0,0.8885,0.8885,0.8885,0.8885,0.8885,0.8885,0.8885,0.8885,0.8885,0.8885,0.8885,0.8885,0.8885,0.8885,0.8885,0.8885,0.8885,0.0,0.0,0.8885,0.8908,0.9011,0.9169,0.9265,0.9313,0.953,0.9635,0.9686,0.0,0.0,0.0,0.0,0.0,0.0,-0.5009,-0.4622,-0.432,-0.432,-0.3899,-0.3609,-0.3612,-0.3198,-0.2915,-0.2915,0.0,0.0,0.0,0.0,0.0,0.0,0.0,0.0,0.0,0.0,-0.3613,-0.3613,-0.2991,-0.2708,0.0,0.0,0.0,0.0,0.0,0.0,0.0,0.0,0.0,0.0,0.0,0.0,0.0,0.0,0.0,0.0,0.0,0.0,0.0,0.0,0.0,0.0,0.0,0.0,0.0,0.0,0.1346,0.1425,0.1577,0.166,0.1719,0.178,0.1728,0.1894,0.0,0.0,0.2792,0.3392,0.4185,0.4782,0.4782,0.5423,0.604,0.6234,0.5556,0.0,0.0,0.0,0.0,0.0,0.0,0.0,0.0,0.0,0.0,0.0,0.0,0.0,0.8885,0.8885,0.8885,0.8885,0.8885,0.8885,0.8885,0.8885,0.8885,0.8885,0.8885,0.8885,0.8885,0.8885,0.8885,0.8885,0.0,0.0,0.0,0.8885,0.9022,0.9207,0.921,0.9337,0.9605,0.9608,0.9696,0.9819,0.0,0.0,0.0,0.0,0.0,0.0,0.0,-0.4114,-0.3829,-0.3829,-0.3413,-0.3132,-0.3132,-0.2998,-0.289,-0.289,0.0,0.0,0.0,0.0,0.0,0.0,0.0,0.0,0.0,0.0,-0.2794,-0.2378,-0.2181,-0.2097,-0.2069,-0.1902,0.0,0.0,0.0,0.0,0.0,0.0,0.0,0.0,0.0,0.0,0.0,0.0,0.0,0.0,0.0,0.0,0.0,0.0,0.0,0.0,0.0,0.0,0.0,0.0,0.0,0.0,0.1477,0.1522,0.163,0.2342,0.2408,0.2657,0.4039,0.4291,0.4449,0.5253,0.5531,0.5613,0.5613,0.584,0.601,0.6095,0.5998,0.0,0.0,0.0,0.0,0.0,0.0,0.0,0.0,0.0,0.0,0.0,0.0,0.0,0.8885,0.8885,0.8885,0.8885,0.8885,0.8885,0.8885,0.8885,0.8885,0.8885,0.8885,0.8885,0.8885,0.8885,0.8885,0.0,0.0,0.0,0.0,0.9045,0.9169,0.9231,0.9384,0.9523,0.9622,0.972,0.9781,0.9822,0.0,0.0,0.0,0.0,0.0,0.0,0.0,-0.3634,-0.3325,-0.3325,-0.3087,-0.289,-0.289,-0.289,-0.289,-0.289,0.0,0.0,0.0,0.0,0.0,0.0,0.0,0.0,0.0,-0.2443,-0.2179,-0.179,-0.1568,-0.1456,-0.1456,-0.1231,-0.0924,-0.0561,-0.0561,0.0,0.0,0.0,0.0,0.0,0.0,0.0,0.0901,0.0,0.0,0.0,0.0,0.0,0.0,0.0,0.0,0.0,0.0,0.0,0.0,0.0,0.1124,0.0,0.0,0.1646,0.2037,0.264,0.2956,0.0,0.0,0.5058,0.5226,0.603,0.6142,0.6098,0.6003,0.6078,0.6135,0.6186,0.6278,0.0,0.0,0.0,0.0,0.0,0.0,0.0,0.0,0.0,0.0,0.0,0.0,0.0,0.8885,0.8885,0.8885,0.8885,0.8885,0.8885,0.8885,0.8885,0.8885,0.8885,0.8885,0.8885,0.8885,0.8885,0.8885,0.0,0.0,0.0,0.0,0.9173,0.9279,0.9344,0.9537,0.9642,0.97,0.9788,0.9822,0.9879,0.0,0.0,0.0,0.0,0.0,0.0,0.0,0.0,-0.289,-0.289,-0.289,-0.289,-0.289,-0.289,-0.289,-0.289,0.0,0.0,0.0,0.0,0.0,0.0,0.0,0.0,0.0,-0.1955,-0.1706,-0.1679,-0.1121,-0.0842,-0.0814,-0.0252,0.0,0.0,0.0,0.0,0.0056,0.028,0.0589,0.0898,0.0898,0.0898,0.0,0.0,0.0,0.0,0.0,0.0,0.0,0.0,0.0,0.0,0.0,0.0,0.0,0.0,0.0,0.0,0.0,0.0,0.0,0.0,0.0,0.0,0.0,0.5124,0.0,0.5883,0.6162,0.6255,0.6071,0.6162,0.634,0.6474,0.6504,0.0,0.0,0.0,0.0,0.0,0.0,0.0,0.0,0.0,0.0,0.0,0.0,0.0,0.8885,0.8885,0.8885,0.8885,0.8885,0.8885,0.8885,0.8885,0.8885,0.8885,0.8885,0.8885,0.8885,0.8885,0.8888,0.0,0.0,0.0,0.0,0.9238,0.9412,0.9612,0.9622,0.9763,0.9883,0.9883,0.9883,1.0122,0.0,0.0,0.0,0.0,0.0,0.0,0.0,0.0,0.0,0.0,-0.289,-0.289,-0.289,-0.289,-0.289,0.0,0.0,0.0,0.0,0.0,0.0,0.0,0.0,0.0,0.0,-0.1173,-0.0897,-0.042,-0.028,-0.0224,-0.0196,-0.0056,0.0,0.0,0.0,0.0112,0.0308,0.0364,0.0589,0.0898,0.0898,0.0898,0.0,0.0,0.0,0.0,0.1645,0.1879,0.0,0.0,0.0,0.0,0.0,0.0,0.0,0.0,0.1986,0.2226,0.2806,0.0,0.2859,0.4162,0.4627,0.497,0.0,0.6018,0.6054,0.6213,0.0,0.6289,0.6252,0.6276,0.631,0.6344,0.0,0.0,0.0,0.0,0.0,0.0,0.0,0.0,0.0,0.0,0.0,0.0,0.0,0.8885,0.8885,0.8885,0.8885,0.8885,0.8885,0.8885,0.8885,0.8885,0.8885,0.8885,0.8885,0.8885,0.8885,0.8885,0.8998,0.0,0.0,0.0,0.9337,0.9452,0.9721,0.9975,1.0088,1.0336,1.0547,1.0547,1.0547,1.0789,0.0,0.0,0.0,0.0,0.0,0.0,0.0,0.0,0.0,0.0,0.0,0.0,0.0,0.0,0.0,0.0,0.0,0.0,0.0,0.0,0.0,0.0,0.0,0.0,-0.0822,-0.0584,-0.0336,0.0,0.0,0.0,0.0,0.0,0.0,0.0,0.0,0.014,0.0393,0.0393,0.0589,0.0898,0.0898,0.0,0.0,0.0,0.0,0.0,0.2476,0.2614,0.0,0.2213,0.2114,0.2047,0.0,0.0,0.0,0.0,0.2759,0.307,0.3835,0.3847,0.3871,0.4779,0.5318,0.5709,0.6183,0.0,0.0,0.0,0.0,0.0,0.0,0.0,0.0,0.0,0.0,0.0,0.0,0.0,0.0,0.0,0.0,0.0,0.0,0.0,0.0,0.0,0.0,0.8885,0.8885,0.8885,0.8885,0.8885,0.8885,0.8885,0.8885,0.8885,0.8885,0.8885,0.8885,0.8974,0.9035,0.9035,0.912,0.0,0.0,0.0,0.9493,0.9752,0.9944,1.0194,1.0453,1.0668,1.0849,1.1446,1.1683,1.1981,0.0,0.0,0.0,0.0,0.0,0.0,0.0,0.0,0.0,0.0,0.0,0.0,0.0,0.0,0.0,0.0,0.0,0.0,0.0,0.0,0.0,0.0,0.0,-0.0591,-0.0591,-0.0193,0.0,0.0,0.0,0.0,0.0,0.0,0.0,0.0,0.0028,0.0171,0.0427,0.0456,0.0681,0.1046,0.108,0.0,0.0,0.0,0.0,0.0,0.0,0.0,0.0,0.2648,0.2347,0.228,0.228,0.0,0.0,0.0,0.0,0.0,0.4664,0.5095,0.5292,0.5226,0.5747,0.63,0.63,0.0,0.0,0.0,0.0,0.0,0.0,0.0,0.0,0.0,0.0,0.0,0.0,0.0,0.0,0.0,0.0,0.0,0.0,0.0,0.0,0.0,0.0,0.8885,0.8885,0.8885,0.8885,0.8885,0.8885,0.8895,0.8971,0.8895,0.8885,0.8885,0.8905,0.9035,0.921,0.9234,0.9326,0.9415,0.0,0.0,0.9761,1.0059,1.031,1.0486,1.0789,1.1031,1.139,1.2462,1.2997,1.3531,0.0,0.0,0.0,0.0,0.0,0.0,0.0,0.0,0.0,0.0,0.0,0.0,0.0,0.0,0.0,0.0,0.0,0.0,0.0,0.0,0.0,0.0,-0.0139,-0.0111,-0.0111,-0.0028,0.0,0.0,0.0,0.0,0.0,0.0,0.0,0.0,0.0183,0.0335,0.0487,0.067,0.1108,0.1668,0.1834,0.0,0.0,0.0,0.0,0.0,0.0,0.0,0.0,0.3984,0.3551,0.3015,0.3015,0.0,0.0,0.0,0.0,0.0,0.555,0.6185,0.6539,0.6189,0.6183,0.63,0.63,0.0,0.0,0.0,0.0,0.0,0.0,0.0,0.0,0.0,0.0,0.0,0.0,0.0,0.0,0.0,0.0,0.0,0.0,0.0,0.0,0.0,0.0,0.8885,0.8885,0.8885,0.8885,0.8885,0.8885,0.8998,0.9176,0.8998,0.8885,0.8885,0.9062,0.9187,0.9214,0.9344,0.9432,0.9574,0.0,1.0074,1.0212,1.0571,1.0887,1.1152,1.1212,1.2049,1.3306,1.3485,1.4257,1.5386,0.0,0.0,0.0,0.0,0.0,0.0,0.0,0.0,0.0,0.0,0.0,0.0,0.0,0.0,0.0,0.0,0.0,0.0,0.0,0.0,0.0,0.0,0.0,0.0,0.0,0.0,0.0,0.0,0.0,0.0,0.0,0.0,0.0,0.0,0.0218,0.037,0.0525,0.071,0.1255,0.1963,0.0,0.0,0.0,0.0,0.0,0.0,0.0,0.0,0.0,0.0,0.4084,0.3785,0.3785,0.0,0.0,0.0,0.0,0.0,0.5875,0.6291,0.6576,0.6614,0.6803,0.6983,0.6983,0.0,0.0,0.0,0.0,0.0,0.0,0.0,0.0,0.0,0.0,0.0,0.0,0.0,0.0,0.0,0.0,0.0,0.0,0.0,0.0,0.0,0.0,0.0,0.8885,0.8885,0.8885,0.8885,0.9103,0.9227,0.9433,0.9476,0.943,0.9178,0.9474,0.9608,0.9692,0.9765,0.9937,1.0261,0.0,1.0364,1.0607,1.091,1.1152,1.1394,1.223,1.3066,1.3844,1.5262,1.6568,1.7766,0.0,0.0,0.0,0.0,0.0,0.0,0.0,0.0,0.0,0.0,0.0,0.0,0.0,0.0,0.0,0.0,0.0,0.0,0.0,0.0,0.0,0.0,0.0,0.0,0.0,0.0,0.0,0.0,0.0,0.0,0.0,0.0,0.0032,0.0098,0.0446,0.0693,0.085,0.1196,0.1817,0.2584,0.0,0.0,0.0,0.0,0.0,0.0,0.0,0.0,0.0,0.0,0.0,0.0,0.0,0.0,0.0,0.5336,0.5691,0.5833,0.5949,0.622,0.6498,0.6844,0.0,0.7339,0.7553,0.0,0.0,0.0,0.0,0.0,0.0,0.0,0.0,0.0,0.0,0.0,0.0,0.0,0.0,0.0,0.0,0.0,0.0,0.0,0.0,0.0,0.0,0.0,0.8885,0.8995,0.8995,0.8995,0.9323,0.9561,0.9716,0.9942,0.9909,0.9613,0.9939,1.0138,1.0202,1.0238,1.0437,1.0789,1.0607,1.0668,1.097,1.1571,1.1872,1.1989,1.3545,1.4321,1.4847,1.7103,1.8583,1.9424,0.0,0.0,0.0,0.0,0.0,0.0,0.0,0.0,0.0,0.0,0.0,0.0,0.0,0.0,0.0,0.0,0.0,0.0,0.0,0.0,0.0,0.0,0.0,0.0,0.0,0.0,0.0,0.0,0.0,0.0,0.0,0.0,0.0098,0.0302,0.1136,0.16,0.1867,0.2666,0.3377,0.3974,0.4085,0.0,0.0,0.0,0.0,0.0,0.0,0.0,0.0,0.0,0.0,0.0,0.0,0.0,0.4478,0.5336,0.5691,0.5833,0.5949,0.6407,0.6846,0.6876,0.6641,0.0,0.7411,0.7275,0.0,0.7472,0.0,0.0,0.0,0.0,0.0,0.0,0.0,0.0,0.0,0.0,0.0,0.0,0.0,0.0,0.0,0.0,0.0,0.0,0.0,0.0,0.8885,0.9213,0.9379,0.9379,0.9651,0.9839,0.9949,1.0009,1.0087,1.0247,1.0465,1.0547,1.0562,1.0707,1.0778,1.0849,1.1091,1.1212,1.1394,1.2886,1.3545,1.3665,1.4976,1.622,1.7396,1.8765,1.9307,1.9424,0.0,0.0,0.0,0.0,0.0,0.0,0.0,0.0,0.0,0.0,0.0,0.0,0.0,0.0,0.0,0.0,0.0,0.0,0.0,0.0,0.0,0.0,0.0,0.0,0.0,0.0,0.0,0.0,0.0,0.0274,0.0806,0.0806,0.1144,0.1811,0.2211,0.2445,0.2546,0.3015,0.3595,0.4221,0.4268,0.4692,0.0,0.0,0.0,0.0,0.0,0.0,0.0,0.0,0.5226,0.5024,0.0,0.5193,0.5052,0.5473,0.5691,0.5833,0.5949,0.6431,0.6886,0.6886,0.6803,0.0,0.0,0.7885,0.7733,0.7624,0.7821,0.0,0.0,0.0,0.0,0.0,0.0,0.0,0.0,0.0,0.0,0.0,0.0,0.0,0.0,0.0,0.0,0.0,0.0,0.0,0.9213,0.9485,0.9651,0.9651,0.9926,1.0176,1.0292,1.0517,1.0713,1.0878,1.0713,1.0743,1.0854,1.0911,1.1119,1.1466,1.2174,1.2586,1.2886,1.4321,1.4857,1.5035,1.6273,1.7578,1.8765,1.9249,1.9424,1.9424,0.0,0.0,0.0,0.0,0.0,0.0,0.0,0.0,0.0,0.0,0.0,0.0,0.0,0.0,0.0,0.0,0.0,0.0,0.0,0.0,0.0,0.0,0.0,0.0,0.0,0.0,0.0,0.0,0.0232,0.0756,0.1525,0.1602,0.2023,0.2713,0.308,0.328,0.3382,0.3751,0.4187,0.4655,0.4655,0.4957,0.0,0.0,0.0,0.0,0.0,0.0,0.0,0.0,0.5395,0.0,0.0,0.0,0.0,0.0,0.5722,0.5969,0.6074,0.6471,0.6892,0.7034,0.0,0.0,0.8215,0.8261,0.8052,0.8028,0.8157,0.0,0.0,0.0,0.0,0.0,0.0,0.0,0.0,0.0,0.0,0.0,0.0,0.0,0.0,0.0,0.0,0.0,0.0,0.0,0.0,0.9761,0.9981,0.9981,1.0253,1.0477,1.0544,1.0771,1.094,1.1053,1.0826,1.0835,1.1059,1.1465,1.1825,1.2247,1.3231,1.3853,1.4217,1.5515,1.6328,1.6873,1.7753,1.8648,1.9424,1.9424,1.9305,1.9225,0.0,0.0,0.0,0.0,0.0,0.0,0.0,0.0,0.0,0.0,0.0,0.0,0.0,0.0,0.0,0.0,0.0,0.0,0.0,0.0,0.0,0.0,0.0,0.0,0.0,0.0028,0.0028,0.0,0.0752,0.1433,0.2036,0.2283,0.2514,0.2753,0.3618,0.4118,0.4353,0.5093,0.5395,0.5395,0.5395,0.5395,0.5395,0.0,0.0,0.0,0.0,0.0,0.0,0.0,0.5395,0.0,0.0,0.0,0.0,0.0,0.5822,0.6296,0.6296,0.6518,0.6814,0.0,0.0,0.0,0.8514,0.8119,0.7858,0.8699,0.0,0.0,0.0,0.0,0.0,0.0,0.0,0.0,0.0,0.0,0.0,0.0,0.0,0.0,0.0,0.0,0.0,0.0,0.0,0.0,0.0,0.9981,1.0312,1.0312,1.0582,1.0692,1.0692,1.0692,1.0692,1.0692,1.0692,1.0879,1.1277,1.247,1.2979,1.3093,1.422,1.4868,1.5214,1.6477,1.7969,1.9417,1.9417,1.9417,1.9417,1.9417,1.9172,1.8918,0.0,0.0,0.0,0.0,0.0,0.0,0.0,0.0,0.0,0.0,0.0,0.0,0.0,0.0,0.0,0.0,0.0,0.0,0.0,0.0,0.0,0.0,0.0504,0.0783,0.0783,0.1284,0.1258,0.0645,0.1474,0.2294,0.3138,0.3387,0.3911,0.4625,0.4858,0.5024,0.5093,0.5296,0.5395,0.5395,0.5395,0.5395,0.5395,0.0,0.0,0.0,0.0,0.0,0.0,0.0,0.0,0.0,0.0,0.0,0.0,0.5395,0.5668,0.5939,0.5939,0.6701,0.0,0.0,0.0,0.0,0.0,0.8668,0.0,0.0,0.0,0.0,0.0,0.0,0.0,0.0,0.0,0.0,0.0,0.0,0.0,0.0,0.0,0.0,0.0,0.0,0.0,0.0,0.0,0.0,0.0,1.0366,1.0582,1.0582,1.0637,1.0692,1.0692,1.0692,1.1122,1.1878,1.1878,1.2013,1.2271,1.2604,1.3294,1.4277,1.5524,1.6082,1.6271,1.7528,1.8328,1.8751,1.8751,1.8751,1.8751,1.8751,1.8698,1.8617,0.0,0.0,0.0,0.0,0.0,0.0,0.0,0.0,0.0,0.0,0.0,0.0,0.0,0.0,0.0,0.0,0.0,0.0,0.0,0.0,0.0451,0.0514,0.1254,0.1691,0.1742,0.2409,0.2496,0.1977,0.2486,0.3125,0.3913,0.4284,0.4742,0.5292,0.5362,0.5395,0.5395,0.5395,0.5395,0.5395,0.5395,0.5395,0.5395,0.0,0.0,0.0,0.0,0.0,0.0,0.0,0.0,0.0,0.0,0.0,0.0,0.5821,0.603,0.6273,0.667,0.0,0.0,0.0,0.0,0.0,0.0,0.0,0.0,0.0,0.0,0.0,0.0,0.0,0.0,0.0,0.0,0.0,0.0,0.0,0.0,0.0,0.0,0.0,0.0,0.0,0.0,0.0,0.0,0.0,0.0,1.0487,1.0692,1.0692,1.0692,1.0907,1.1391,1.1391,1.1932,1.3058,1.3058,1.3405,1.3975,1.3975,1.4433,1.5232,1.6563,1.7177,1.7245,1.8154,1.849,1.849,1.849,1.849,1.849,1.849,1.8417,1.831,0.0,0.0,0.0,0.0,0.0,0.0,0.0,0.0,0.0,0.0,0.0,0.0,0.0,0.0,0.0,0.0,0.0,0.0,0.0,0.0,0.1277,0.1408,0.2176,0.2718,0.2887,0.3439,0.3722,0.3732,0.3668,0.3911,0.4446,0.4927,0.512,0.5123,0.5326,0.5395,0.5395,0.5395,0.5395,0.5395,0.5395,0.5395,0.5395,0.5395,0.0,0.0,0.0,0.0,0.0,0.0,0.0,0.0,0.0,0.58,0.589,0.6397,0.6652,0.7008,0.7841,0.0,0.0,0.0,0.0,0.0,0.0,0.0,0.0,0.0,0.0,0.0,0.0,0.0,0.0,0.0,0.0,0.0,0.0,0.0,0.0,0.0,0.0,0.0,0.0,0.0,0.0,0.0,0.0,0.0,0.0,1.0442,1.0752,1.0912,1.0858,1.1344,1.2469,1.2469,1.3062,1.4212,1.4212,1.4866,1.6074,1.5968,1.5968,1.6146,1.7427,1.7935,1.7975,1.8297,1.841,1.841,1.841,1.841,1.841,1.841,1.8237,1.7949,0.0,0.0,0.0,0.0,0.0,0.0,0.0,0.0,0.0,0.0,0.0,0.0,0.0,0.0,0.0,0.0,0.0,0.0,0.0,0.0,0.204,0.2225,0.3062,0.3815,0.4424,0.4549,0.4633,0.4615,0.4615,0.4665,0.4795,0.516,0.5326,0.5326,0.5395,0.5395,0.5395,0.5395,0.5395,0.5395,0.5395,0.5395,0.5395,0.5395,0.5395,0.0,0.0,0.0,0.0,0.0,0.0,0.0,0.5793,0.58,0.5813,0.595,0.6405,0.6914,0.0,0.7861,0.0,0.0,0.0,0.0,0.0,0.0,0.0,0.0,0.0,0.0,0.0,0.0,0.0,0.0,0.0,0.0,0.0,0.0,0.0,0.0,0.0,0.0,0.0,0.0,0.0,0.0,0.0,0.0,1.1306,1.067,1.1054,1.2712,1.194,1.1988,1.3122,1.3122,1.3784,0.0,1.5123,1.5866,1.7206,1.6293,1.6399,1.7259,1.7536,1.7682,1.7689,1.7749,1.7776,1.7776,1.7776,1.7776,1.7776,1.7776,1.7736,1.7682,0.0,0.0,0.0,0.0,0.0,0.0,0.0,0.0,0.0,0.0,0.0,0.0,0.0,0.0,0.0,0.0,0.0,0.0,0.0,0.0,0.0,0.3729,0.4259,0.4744,0.5131,0.5131,0.5137,0.5149,0.5149,0.5081,0.5016,0.5259,0.5395,0.5395,0.5395,0.5395,0.5395,0.5395,0.5395,0.5395,0.5395,0.544,0.5504,0.5504,0.5504,0.5515,0.5583,0.0,0.0,0.0,0.0,0.0,0.0,0.0,0.6088,0.6343,0.6571,0.6907,0.0,0.0,0.0,0.0,0.0,0.0,0.0,0.0,0.0,0.0,0.0,0.0,0.0,0.0,0.0,0.0,0.0,0.0,0.0,0.0,0.0,0.0,0.0,0.0,0.0,0.0,0.0,0.0,0.0,1.1759,1.2268,1.1905,1.2159,1.3284,1.2777,1.2982,1.41,1.41,1.4781,1.5998,1.5998,1.6439,1.7168,1.6865,1.7047,1.7582,1.7582,1.7582,1.7582,1.7582,1.7582,1.7582,1.7582,1.7582,1.7582,1.7582,1.7582,1.7582,0.0,0.0,0.0,0.0,0.0,0.0,0.0,0.0,0.0,0.0,0.0,0.0,0.0,0.0,0.0,0.0,0.0,0.0,0.0,0.0,0.0,0.5055,0.5277,0.5395,0.5395,0.5395,0.5395,0.5395,0.5395,0.0,0.0,0.0,0.5409,0.5433,0.5405,0.5409,0.5433,0.5405,0.5395,0.5395,0.5423,0.5511,0.5593,0.5616,0.5627,0.564,0.5759,0.5742,0.5701,0.5909,0.0,0.0,0.0,0.0,0.6386,0.6833,0.6842,0.6973,0.0,0.0,0.0,0.0,0.0,0.0,0.0,0.0,0.0,0.0,0.0,0.0,0.0,0.0,0.0,0.0,0.0,0.0,0.0,0.0,0.0,0.0,0.0,0.0,0.0,0.0,0.0,0.0,0.0,1.3034,1.3232,1.3211,1.3364,1.3718,1.3572,1.4027,1.5132,1.5138,1.5613,1.6627,1.668,1.6707,1.6727,1.7208,1.7428,1.7428,1.7428,1.7428,1.7428,1.7428,1.7428,1.7428,1.7428,1.7428,1.7428,1.7428,1.7428,1.7428,0.0,0.0,0.0,0.0,0.0,0.0,0.0,0.0,0.0,0.0,0.0,0.0,0.0,0.0,0.0,0.0,0.0,0.0,0.3577,0.0,0.0,0.5096,0.5277,0.5395,0.5395,0.5395,0.5395,0.5395,0.0,0.0,0.0,0.0,0.0,0.5552,0.0,0.547,0.5552,0.545,0.5395,0.5405,0.5539,0.5572,0.5603,0.5725,0.5772,0.5776,0.5793,0.5874,0.5939,0.5979,0.6118,0.0,0.0,0.0,0.6306,0.6386,0.6711,0.7073,0.0,0.0,0.0,0.0,0.0,0.0,0.0,0.0,0.0,0.0,0.0,0.0,0.0,0.0,0.0,0.0,0.0,0.0,0.0,0.0,0.0,0.0,0.0,0.0,0.0,0.0,0.0,0.0,1.271,1.3169,1.4057,1.3251,1.3602,1.5412,1.4642,1.4642,1.57,1.57,1.5928,1.6382,1.6587,1.6707,1.6707,1.6787,1.682,1.682,1.682,1.682,1.682,1.682,1.682,1.682,1.682,1.682,1.682,1.682,1.682,1.682,0.0,0.0,0.0,0.0,0.0,0.0,0.0,0.0,0.0,0.0,0.0,0.0,0.0,0.0,0.0,0.2764,0.3349,0.3955,0.4491,0.49,0.5137,0.5257,0.5358,0.5395,0.5395,0.5395,0.5395,0.5395,0.0,0.0,0.0,0.5484,0.5559,0.0,0.0,0.0,0.0,0.5637,0.5606,0.5613,0.5681,0.5861,0.6074,0.5969,0.6034,0.6166,0.6126,0.6047,0.6003,0.6129,0.6242,0.63,0.63,0.0,0.0,0.0,0.647,0.0,0.0,0.0,0.0,0.0,0.0,0.0,0.0,0.0,0.0,0.0,0.0,0.0,0.0,0.0,0.0,0.0,0.0,0.0,0.0,0.0,0.0,0.0,0.0,0.0,0.0,0.0,0.0,0.0,1.4424,1.4615,1.5112,1.4669,1.486,1.5784,1.535,1.535,1.5784,1.5784,1.5844,1.6025,1.6152,1.6219,1.6219,1.6219,1.6393,1.6707,1.6707,1.6707,1.6707,1.6707,1.6707,1.6707,1.6707,1.6707,1.6707,1.6707,1.6707,1.6707,0.0,0.0,0.0,0.0,0.0,0.0,0.0,0.0,0.0,0.0,0.0,0.0,0.0,0.0,0.0,0.0,0.3923,0.4372,0.5051,0.5137,0.524,0.5388,0.5395,0.5395,0.5395,0.5395,0.5395,0.0,0.0,0.0,0.5457,0.5572,0.5664,0.0,0.5772,0.5823,0.0,0.0,0.0,0.0,0.5925,0.6173,0.6501,0.6352,0.6451,0.6617,0.6477,0.6298,0.6207,0.6286,0.63,0.63,0.63,0.63,0.0,0.0,0.0,0.0,0.0,0.0,0.0,0.0,0.0,0.0,0.0,0.0,0.0,0.0,0.0,0.0,0.0,0.0,0.0,0.0,0.0,0.0,0.0,0.0,0.0,0.0,0.0,0.0,0.0,0.0,0.0,0.0,1.5784,1.5784,1.5784,1.5784,1.5784,1.5784,1.5784,1.5784,1.5784,1.5784,1.5784,1.5784,1.5784,1.5784,1.5784,1.5784,1.6066,1.648,1.648,1.648,1.648,1.648,1.648,1.648,1.648,1.648,1.648,1.648,1.648,1.6536,0.0,0.0,0.0,0.0,0.0,0.0,0.0,0.0,0.0,0.0,0.0,0.0,0.3095,0.3582,0.3947,0.3978,0.4503,0.491,0.509,0.5267,0.5385,0.5395,0.5395,0.0,0.5395,0.5395,0.0,0.0,0.0,0.0,0.5583,0.5725,0.5867,0.5963,0.5864,0.5881,0.5973,0.0,0.0,0.0,0.0,0.0,0.0,0.0,0.7048,0.0,0.0,0.6671,0.6624,0.6392,0.63,0.63,0.63,0.63,0.63,0.0,0.0,0.0,0.0,0.0,0.0,0.0,0.0,0.0,0.0,0.0,0.0,0.0,0.0,0.0,0.0,0.0,0.0,0.0,0.0,0.0,0.0,0.0,0.0,0.0,0.0,0.0,0.0,0.0,0.0,0.0,1.5784,1.5784,1.5784,1.5784,1.5784,1.5784,1.5784,1.5784,1.5784,1.5784,1.5784,1.5784,1.5784,1.5784,1.5784,1.5784,1.5798,1.5872,1.5872,1.5872,1.5872,1.5872,1.5872,1.5872,1.5872,1.5872,1.5872,1.5872,1.5872,1.5967,0.0,0.0,0.0,0.0,0.0,0.0,0.0,0.0,0.0,0.0,0.0,0.0,0.0,0.4458,0.4583,0.4583,0.4848,0.5118,0.527,0.5365,0.5395,0.5395,0.5818,0.5848,0.5395,0.5815,0.0,0.0,0.0,0.5474,0.5593,0.5735,0.5884,0.5993,0.6078,0.6163,0.6173,0.6156,0.0,0.0,0.0,0.0,0.0,0.0,0.0,0.0,0.0,0.0,0.6726,0.678,0.6572,0.6338,0.6451,0.649,0.6525,0.6637,0.683,0.0,0.0,0.0,0.0,0.0,0.0,0.0,0.0,0.0,0.0,0.0,0.0,0.0,0.0,0.0,0.0,0.0,0.0,0.0,0.0,0.0,0.0,0.0,0.0,0.0,0.0,0.0,0.0,0.0,0.0,1.5784,1.5784,1.5784,1.5784,1.5784,1.5784,1.5784,1.5784,1.5784,1.5784,1.5784,1.5784,1.5784,1.5784,1.5784,1.5784,1.5784,1.5784,1.5784,1.5784,1.5784,1.5784,1.5832,1.5981,1.6076,1.6076,1.6258,1.6709,1.7257,0.0,0.0,0.0,0.0,0.0,0.0,0.0,0.0,0.0,0.0,0.0,0.0,0.0,0.0,0.5067,0.5067,0.5155,0.525,0.5388,0.5395,0.5395,0.5395,0.5815,0.5848,0.5395,0.5848,0.0,0.0,0.0,0.0,0.0,0.5735,0.5884,0.6,0.6193,0.63,0.0,0.0,0.0,0.6334,0.0,0.0,0.695,0.0,0.0,0.0,0.0,0.0,0.0,0.7271,0.7134,0.6825,0.6875,0.6805,0.6753,0.6942,0.7288,0.0,0.7972,0.0,0.0,0.0,0.0,0.0,0.0,0.0,0.0,0.0,0.0,0.0,0.0,0.0,0.0,0.0,0.0,0.0,0.0,0.0,0.0,0.0,0.0,0.0,0.0,0.0,0.0,0.0,0.0,0.0,1.5784,1.5784,1.5784,1.5784,1.5784,1.5784,1.5784,1.5784,1.5784,1.5784,1.5784,1.5784,1.5784,1.5784,1.5832,1.5927,1.5927,1.5927,1.5927,1.5927,1.5974,1.6109,1.6265,1.6541,1.6817,1.699,1.7677,1.8534,0.0,0.0,0.0,0.0,0.0,0.0,0.0,0.0,0.0,0.0,0.0,0.0,0.0,0.0,0.0,0.5395,0.5395,0.5395,0.5395,0.5395,0.5395,0.5395,0.5428,0.5428,0.5395,0.5428,0.0,0.0,0.0,0.0,0.0,0.0,0.5881,0.6,0.6231,0.63,0.63,0.0,0.63,0.6351,0.0,0.697,0.678,0.0,0.0,0.0,0.7432,0.7514,0.0,0.7823,0.0,0.0,0.0,0.0,0.6942,0.7142,0.0,0.0,0.0,0.0,0.0,0.0,0.0,0.0,0.0,0.0,0.0,0.0,0.0,0.0,0.0,0.0,0.0,0.0,0.0,0.0,0.0,0.0,0.0,0.0,0.0,0.0,0.0,0.0,0.0,0.0,1.5784,1.5784,1.5784,1.5784,1.5784,1.5784,1.5771,1.5764,1.5764,1.5758,1.5758,1.5758,1.5764,1.5764,1.5771,1.5778,1.5927,1.6224,1.6224,1.6224,1.6224,1.6224,1.6359,1.6588,1.6629,1.7225,1.8033,1.8033,1.8718,1.9724,0.0,0.0,0.0,0.0,0.0,0.0,0.0,0.0,0.0,0.0,0.0,0.0,0.5395,0.5395,0.5395,0.5395,0.5395,0.5395,0.5395,0.5395,0.5395,0.5395,0.5881,0.5881,0.5395,0.5881,0.0,0.0,0.0,0.0,0.0,0.0,0.0,0.0,0.6416,0.6451,0.63,0.63,0.0,0.0,0.6902,0.7183,0.0,0.0,0.0,0.0,0.0,0.8144,0.7845,0.0,0.7946,0.7202,0.0,0.0,0.0,0.0,0.0,0.0,0.8699,0.0,0.0,0.0,0.0,0.0,0.0,0.0,0.0,0.0,0.0,0.0,0.0,0.0,0.0,0.0,0.0,0.0,0.0,0.0,0.0,0.0,0.0,0.0,0.0,0.0,0.0,0.0,1.5784,1.5784,1.5784,1.5784,1.5784,1.5784,1.5625,1.5518,1.5518,1.5304,1.5204,1.5204,1.5418,1.5518,1.5524,1.5927,1.613,1.6224,1.6407,1.6595,1.6744,1.6548,1.6541,1.6676,1.7552,1.8056,1.8419,1.9276,2.0232,2.1141,0.0,0.0,0.0,0.0,0.0,0.0,0.0,0.0,0.0,0.0,0.0,0.0,0.5395,0.5395,0.5395,0.5395,0.5395,0.5395,0.5395,0.5395,0.5395,0.5395,0.5785,0.5785,0.5395,0.6042,0.0,0.0,0.0,0.0,0.0,0.0,0.0,0.0,0.0,0.0,0.0,0.0,0.0,0.0,0.6991,0.0,0.0,0.7936,0.8284,0.0,0.0,0.0,0.8378,0.8954,0.8475,0.0,0.0,0.0,0.0,0.0,0.0,0.0,0.0,0.0,0.0,0.0,0.0,0.0,1.1514,1.3299,0.0,0.0,0.0,0.0,0.0,0.0,0.0,0.0,0.0,0.0,0.0,0.0,0.0,0.0,0.0,0.0,0.0,1.5784,1.5784,1.5784,1.5784,1.5784,1.5784,1.5712,1.5651,1.5651,1.5364,1.5263,1.5354,1.5185,1.5187,1.527,1.5395,1.5477,1.549,1.5936,1.6213,1.632,1.6633,1.7153,1.7753,1.7606,1.7505,1.7645,1.8742,1.9422,1.9877,2.0557,2.1463,2.228,0.0,0.0,0.0,0.0,0.0,0.0,0.0,0.0,0.0,0.0,0.0,0.0,0.5395,0.5395,0.5395,0.5395,0.5395,0.5395,0.5395,0.5395,0.5395,0.5395,0.5395,0.5395,0.5395,0.6009,0.0,0.0,0.0,0.0,0.0,0.0,0.0,0.0,0.0,0.0,0.0,0.0,0.0,0.6474,0.7186,0.7347,0.0,0.0,0.8276,0.8181,0.8706,0.8886,0.8894,0.932,0.9116,0.0,0.0,0.0,0.0,0.0,0.8608,0.0,0.0,0.0,0.0,0.0,0.0,0.0,1.1691,1.3151,1.4703,0.0,0.0,0.0,0.0,0.0,0.0,0.0,0.0,0.0,0.0,0.0,0.0,0.0,0.0,0.0,1.5832,1.5832,1.5832,1.5832,1.5798,1.5718,1.5684,1.5491,1.5397,1.5397,1.5154,1.5089,1.5274,1.5239,1.5301,1.5508,1.5543,1.5564,1.5571,1.5924,1.6215,1.6471,1.6925,1.774,1.8778,1.9001,1.9063,1.9063,2.0014,2.0917,2.1695,2.1828,2.2369,2.3091,0.5069,0.0,0.0,0.0,0.0,0.0,0.0,0.0,0.0,0.0,0.0,0.0,0.0,0.5395,0.5395,0.5395,0.5395,0.5395,0.5395,0.5395,0.5395,0.5395,0.5395,0.5395,0.5395,0.5617,0.6075,0.0,0.0,0.0,0.0,0.0,0.0,0.0,0.0,0.0,0.0,0.0,0.0,0.7159,0.7114,0.0,0.78,0.8417,0.889,0.9284,0.9401,0.9292,0.9013,0.8848,0.8873,0.8893,0.0,0.0,0.0,0.7655,0.0,0.0,0.0,0.0,0.0,0.0,0.0,0.0,1.1854,1.3105,1.4289,0.0,0.0,0.0,0.0,0.0,0.0,0.0,0.0,0.0,0.0,0.0,0.0,0.0,0.0,0.0,1.6123,1.5927,1.5879,1.6123,1.5712,1.5378,1.5189,1.5264,1.532,1.532,1.5242,1.5163,1.5207,1.4956,1.4831,1.4873,1.5168,1.5287,1.5301,1.5793,1.6031,1.6179,1.7469,1.8186,1.8526,2.039,2.0647,2.0005,2.1006,2.1516,2.1784,2.2555,2.296,2.3091,0.5233,0.0,0.0,0.0,0.0,0.0,0.0,0.0,0.0,0.0,0.0,0.0,0.0,0.0,0.5395,0.5395,0.5395,0.5395,0.5395,0.5395,0.5395,0.5395,0.5395,0.5425,0.5488,0.5914,0.6404,0.0,0.0,0.0,0.0,0.0,0.0,0.0,0.0,0.0,0.0,0.0,0.7047,0.7308,0.7388,0.0,0.8405,0.8934,0.9324,0.9579,0.9579,0.9514,0.9336,0.9157,0.8978,0.0,0.0,0.8434,0.8303,0.0,0.9032,0.9817,0.0,0.0,0.0,1.0614,0.0,0.0,0.0,1.2856,1.3774,0.0,0.0,0.0,0.0,0.0,0.0,0.0,0.0,0.0,0.0,0.0,0.0,0.0,0.0,0.0,1.6775,1.6661,1.6774,1.716,1.6944,1.6736,1.6617,1.6162,1.6118,1.6545,1.5512,1.5219,1.5811,1.5196,1.495,1.5041,1.5205,1.5319,1.5333,1.6195,1.6596,1.6662,1.8033,1.8923,1.9427,2.0834,2.1392,2.141,2.2108,2.2413,2.2467,2.2916,2.3091,2.3091,0.5395,0.0,0.0,0.0,0.0,0.0,0.0,0.0,0.0,0.0,0.0,0.0,0.0,0.0,0.0,0.0,0.5569,0.5542,0.5484,0.5481,0.5481,0.5481,0.5456,0.5516,0.5706,0.6279,0.6736,0.7018,0.0,0.0,0.0,0.0,0.0,0.0,0.0,0.0,0.0,0.0,0.0,0.7509,0.0,0.8195,0.8647,0.9188,0.9466,0.9535,0.9554,0.9579,0.9567,0.9551,0.9145,0.8739,0.8844,0.8712,0.0,0.0,0.0,0.0,0.0,0.0,0.0,0.0,0.0,1.2252,0.0,0.0,0.0,0.0,0.0,0.0,0.0,0.0,0.0,0.0,0.0,0.0,0.0,0.0,0.0,0.0,0.0,0.0,0.0,1.7265,1.7497,1.8083,1.7865,1.7825,1.8038,1.7178,1.7028,1.778,1.602,1.5519,1.6435,1.5575,1.5257,1.5389,1.559,1.5665,1.5673,1.6841,1.7329,1.7437,1.8651,1.9618,2.0378,2.1077,2.1807,2.2549,2.2925,2.3091,2.3091,2.3091,2.3091,2.3091,0.5395,0.5395,0.0,0.0,0.0,0.0,0.0,0.0,0.0,0.0,0.0,0.0,0.0,0.0,0.0,0.0,0.0,0.0,0.5769,0.0,0.5752,0.5752,0.563,0.5718,0.6037,0.6169,0.6276,0.6309,0.0,0.0,0.0,0.0,0.0,0.0,0.9597,0.0,0.0,0.0,0.8809,0.0,0.8261,0.8041,0.0,0.8504,0.8885,0.9198,0.9514,0.9579,0.9579,0.0,0.9104,0.8934,0.0,0.9118,1.0103,0.9056,0.0,0.0,0.0,0.0,0.0,0.0,1.215,0.0,0.0,0.0,1.2938,1.324,0.0,0.0,0.0,0.0,0.0,0.0,0.0,0.0,0.0,0.0,0.0,0.0,0.0,0.0,0.0,1.671,1.6943,1.7785,1.6685,1.6389,1.7335,1.7498,1.7603,1.7725,1.6919,1.6535,1.6657,1.5782,1.5389,1.5431,1.618,1.6535,1.6583,1.7473,1.7895,1.8002,1.9249,1.988,2.0058,2.1696,2.2382,2.2549,2.2925,2.3091,2.3091,2.3091,2.3091,2.3091,0.5488,0.5458,0.0,0.0,0.0,0.0,0.0,0.0,0.0,0.0,0.0,0.0,0.0,0.0,0.0,0.0,0.0,0.5939,0.0,0.0,0.0,0.5586,0.5527,0.5584,0.5816,0.5959,0.6083,0.621,0.6914,0.0,0.0,0.0,0.0,0.0,1.0589,0.0,1.0612,0.0,0.9559,0.0,0.0,0.0,0.0,0.8839,0.9275,0.9425,0.9526,0.9579,0.9554,0.0,0.9218,0.0,0.0,0.0,0.0,0.0,0.0,0.0,0.0,0.0,0.0,0.0,0.0,0.0,1.2538,0.0,1.2525,0.0,0.0,0.0,0.0,0.0,0.0,0.0,1.2812,0.0,0.0,0.0,0.0,0.0,0.0,0.0,0.0,0.0,0.0,0.0,1.8869,1.874,1.9186,1.8838,1.8877,1.9353,1.8149,1.7715,1.8198,1.7359,1.6919,1.6911,1.7269,1.7464,1.7472,1.8367,1.8767,1.8816,1.9865,2.0307,2.0413,2.1663,2.2148,2.2217,2.2838,2.3091,2.3091,2.3091,2.3091,2.3091,0.5583,0.0,0.0,0.0,0.0,0.0,0.0,0.0,0.0,0.0,0.0,0.0,0.5518,0.5665,0.0,0.0,0.6122,0.6135,0.0,0.0,0.5921,0.0,0.0,0.0,0.0,0.6269,0.6412,0.6539,0.0,0.0,0.0,0.0,0.0,0.0,0.0,1.1572,1.2272,0.0,0.0,1.0231,0.9472,0.887,0.8532,0.9218,0.9543,0.9579,0.9579,0.9579,0.9558,0.9474,0.9198,0.0,0.9011,0.0,0.0,0.0,0.0,0.0,1.2308,0.0,0.0,0.0,0.0,0.0,0.0,0.0,0.0,0.0,0.0,0.0,0.0,0.0,0.0,0.0,0.0,0.0,0.0,0.0,0.0,0.0,0.0,0.0,0.0,0.0,0.0,2.0381,2.0188,2.0198,2.0595,2.001,1.9932,2.0566,1.9125,1.8647,1.9301,1.8447,1.7997,1.7997,1.8238,1.8367,1.8407,1.9253,1.9657,1.9696,2.0333,2.0605,2.0674,2.1564,2.1885,2.1973,2.2812,2.3091,2.3091,2.3091,2.3091,2.3091,0.5583,0.5488,0.0,0.0,0.0,0.0,0.0,0.0,0.0,0.0,0.0,0.0,0.0,0.0,0.0,0.0,0.0,0.6933,0.6688,0.0,0.6553,0.0,0.0,0.6335,0.0,0.7421,0.7456,0.7456,0.0,0.0,0.0,0.0,0.0,0.0,0.0,1.1542,1.0891,1.1424,1.1844,1.2029,1.0941,1.0159,0.9494,0.0,0.9328,0.9579,0.9579,0.0,0.0,0.9088,0.8917,0.0,0.0,0.0,0.0,0.0,0.0,0.0,0.0,0.0,0.0,1.2452,0.0,0.0,0.0,0.0,1.2305,0.0,0.0,0.0,0.0,0.0,0.0,0.0,0.0,0.0,0.0,0.0,0.0,0.0,0.0,0.0,0.0,0.0,0.0,1.9827,1.9079,1.918,2.0547,2.0566,2.0566,2.0605,1.9736,1.9262,1.9301,1.8447,1.7997,1.7997,1.8856,1.9262,1.9301,2.0167,2.0566,2.0566,2.0605,2.0605,2.0674,2.1564,2.1885,2.1973,2.2812,2.3091,2.3091,2.3091,2.3091,2.3091,0.0,0.0,0.0,0.0,0.0,0.0,0.0,0.5395,0.0,0.0,0.0,0.0,0.0,0.6327,0.6488,0.0,0.0,0.6916,0.6858,0.6569,0.0,0.0,0.0,0.6102,0.0,0.0,0.0,0.0,0.0,0.0,0.0,0.0,0.0,0.0,0.0,1.1554,0.0,0.0,0.0,0.0,0.0,0.949,0.9287,0.0,0.0,0.9579,0.9579,0.9579,0.0,0.9437,0.9384,0.9328,0.9003,1.0946,1.3441,1.3716,1.4559,0.0,0.0,0.0,1.4035,1.2645,0.0,0.0,0.0,0.0,0.0,0.0,0.0,0.0,0.0,0.0,0.0,0.0,0.0,0.0,0.0,0.0,0.0,0.0,0.0,0.0,0.0,0.0,0.0,1.9865,1.9908,2.0091,2.0557,2.0605,2.0605,2.0605,2.0323,2.0167,2.0167,1.9883,1.9717,1.9717,2.001,2.0167,2.0167,2.0489,2.0605,2.0605,2.0605,2.0605,2.0674,2.1564,2.1885,2.1973,2.2812,2.3091,2.3091,2.3091,2.3091,2.3091,0.5686,0.0,0.0,0.0,0.0,0.0,0.0,0.0,0.0,0.0,0.58,0.0,0.6265,0.0,0.6491,0.0,0.6936,0.7017,0.6858,0.6846,0.0,0.7363,0.6732,0.0,0.0,0.0,0.0,0.0,0.0,0.9466,0.0,0.0,0.0,0.0,0.0,0.0,1.2845,0.0,1.2609,0.0,0.0,1.074,0.0,0.0,0.9836,0.9458,0.0,0.9867,1.0109,0.9723,0.9579,0.9871,1.1326,1.365,1.5784,1.5784,1.5784,1.5784,1.5784,1.5331,0.0,1.3247,1.336,0.0,1.2659,0.0,0.0,0.0,0.0,0.0,0.0,0.0,0.0,0.0,0.0,0.0,0.0,1.5842,0.0,0.0,0.0,0.0,0.0,0.0,1.9553,1.9893,2.0176,2.0439,0.0,0.0,2.0605,2.0605,2.0605,2.0605,2.0605,2.0605,2.0605,2.0605,2.0605,2.0605,2.0605,2.0605,2.0605,2.0605,2.0605,2.0605,2.0674,2.1564,2.1885,2.1973,2.2812,2.3091,2.3091,2.3091,2.3091,2.3135,0.0,0.0,0.0,0.0,0.5617,0.0,0.0,0.0,0.5525,0.0,0.5837,0.5962,0.631,0.6556,0.6725,0.6732,0.7132,0.7204,0.6783,0.7227,0.0,0.0,0.7854,0.8106,0.8853,0.0,0.0,0.0,0.0,0.0,0.0,0.0,0.0,0.0,1.0233,0.0,1.2845,1.2077,1.3252,1.5615,1.4609,1.3584,1.2549,1.1648,1.0441,0.9269,0.9591,1.035,1.1126,1.0162,0.9772,1.0453,1.4519,1.5784,1.5784,1.5784,1.5758,1.5731,1.5704,1.5118,1.4476,1.4142,1.3667,0.0,0.0,0.0,1.2919,0.0,0.0,0.0,0.0,0.0,0.0,0.0,0.0,0.0,0.0,0.0,0.0,0.0,0.0,0.0,0.0,1.8521,1.8968,1.9824,1.9902,0.0,0.0,0.0,2.0586,2.0605,2.0605,2.0605,2.0605,2.0605,2.0605,2.0605,2.0605,2.0605,2.0605,2.0605,2.0605,2.0605,2.0605,2.0605,2.0674,2.1564,2.1885,2.1973,2.2812,2.3135,2.3178,2.3144,2.3135,2.3309,0.6083,0.6115,0.6115,0.0,0.5918,0.5756,0.0,0.0,0.0,0.0,0.6335,0.6583,0.6881,0.694,0.7075,0.719,0.7407,0.0,0.0,0.0,0.0,0.856,0.7888,0.8272,0.9975,0.9026,0.0,1.0571,0.0,0.0,1.0689,0.0,0.0,0.0,0.0,0.0,1.2522,1.2314,1.3006,1.4213,1.3231,1.2601,0.0,0.0,1.1812,1.1086,1.088,1.1468,1.2339,1.2635,1.2344,1.2344,1.4956,1.5784,1.5784,1.5784,1.5524,1.509,1.4656,1.479,1.4785,1.3888,1.4135,1.4405,0.0,0.0,0.0,0.0,0.0,0.0,0.0,0.0,0.0,0.0,0.0,0.0,0.0,0.0,0.0,1.794,0.0,0.0,1.8134,1.8715,1.9209,1.9434,1.9736,0.0,0.0,0.0,0.0,2.0595,2.0605,2.0605,2.0605,2.0605,2.0605,2.0605,2.0605,2.0605,2.0605,2.0605,2.0605,2.0605,2.0605,2.0605,2.0674,2.1564,2.1885,2.1973,2.2812,2.3637,2.4296,2.3657,2.382,2.4414,0.6251,0.0,0.0,0.6214,0.0,0.0,0.5994,0.0,0.0,0.6395,0.6482,0.0,0.6915,0.7018,0.7132,0.7261,0.7472,0.0,0.7434,0.0,0.0,0.8501,0.8864,0.9578,1.0743,1.0243,0.0,1.1317,0.0,0.0,1.0857,0.0,0.0,0.0,0.0,1.1093,0.0,1.3002,1.3604,1.4094,1.3664,0.0,0.0,1.3112,1.3101,1.3102,1.2414,1.2509,1.3044,1.3407,1.3767,1.428,1.5439,1.5784,1.5784,1.5784,1.5237,1.4553,1.4175,1.4589,1.4875,1.3996,1.4334,1.4725,1.3898,1.39,1.4106,0.0,1.4119,1.4095,0.0,0.0,0.0,0.0,0.0,0.0,0.0,0.0,0.0,0.0,1.8188,0.0,1.8037,1.8779,1.9287,1.9287,1.9502,0.0,0.0,0.0,0.0,2.0273,2.0507,2.0605,2.0605,2.0605,2.0605,2.0605,2.0605,2.0605,2.0605,2.0605,2.0605,2.0605,2.0605,2.0713,2.0918,2.1602,2.2085,2.2436,2.3549,2.4382,2.4914,2.4946,2.5189,2.563,0.0,0.0,0.0,0.0,0.0,0.0,0.0,0.6063,0.0,0.6591,0.0,0.6515,0.6729,0.6943,0.7105,0.7125,0.0,0.7411,0.7041,0.8088,0.8571,0.8276,0.9953,1.0944,1.1138,1.1385,1.1515,0.0,0.0,0.0,0.0,0.0,0.0,0.0,0.0,0.0,0.0,1.3802,1.4492,1.4623,1.4892,1.5019,1.4912,1.3986,1.4148,1.4814,1.3885,1.3588,1.3598,1.3481,1.4431,1.5678,1.5705,1.5665,1.5598,1.5598,1.4921,1.4166,1.4166,1.4489,1.4754,1.4276,1.4496,1.4671,1.4241,1.4301,1.4505,1.4674,1.45,1.4551,0.0,0.0,0.0,0.0,0.0,0.0,0.0,0.0,0.0,0.0,0.0,0.0,1.8018,1.873,1.9209,1.9209,0.0,0.0,0.0,0.0,0.0,2.0,2.041,2.0605,2.0605,0.0,2.0605,2.0605,2.0605,2.0605,2.0605,2.0605,2.0605,2.0605,2.0644,2.086,2.131,2.1791,2.246,2.3307,2.4651,2.5284,2.5619,2.6637,2.6976,2.7017,0.0,0.0,0.0,0.0,0.0,0.684,0.701,0.7203,0.7224,0.7052,0.7176,0.7231,0.7058,0.7065,0.7146,0.7319,0.738,0.0,0.0,0.0,0.0,0.8575,0.8933,0.9635,1.066,1.0404,1.0844,0.0,0.0,0.0,0.0,0.0,0.0,0.0,0.0,0.0,1.3286,1.3858,0.0,1.508,1.4975,1.5065,1.5187,1.4867,1.467,1.4552,1.437,1.4484,1.4739,1.4682,1.4771,1.4903,1.5109,1.4783,1.4396,1.4396,1.4491,1.4573,1.4454,1.4495,1.4558,1.4587,1.4957,1.52,1.4976,1.5045,1.5218,1.526,1.5216,1.5129,1.5017,0.0,0.0,0.0,0.0,0.0,0.0,0.0,0.0,0.0,0.0,1.8789,0.0,0.0,0.0,0.0,0.0,0.0,0.0,0.0,0.0,0.0,2.0566,0.0,0.0,0.0,2.0605,2.0605,2.0605,2.0605,2.0605,2.0605,2.0605,2.0605,2.078,2.1105,2.157,2.2179,2.3298,2.4777,2.5231,2.6295,2.7643,2.8039,2.8621,2.9131,0.0,0.0,0.0,0.0,0.0,0.0,0.0,0.7866,0.0,0.7345,0.7291,0.7172,0.6912,0.7004,0.7125,0.7244,0.7326,0.7492,0.7791,0.8013,0.829,0.866,0.9351,0.9954,1.0597,1.1237,1.1806,1.2312,0.0,0.0,0.0,0.0,0.0,0.0,0.0,1.292,0.0,0.0,0.0,1.4741,1.4781,1.4891,1.4973,1.4756,1.4575,1.441,1.4331,1.4389,1.4509,1.4509,1.4486,1.4432,1.4519,1.4315,1.413,1.4334,1.4489,1.4615,1.4741,1.479,1.479,1.4741,1.5041,1.5347,1.5131,1.5264,1.5389,1.5389,1.5389,1.5445,1.5541,1.5935,0.0,0.0,0.0,0.0,0.0,0.0,0.0,0.0,0.0,0.0,0.0,0.0,0.0,0.0,0.0,0.0,0.0,0.0,0.0,0.0,0.0,0.0,0.0,0.0,0.0,2.0605,2.0693,2.0693,2.0605,2.0605,2.0654,2.079,2.1134,2.1551,2.217,2.3526,2.4826,2.6047,2.676,2.7585,2.8359,2.8949,2.9456,2.9753,0.0,0.6396,0.0,0.0,0.7249,0.0,0.7775,0.8279,0.8372,0.7594,0.7381,0.7182,0.6964,0.7135,0.7289,0.7368,0.75,0.7643,0.7867,0.8134,0.8417,0.8648,0.9651,1.0241,1.0469,1.196,1.2568,0.0,0.0,0.0,0.0,0.0,0.0,0.0,0.0,0.0,0.0,0.0,1.4443,1.4568,1.4726,1.4783,1.4741,1.4566,1.4482,1.444,1.4286,1.4208,1.4208,1.4208,1.4208,1.4166,1.4166,1.4173,1.425,1.4657,1.4741,1.4748,1.495,1.5082,1.5131,1.4908,1.5124,1.5347,1.5215,1.5305,1.5389,1.5389,1.5389,1.5602,1.6357,1.6281,0.0,0.0,0.0,0.0,0.0,0.0,0.0,0.0,0.0,0.0,1.8886,0.0,0.0,0.0,0.0,0.0,0.0,0.0,0.0,0.0,0.0,2.0497,2.0497,0.0,2.0896,2.0731,2.0858,2.0819,2.0654,2.0654,2.0741,2.0926,2.151,2.2231,2.3197,2.5067,2.6359,2.7261,2.8131,2.8621,2.887,2.9546,2.9792,2.9792,0.0,0.0,0.0,0.0,0.0,0.0,0.7814,0.8376,0.8547,0.7918,0.7851,0.7775,0.7697,0.7737,0.7903,0.8234,0.8131,0.8147,0.8416,0.8284,0.834,0.8613,0.8701,0.9134,0.9959,1.0937,1.1742,0.0,0.0,1.3039,0.0,0.0,0.0,0.0,0.0,0.0,0.0,1.4548,1.4864,1.5262,1.5117,1.5048,1.5048,1.4783,1.465,1.465,1.465,1.4657,1.4657,1.4657,1.4524,1.4398,1.4447,1.4454,1.4531,1.4866,1.5124,1.5257,1.5131,1.5215,1.5389,1.5347,1.5389,1.5389,1.5389,1.5389,1.5389,1.5389,1.5389,1.5808,1.7147,1.7601,1.7982,0.0,0.0,0.0,0.0,0.0,2.037,2.0155,0.0,0.0,0.0,1.9397,0.0,0.0,1.9293,0.0,0.0,0.0,0.0,2.0155,0.0,2.0224,2.0224,2.0841,2.1167,2.1128,2.0984,2.0906,2.0867,2.0867,2.0867,2.0936,2.1796,2.3207,2.5057,2.6393,2.7516,2.8331,2.8462,2.8961,2.9675,2.9753,2.9792,2.9792,0.0,0.0,0.0,0.0,0.0,0.0,0.0,0.8734,0.882,0.8425,0.8371,0.8306,0.819,0.8151,0.8223,0.8383,0.8331,0.8382,0.8609,0.8454,0.8495,0.8718,0.8621,0.8999,0.9859,1.0809,1.1634,0.0,0.0,0.0,0.0,0.0,0.0,0.0,0.0,1.4214,1.4624,1.4941,1.5182,1.5389,1.5305,1.5257,1.5264,1.5041,1.4957,1.4915,1.4741,1.4692,1.4692,1.4692,1.465,1.4566,1.4608,1.4615,1.4699,1.4957,1.5131,1.5215,1.5257,1.5347,1.5389,1.5389,1.5389,1.5389,1.5389,1.5389,1.5389,1.5389,1.5831,1.6667,1.8285,1.8472,1.8671,1.9706,0.0,0.0,0.0,0.0,0.0,0.0,0.0,2.0058,0.0,0.0,0.0,0.0,0.0,0.0,0.0,0.0,0.0,2.0015,0.0,2.0733,2.0629,2.1115,2.132,2.1205,2.1244,2.1205,2.1099,2.1099,2.1759,2.293,2.3682,2.5216,2.7225,2.7716,2.8462,2.9287,2.9287,2.9495,2.9792,2.9792,2.9792,2.9792,0.7498,0.0,0.7849,0.0,0.8442,0.8613,0.8865,0.9056,0.9122,0.8926,0.8926,0.8843,0.8608,0.8557,0.8623,0.872,0.8725,0.8741,0.8879,0.8772,0.8831,0.9178,0.9104,0.0,1.0679,1.137,1.2099,1.2808,1.315,0.0,0.0,0.0,0.0,0.0,1.4389,1.4708,1.4849,1.5245,1.5389,1.5389,1.5389,1.5389,1.5389,1.5257,1.5173,1.5173,1.495,1.4908,1.4908,1.4908,1.4908,1.4908,1.4824,1.4866,1.495,1.5124,1.5173,1.5215,1.5347,1.5389,1.5389,1.5389,1.5389,1.5389,1.5389,1.5582,1.5948,1.6435,1.6829,1.7626,1.9371,1.918,1.9195,2.0391,0.0,0.0,0.0,2.0644,0.0,0.0,2.0325,2.024,2.0409,2.0008,0.0,0.0,0.0,0.0,0.0,0.0,0.0,0.0,0.0,0.0,2.1212,2.1903,2.209,2.1731,2.1797,2.1645,2.1282,2.1712,2.2865,2.4646,2.5582,2.692,2.8502,2.8791,2.9248,2.9792,2.9792,2.9792,2.9792,2.9792,2.9792,2.9792,0.8174,0.828,0.845,0.8991,0.9088,0.9088,0.9092,0.929,0.94,0.94,0.951,0.9457,0.9035,0.8972,0.9139,0.9554,0.9453,0.94,0.94,0.919,0.9422,0.0,0.0,1.0942,1.2625,1.2662,1.3137,1.4082,0.0,0.0,1.3586,0.0,1.3891,1.461,1.461,1.4912,1.5382,1.5389,1.5389,1.5389,1.5389,1.5389,1.5389,1.5389,1.5389,1.5389,1.5389,1.5389,1.5389,1.5389,1.5389,1.5347,1.5173,1.5215,1.5389,1.5389,1.5389,1.5389,1.5389,1.5389,1.5389,1.5389,1.5389,1.5389,1.5389,1.6064,1.718,1.8895,1.8567,1.8519,2.0245,1.9893,1.9569,2.044,0.0,0.0,0.0,0.0,0.0,2.0262,2.0212,2.0362,2.0849,2.0484,0.0,0.0,0.0,0.0,0.0,0.0,0.0,2.0886,2.1606,0.0,2.1984,2.3352,2.3694,2.2964,2.2782,2.2258,2.1561,2.2888,2.4227,2.5658,2.7109,2.8047,2.8581,2.9417,2.9792,2.9792,2.9792,2.9792,2.9792,2.9792,2.9792,2.9792,0.8808,0.884,0.8897,0.9068,0.9194,0.9322,0.9322,0.9425,0.9543,0.9543,0.9592,0.9554,0.94,0.9396,0.9465,0.0,0.9575,0.9828,0.0,1.0462,1.074,1.1734,1.1483,1.1816,1.297,1.2795,1.3179,1.4088,0.0,0.0,0.0,1.414,1.451,1.4939,1.5063,1.5245,1.5389,1.5389,1.5389,1.5389,1.5389,1.5389,1.5389,1.5389,1.5389,1.5389,1.5389,1.5389,1.5389,1.5389,1.5389,1.5389,1.5305,1.5347,1.5389,1.5389,1.5389,1.5389,1.5389,1.5389,1.5389,1.5389,1.5389,1.5548,1.6147,1.6952,1.7917,1.9054,1.9094,1.9253,2.0401,2.0362,2.0284,2.0557,2.0605,0.0,2.0605,0.0,2.0847,2.0698,2.0907,2.1136,2.1298,2.1174,0.0,0.0,0.0,0.0,0.0,0.0,0.0,0.0,2.3014,0.0,2.3218,2.3811,2.3731,2.3001,2.2953,2.2966,2.309,2.4365,2.5697,2.7121,2.793,2.8712,2.9417,2.9675,2.9792,2.9792,2.9792,2.9792,2.9792,2.9792,2.9792,2.9792,0.9181,0.9194,0.9214,0.9283,0.9384,0.9458,0.9458,0.9555,0.9723,1.0158,1.0207,1.0355,1.0743,1.0743,0.0,1.0207,1.0207,1.0645,1.1707,1.1631,1.1993,1.2935,1.2603,1.2794,1.363,1.336,0.0,1.4088,1.3978,1.4001,1.4282,1.4625,1.4945,1.5215,1.5347,1.5389,1.5389,1.5389,1.5389,1.5389,1.5389,1.5389,1.5389,1.5389,1.5389,1.5389,1.5389,1.5389,1.5389,1.5389,1.5389,1.5389,1.5389,1.5389,1.5389,1.5389,1.5389,1.5389,1.5389,1.5707,1.6023,1.5899,1.6147,1.6591,1.7472,1.8118,1.8727,1.9618,1.9775,1.9932,2.0489,2.0605,2.0605,2.0605,2.0654,2.0693,2.0693,0.0,2.1039,0.0,0.0,0.0,0.0,2.1257,2.1357,0.0,0.0,0.0,0.0,0.0,0.0,2.3364,2.4139,2.4492,2.4373,2.4779,2.46,2.3863,2.357,2.3854,2.4713,2.566,2.6874,2.8243,2.8756,2.93,2.9792,2.9792,2.9792,2.9792,2.9792,2.9792,2.9792,2.9792,2.9792,2.9792,0.9388,0.942,0.9477,0.0,0.9579,0.0,0.9723,0.9727,1.0113,1.1175,1.1317,1.1658,1.2587,1.2678,1.2339,1.1512,0.0,0.0,0.0,1.2829,1.3157,1.3906,1.3692,1.3842,1.4512,1.4269,1.4151,1.413,1.4321,1.4524,1.4734,1.4999,1.5215,1.5389,1.5389,1.5389,1.5389,1.5389,1.5389,1.5389,1.5389,1.5389,1.5389,1.5389,1.5389,1.5389,1.5389,1.5389,1.5389,1.5389,1.5431,1.5506,1.5506,1.5548,1.5548,1.5431,1.5472,1.5506,1.5506,1.6345,1.7139,1.6854,1.7432,1.8278,1.9103,1.9341,1.9618,2.045,2.0605,2.0605,2.0605,2.0605,2.0605,2.0605,2.078,2.0906,2.0906,2.1244,2.1283,0.0,0.0,0.0,2.1049,2.1049,2.1602,0.0,0.0,0.0,0.0,0.0,2.2828,2.4205,2.5004,2.5382,2.5382,2.6141,2.6094,2.5276,2.4599,2.4916,2.6166,2.6782,2.774,2.8976,2.9566,2.9792,2.9792,2.9792,2.9792,2.9792,2.9792,2.9792,2.9792,2.9792,2.9792,2.9792,0.0,0.0,0.9575,0.9571,0.9579,0.9867,1.069,1.0837,1.1175,1.2193,1.2339,1.2436,1.2684,1.2678,1.2926,1.3516,1.2829,1.278,1.3854,1.3902,1.4358,1.5293,1.5067,1.4917,1.4863,1.4569,1.4388,1.4321,1.4741,1.4957,1.4999,1.5215,1.5347,1.5389,1.5389,1.5389,1.5389,1.5389,1.5389,1.5389,1.5389,1.5389,1.5389,1.5389,1.5389,1.5389,1.5389,1.5389,1.5389,1.5389,1.5824,1.6378,1.6378,1.687,1.7115,1.579,1.6023,1.6698,1.6698,1.7553,1.8367,1.7836,1.8367,1.9054,1.9262,1.9814,2.0362,2.0566,2.0605,2.0605,2.0605,2.0731,2.0819,2.0819,2.1012,2.1138,2.1138,2.1359,2.1433,0.0,2.1463,2.1841,2.2429,2.2504,2.2754,0.0,0.0,0.0,0.0,2.4256,2.4574,2.5896,2.6129,2.6211,2.6211,2.6383,2.6094,2.5312,2.5529,2.6019,2.6757,2.7877,2.8837,2.9591,2.9729,2.9792,2.9792,2.9792,2.9792,2.9792,2.9792,2.9792,2.9792,2.9792,2.9792,2.9792,0.9579,0.9579,0.9579,0.9579,1.0015,1.0547,1.1126,1.1609,1.2242,1.3318,1.3414,1.3607,1.4088,1.413,1.4328,1.4914,1.4046,1.3848,1.4921,1.4968,1.5207,1.5784,1.5551,1.5324,1.5209,1.4831,1.4627,1.4524,1.4915,1.509,1.509,1.5305,1.5389,1.5389,1.5389,1.5389,1.5389,1.5389,1.5389,1.5389,1.5389,1.5389,1.5389,1.5389,1.5389,1.5389,1.5389,1.5389,1.5472,1.5865,1.6304,1.678,1.718,1.7634,1.7796,1.6878,1.6829,1.722,1.7755,1.8767,1.9608,1.9283,1.9529,1.9893,1.9893,2.0245,2.0605,2.0605,2.0654,2.0731,2.0731,2.0896,2.1022,2.1022,2.1034,2.1078,2.1328,2.1329,2.1532,2.2117,2.2289,2.2654,2.3412,2.3486,2.3738,2.4284,2.4308,0.0,2.5443,2.5477,2.5785,2.6487,2.6499,2.6499,2.6499,2.6499,2.628,2.5851,2.6391,2.6931,2.7484,2.8475,2.9252,2.9792,2.9792,2.9792,2.9792,2.9792,2.9792,2.9792,2.9792,2.9792,2.9792,2.9792,2.9792,2.9792,0.9821,0.9817,0.9867,1.0064,1.0837,1.1463,1.1658,1.2393,1.3318,1.4388,1.4538,1.4873,1.573,1.5784,1.5784,1.5784,1.5016,1.4873,1.573,1.5784,1.5784,1.5784,1.5591,1.5444,1.5444,1.514,1.4934,1.4776,1.4999,1.5131,1.5131,1.5305,1.5389,1.5389,1.5389,1.5389,1.5389,1.5389,1.5389,1.5389,1.5389,1.5389,1.5389,1.5389,1.5389,1.5431,1.5548,1.5582,1.5748,1.6583,1.6984,1.7229,1.7957,1.8278,1.8399,1.8399,1.8029,1.7827,1.8727,1.9766,2.0605,2.0605,2.0605,2.0644,2.0644,2.0683,2.0683,2.0683,2.0819,2.0945,2.0945,2.1099,2.1223,2.1153,2.1022,2.1118,2.1549,0.0,2.1834,2.301,2.3176,2.346,2.4192,2.4264,2.46,2.5418,2.5488,2.5781,2.6452,2.6499,2.6499,2.6499,2.6499,2.6499,2.6499,2.6499,2.6537,2.6625,2.7178,2.7695,2.8247,2.8775,2.9327,2.9792,2.9792,2.9792,2.9792,2.9792,2.9792,2.9792,2.9792,2.9792,2.9792,2.983,2.9869,2.9908,1.0788,1.093,1.1224,1.2052,1.2344,1.278,1.3661,1.3956,1.4436,1.5445,1.5588,1.5635,1.5784,1.5784,1.5784,1.5784,1.5642,1.5635,1.5778,1.5784,1.5784,1.5784,1.5738,1.5745,1.5734,1.5583,1.5319,1.5048,1.5257,1.5347,1.5347,1.5389,1.5389,1.5389,1.5389,1.5389,1.5389,1.5389,1.5389,1.5389,1.5389,1.5389,1.5389,1.5389,1.5389,1.5506,1.6221,1.6501,1.6624,1.7513,1.8287,1.8935,1.9054,1.9608,2.0206,2.0206,2.0118,1.9923,1.9381,1.9893,2.0605,2.0605,2.0731,2.0867,2.0867,2.0974,2.1128,2.1128,2.1128,2.1167,2.1167,2.132,2.1303,2.0917,2.1309,2.1768,2.2142,0.0,2.3014,2.3829,2.3938,2.4228,2.5052,2.5123,2.5453,2.6233,2.6314,2.6383,2.6499,2.6499,2.6499,2.6499,2.6499,2.6499,2.6499,2.6499,2.6725,2.719,2.7708,2.8273,2.8787,2.9402,2.9704,2.9792,2.9792,2.9792,2.9792,2.9792,2.9792,2.9792,2.9792,2.9792,2.983,2.9972,3.0049,3.019,1.1126,1.1658,1.2145,1.263,1.3167,1.3709,1.4202,1.4777,1.5255,1.573,1.5784,1.5784,1.5784,1.5784,1.5784,1.5784,1.5784,1.5879,1.6028,1.5879,1.5879,1.6028,1.6028,1.6074,1.6148,1.5922,1.5706,1.5517,1.5427,1.5389,1.5389,1.5389,1.5389,1.5389,1.5389,1.5389,1.5389,1.5389,1.5389,1.5389,1.5389,1.5665,1.6105,1.6105,1.6386,1.6837,1.7269,1.7391,1.7513,1.8407,1.8975,1.9381,1.9854,2.0333,2.078,2.078,2.0693,2.0527,2.0128,2.0372,2.078,2.078,2.0896,2.1061,2.1061,2.1128,2.1205,2.1205,2.1282,2.1359,2.1359,2.154,2.1735,2.1966,2.2041,0.0,2.3176,2.325,2.3618,2.4601,2.4755,2.5075,2.5886,2.5955,2.6094,2.6452,2.6499,2.6499,2.6499,2.6499,2.6499,2.6499,2.6499,2.6499,2.6499,2.6499,2.6776,2.7329,2.7846,2.8398,2.8913,2.9528,2.9792,2.9792,2.9792,2.9869,2.9972,2.9972,3.0049,3.0113,3.0113,3.0113,3.019,3.0646,3.0872,3.0972,1.1853,1.2538,1.3167,1.3355,1.4094,1.4634,1.4634,1.5302,1.5784,1.5784,1.5784,1.5784,1.5784,1.5784,1.5832,1.5879,1.5879,1.6021,1.6265,1.6116,1.6069,1.6265,1.6366,1.6409,1.6514,1.6308,1.6125,1.5913,1.5622,1.5462,1.5389,1.5389,1.5389,1.5389,1.5389,1.5389,1.5389,1.5389,1.5506,1.5707,1.5707,1.6229,1.6984,1.6984,1.7432,1.8037,1.8238,1.8278,1.8447,1.9292,1.9618,1.9784,2.045,2.0819,2.0984,2.0984,2.0858,2.0722,2.0722,2.0848,2.0984,2.0984,2.1128,2.1282,2.1282,2.132,2.1359,2.1359,2.1474,2.1617,2.1807,2.1949,2.2295,2.2985,0.0,2.3089,0.0,2.399,2.4284,2.544,2.5594,2.5816,2.6452,2.6499,2.6499,2.6499,2.6499,2.6499,2.6499,2.6499,2.6499,2.6499,2.6499,2.6499,2.6499,2.6612,2.6964,2.7482,2.8034,2.8586,2.9101,2.9591,2.9792,2.9792,2.9869,2.9972,3.0113,3.0152,3.0254,3.0406,3.0406,3.0508,3.0722,3.1331,3.1686,3.1965,1.3859,1.4148,1.4484,1.5397,1.5635,1.5689,1.5689,1.5737,1.5784,1.5784,1.5784,1.5784,1.5784,1.5784,1.5879,1.617,1.6177,1.6265,1.6541,1.6541,1.6541,1.6581,1.6784,1.6782,1.6514,1.6699,1.6528,1.5913,1.5891,1.5681,1.5389,1.5389,1.5389,1.5389,1.5389,1.5389,1.5389,1.5389,1.5865,1.6617,1.6617,1.7147,1.7917,1.7917,1.7957,1.8118,1.8895,1.9213,1.9341,2.0206,2.0615,2.079,2.0867,2.1022,2.1167,2.1167,2.1167,2.1167,2.1167,2.1167,2.1167,2.1167,2.132,2.1464,2.1464,2.1617,2.1769,2.1769,2.1769,2.1987,2.274,2.2889,2.3033,2.3417,0.0,0.0,2.4523,2.4916,2.5475,2.6302,2.6418,2.6418,2.6487,2.6499,2.6499,2.6499,2.6499,2.6499,2.6499,2.6499,2.6499,2.6499,2.6499,2.6499,2.6499,2.7002,2.7494,2.8047,2.8562,2.9126,2.9729,2.9779,2.9792,2.9792,3.0011,3.0075,3.0113,3.0292,3.0406,3.0406,3.0406,3.0835,3.1442,3.1686,3.2205,3.2925,1.4202,1.4825,1.535,1.573,1.5784,1.5784,1.5784,1.5784,1.5784,1.5784,1.5784,1.5784,1.5784,1.5927,1.6076,1.6177,1.6359,1.6548,1.6831,1.6831,1.6831,1.6831,1.7059,1.7142,1.7018,1.6914,1.6785,1.6499,1.6104,1.5848,1.5723,1.5484,1.5389,1.5389,1.5389,1.5389,1.5431,1.5982,1.6419,1.6739,1.731,1.8037,1.8816,1.8816,1.9125,1.9638,2.001,2.0089,2.0167,2.0615,2.0829,2.0906,2.1061,2.1205,2.1397,2.155,2.1578,2.1578,2.1578,2.1464,2.1397,2.1397,2.155,2.1693,2.1693,2.2138,2.2553,2.2553,2.2905,2.3327,2.3621,2.3694,2.3893,2.4496,0.0,2.5075,2.5706,2.5936,2.6176,2.6452,2.6499,2.6499,2.6499,2.6499,2.6499,2.6499,2.6499,2.6499,2.6499,2.6499,2.6499,2.6499,2.6499,2.6663,2.7002,2.7216,2.7733,2.8612,2.8787,2.9265,2.9972,2.9972,3.0049,3.019,3.0254,3.0343,3.0495,3.106,3.1331,3.1516,3.1978,3.229,3.2613,3.3164,3.3533,3.3891,1.4873,1.5397,1.5825,1.6021,1.5974,1.5974,1.6015,1.6069,1.6069,1.6069,1.6069,1.6069,1.6069,1.6211,1.6359,1.6461,1.6643,1.6824,1.7066,1.7113,1.7113,1.7113,1.7239,1.7279,1.7279,1.7113,1.6998,1.6903,1.6426,1.6155,1.6052,1.5731,1.5542,1.5577,1.571,1.5824,1.5865,1.6747,1.7269,1.7553,1.8158,1.8926,1.9696,1.9696,2.0175,2.0811,2.0889,2.1017,2.1145,2.1352,2.148,2.1549,2.1706,2.1761,2.1801,2.1811,2.1807,2.1807,2.1807,2.1873,2.1921,2.1655,2.1883,2.2176,2.2176,2.2767,2.335,2.335,2.3731,2.4192,2.4409,2.4492,2.4743,2.5558,2.5676,2.5886,2.6418,2.6499,2.6499,2.6499,2.6499,2.6499,2.6499,2.6499,2.6499,2.6499,2.6499,2.6499,2.6499,2.6521,2.6555,2.6555,2.6801,2.7202,2.771,2.7616,2.8009,2.8888,2.9152,2.9593,3.0113,3.019,3.0254,3.0406,3.0722,3.0923,3.111,3.1905,3.2326,3.2506,3.3003,3.3353,3.3596,3.4095,3.4461,3.4758,1.617,1.5981,1.5967,1.6487,1.6359,1.6312,1.6541,1.6588,1.6588,1.6588,1.6588,1.6588,1.6588,1.6588,1.673,1.6979,1.6979,1.7113,1.7286,1.7279,1.7279,1.7279,1.7279,1.7279,1.7279,1.7279,1.7172,1.6903,1.6903,1.6734,1.6411,1.606,1.5921,1.5949,1.6459,1.6706,1.6788,1.7642,1.8536,1.9311,1.9311,1.9824,2.0615,2.0615,2.085,2.124,2.1501,2.1859,2.2246,2.2502,2.2747,2.291,2.291,2.2713,2.2408,2.1952,2.1818,2.1818,2.1807,2.2402,2.2815,2.1987,2.2402,2.3001,2.3001,2.3596,2.4108,2.4108,2.4108,2.4373,2.5158,2.5312,2.5558,2.6383,2.6499,2.6499,2.6499,2.6499,2.6499,2.6499,2.6499,2.6499,2.6499,2.6499,2.6499,2.6499,2.6499,2.6499,2.6499,2.6624,2.6679,2.6692,2.748,2.8161,2.869,2.8292,2.8386,2.89,2.9732,3.0113,3.0113,3.033,3.0406,3.047,3.1405,3.1796,3.1869,3.2826,3.3213,3.3213,3.3213,3.3665,3.4312,3.4312,3.4791,3.5504,1.6447,1.64,1.6393,1.6581,1.6541,1.6494,1.6588,1.6588,1.6588,1.6588,1.6588,1.6588,1.6588,1.6784,1.6925,1.6979,1.7106,1.7239,1.7279,1.7279,1.7279,1.7279,1.7279,1.7279,1.7279,1.7279,1.7282,1.7186,1.7013,1.6851,1.6749,1.7064,1.7251,1.7286,1.8151,1.8524,1.8566,1.9454,1.997,2.0269,2.0863,2.1281,2.1535,2.1687,2.1806,2.1925,2.222,2.2392,2.2502,2.2747,2.2869,2.291,2.3073,2.305,2.2956,2.2811,2.2542,2.24,2.2996,2.3053,2.2927,2.2703,2.3202,2.3768,2.3768,2.4384,2.4933,2.4933,2.5406,2.5873,2.6094,2.6129,2.6211,2.6452,2.6499,2.6499,2.6499,2.6499,2.6499,2.6499,2.6499,2.6499,2.6499,2.6499,2.6499,2.6499,2.6499,2.6521,2.6658,2.6692,2.6972,2.7506,2.7767,2.8354,2.923,2.9132,2.9375,2.9961,3.0215,3.0381,3.0546,3.1121,3.1479,3.1649,3.2434,3.2791,3.2826,3.365,3.3973,3.4041,3.4606,3.4968,3.5133,3.5133,3.5279,3.5504,1.669,1.6683,1.6676,1.6817,1.6824,1.6777,1.6864,1.6864,1.6864,1.6864,1.6864,1.6864,1.6864,1.7012,1.7113,1.7113,1.7239,1.7279,1.7279,1.7279,1.7279,1.7279,1.7279,1.7279,1.7279,1.7279,1.7279,1.7279,1.7543,1.7629,1.7667,1.829,1.8594,1.863,1.9444,1.98,1.9851,2.0755,2.1099,2.115,2.1668,2.1967,2.205,2.2164,2.2355,2.2629,2.2877,2.3081,2.3275,2.3483,2.3515,2.3536,2.3474,2.3463,2.3504,2.3659,2.3515,2.3477,2.431,2.4382,2.4232,2.4232,2.4401,2.4564,2.4564,2.5194,2.5769,2.5769,2.6164,2.6499,2.6499,2.6499,2.6499,2.6499,2.6499,2.6499,2.6499,2.6499,2.6499,2.6499,2.6499,2.6499,2.6499,2.6499,2.6521,2.6589,2.6589,2.6658,2.6794,2.6897,2.7255,2.7971,2.8285,2.8876,2.9707,2.9977,3.0186,3.0406,3.0482,3.0748,3.1147,3.17,3.2146,3.2577,3.3318,3.363,3.3699,3.4476,3.4758,3.4824,3.5311,3.5504,3.5504,3.5504,3.5504,3.5504,1.6979,1.6824,1.6817,1.7232,1.7153,1.7113,1.7286,1.7279,1.7279,1.7279,1.7279,1.7279,1.7279,1.7279,1.7279,1.7279,1.7279,1.7279,1.7279,1.7279,1.7279,1.7279,1.7279,1.7326,1.7419,1.7419,1.7419,1.7419,1.8427,1.8926,1.8918,1.9622,1.9956,1.9982,2.0546,2.0815,2.0866,2.1691,2.2043,2.2043,2.2043,2.2158,2.2365,2.2365,2.278,2.3342,2.35,2.3849,2.4239,2.4454,2.4497,2.4425,2.4064,2.4023,2.4127,2.4501,2.4656,2.4859,2.5716,2.6066,2.6202,2.6275,2.5877,2.5478,2.543,2.599,2.6499,2.6499,2.6499,2.6499,2.6499,2.6499,2.6499,2.6499,2.6499,2.6499,2.6499,2.6499,2.6499,2.6499,2.6499,2.6499,2.6499,2.6499,2.6602,2.6726,2.6726,2.6794,2.7024,2.7266,2.7639,2.8174,2.8982,2.9663,3.0275,3.0823,3.0898,3.0545,3.0748,3.1222,3.1942,3.2182,3.2648,3.3353,3.4075,3.4413,3.4461,3.5213,3.5504,3.5504,3.5504,3.5504,3.5504,3.5504,3.5504,3.5504,1.72,1.7192,1.7185,1.7279,1.7286,1.7239,1.7279,1.7279,1.7279,1.7279,1.7279,1.7279,1.7279,1.7279,1.7279,1.7279,1.7279,1.7279,1.7279,1.7279,1.7279,1.7279,1.7279,1.7645,1.8473,1.8473,1.8473,1.8473,1.9422,1.9914,1.9914,2.0837,2.1291,2.1336,2.2186,2.2549,2.2549,2.2775,2.2957,2.314,2.314,2.3259,2.3473,2.3697,2.3843,2.4021,2.4224,2.4329,2.4454,2.4497,2.4497,2.4476,2.4383,2.483,2.5416,2.5505,2.5779,2.6244,2.7002,2.6966,2.6868,2.7507,2.7243,2.6768,2.6345,2.6383,2.6499,2.6499,2.6499,2.6499,2.6499,2.6499,2.6499,2.6499,2.6499,2.6499,2.6499,2.6499,2.6499,2.6499,2.6499,2.6499,2.6499,2.6589,2.6726,2.6909,2.6943,2.7011,2.7214,2.7661,2.827,2.903,2.9617,3.0494,3.1644,3.1815,3.1809,3.1723,3.1773,3.2196,3.2932,3.3547,3.3925,3.4109,3.4905,3.5246,3.5246,3.5439,3.5504,3.5504,3.5504,3.5504,3.5504,3.5504,3.5504,3.5504,1.7279,1.7279,1.7279,1.7279,1.7279,1.7279,1.7279,1.7279,1.7279,1.7279,1.7279,1.7279,1.7279,1.7279,1.7279,1.7279,1.7279,1.7279,1.7279,1.7279,1.7279,1.7279,1.7738,1.8241,1.8796,1.9695,1.9968,1.9467,2.0421,2.0917,2.0917,2.1917,2.2378,2.2378,2.2872,2.3091,2.3091,2.3091,2.3232,2.3503,2.3503,2.3721,2.4024,2.4163,2.4249,2.4378,2.4454,2.4497,2.4497,2.4497,2.4497,2.4497,2.4497,2.5105,2.5861,2.6276,2.6926,2.7609,2.8443,2.827,2.7977,2.8387,2.8084,2.7532,2.7014,2.6688,2.6499,2.6499,2.6499,2.6499,2.6499,2.6499,2.6499,2.6499,2.6499,2.6499,2.6499,2.6499,2.6499,2.6499,2.6555,2.6624,2.6739,2.6807,2.6943,2.7113,2.7391,2.7614,2.7806,2.8352,2.9136,3.0162,3.0468,3.1254,3.2613,3.2613,3.2777,3.3164,3.2777,3.3003,3.3734,3.4129,3.4495,3.4905,3.5326,3.5504,3.5504,3.5504,3.5504,3.5504,3.5504,3.5504,3.5504,3.5504,3.5504,3.5504,1.7279,1.7279,1.7279,1.7279,1.7279,1.7279,1.7279,1.7279,1.7279,1.7279,1.7279,1.7279,1.7279,1.7279,1.7279,1.7279,1.7279,1.7279,1.7279,1.7279,1.7372,1.7552,1.838,1.8972,1.9293,2.0881,2.1284,2.0458,2.1463,2.1917,2.1961,2.2731,2.3091,2.3091,2.3091,2.3144,2.3188,2.3188,2.3319,2.3634,2.3634,2.3851,2.4249,2.4249,2.4325,2.4497,2.4497,2.4497,2.4497,2.4497,2.4615,2.4743,2.4743,2.5432,2.64,2.7151,2.8011,2.8882,2.9585,2.944,2.9038,2.9038,2.8624,2.8134,2.767,2.7102,2.6637,2.6637,2.6562,2.6499,2.6499,2.6521,2.6521,2.6521,2.6568,2.6602,2.6602,2.6602,2.6602,2.6602,2.6692,2.6829,2.7045,2.7045,2.7219,2.7633,2.8077,2.8528,2.8915,2.9499,3.0311,3.1354,3.1498,3.2151,3.3388,3.3388,3.3768,3.4495,3.3885,3.3919,3.4495,3.4495,3.4872,3.5504,3.5504,3.5504,3.5504,3.5504,3.5504,3.5504,3.5504,3.5504,3.5504,3.5504,3.5504,3.5504,1.7279,1.7279,1.7279,1.7279,1.7279,1.7279,1.7279,1.7279,1.7279,1.7279,1.7279,1.7279,1.7279,1.7279,1.7279,1.7279,1.7279,1.7279,1.7279,1.7279,1.7692,1.8565,1.8742,1.9604,2.1284,2.1561,2.165,2.1507,2.2457,2.2916,2.2916,2.3047,2.3091,2.3091,2.3091,2.3232,2.346,2.346,2.3721,2.412,2.412,2.4239,2.4454,2.4454,2.4454,2.4497,2.4497,2.4497,2.4497,2.4497,2.502,2.5621,2.5621,2.6771,2.8171,2.8303,2.8922,2.9663,2.9753,2.9729,2.9679,2.9679,2.9239,2.8762,2.8687,2.7908,2.7203,2.7203,2.6826,2.6499,2.6499,2.6589,2.6692,2.6692,2.6807,2.6943,2.6943,2.6943,2.6943,2.6943,2.6956,2.7045,2.7248,2.7268,2.7799,2.9099,2.9287,2.9812,3.1034,3.1648,3.2046,3.2232,3.2681,3.3338,3.4129,3.4143,3.4543,3.5359,3.5261,3.5246,3.5359,3.5359,3.5392,3.5504,3.5504,3.5504,3.5504,3.5504,3.5504,3.5504,3.5504,3.5504,3.5504,3.5504,3.5504,3.5537,1.7279,1.7279,1.7279,1.7279,1.7279,1.7279,1.7279,1.7279,1.7279,1.7279,1.7279,1.7279,1.7279,1.7279,1.7279,1.7279,1.7279,1.7559,1.811,1.8149,1.8557,1.9559,2.0104,2.0827,2.1695,2.2369,2.2687,2.2687,2.296,2.3091,2.3091,2.3091,2.3188,2.3319,2.3319,2.345,2.3667,2.3667,2.3851,2.4206,2.4206,2.4335,2.4497,2.4497,2.4497,2.4583,2.5062,2.5221,2.5306,2.5799,2.6205,2.6524,2.6524,2.7424,2.8502,2.8502,2.9131,2.9792,2.9792,2.9792,2.9792,2.9792,2.9603,2.9415,2.9415,2.8787,2.8109,2.7808,2.7652,2.7546,2.7546,2.7468,2.7369,2.7369,2.7148,2.699,2.699,2.699,2.7045,2.7146,2.7417,2.785,2.8452,2.8845,2.9477,3.0538,3.0937,3.1378,3.196,3.2551,3.3047,3.3455,3.3693,3.4192,3.4938,3.4986,3.5166,3.5504,3.5504,3.5504,3.5504,3.5504,3.5504,3.5504,3.5504,3.5504,3.5504,3.5504,3.5504,3.5504,3.5504,3.5504,3.5504,3.5572,3.5621,3.5653]}]]